[[{"header":{"parameterUnit":"m.s-1","parameterCategory":1,"la1":31.0,"la2":29.5877,"lo1":-88.7671,"lo2":-86.6584,"dy":0.0162,"dx":0.0185,"nx":115,"ny":88,"refTime":"2023-08-11T18:00:00:Z","depth":0,"parameterNumber":2,"parameterNumberName":"U-component_of_WINDS"},"data":[0.0,0.0,0.0,0.0,0.0,0.0,0.0,0.0,0.0,0.0,0.0,0.0,0.0,0.0,0.0,0.0,0.0,0.0,0.0,0.0,0.0,0.0,0.0,0.0,0.0,0.0,0.0,0.0,0.0,0.0,0.0,0.0,0.0,0.0,0.0,0.0,0.0,0.0,0.0,0.0,0.0,0.0,0.0,0.0,0.0,0.0,0.0,0.0,0.0,0.0,0.0,0.0,0.0,0.0,0.0,0.0,0.0,0.0,0.0,0.0,0.0,0.0,0.0,0.0,0.0,0.0,0.0,0.0,0.0,0.0,0.0,0.0,0.0,0.0,0.0,0.0,0.0,0.0,0.0,0.0,0.0,0.0,0.0,0.0,0.0,0.0,0.0,0.0,0.0,0.0,0.0,0.0,0.0,0.0,0.0,0.0,0.0,0.0,0.0,0.0,0.0,0.0,0.0,0.0,0.0,0.0,0.0,0.0,0.0,0.0,0.0,0.0,0.0,0.0,0.0,0.0,0.0,0.0,0.0,0.0,0.0,0.0,0.0,0.0,0.0,0.0,0.0,0.0,0.0,0.0,0.0,0.0,0.0,0.0,0.0,0.0,0.0,0.0,0.0,0.0,0.0,0.0,0.0,0.0,0.0,0.0,0.0,0.0,0.0,0.0,0.0,0.0,0.0,0.0,0.0,0.0,0.0,0.0,0.0,0.0,0.0,0.0,0.0,0.0,0.0,0.0,0.0,0.0,0.0,0.0,0.0,0.0,0.0,0.0,0.0,0.0,0.0,0.0,0.0,0.0,0.0,0.0,0.0,0.0,0.0,0.0,0.0,0.0,0.0,0.0,0.0,0.0,0.0,0.0,0.0,0.0,0.0,0.0,0.0,0.0,0.0,0.0,0.0,0.0,0.0,0.0,0.0,0.0,0.0,0.0,0.0,0.0,0.0,0.0,0.0,0.0,0.0,0.0,0.0,0.0,0.0,0.0,0.0,0.0,0.0,0.0,0.0,0.0,0.0,0.0,0.0,0.0,0.0,0.0,0.0,0.0,0.0,0.0,0.0,0.0,0.0,0.0,0.0,0.0,0.0,0.0,0.0,0.0,0.0,0.0,0.0,0.0,0.0,0.0,0.0,0.0,0.0,0.0,0.0,0.0,0.0,0.0,0.0,0.0,0.0,0.0,0.0,0.0,0.0,0.0,0.0,0.0,0.0,0.0,0.0,0.0,0.0,0.0,0.0,0.0,0.0,0.0,0.0,0.0,0.0,0.0,0.0,0.0,0.0,0.0,0.0,0.0,0.0,0.0,0.0,0.0,0.0,0.0,0.0,0.0,0.0,0.0,0.0,0.0,0.0,0.0,0.0,0.0,0.0,0.0,0.0,0.0,0.0,0.0,0.0,0.0,0.0,0.0,0.0,0.0,0.0,0.0,0.0,0.0,0.0,0.0,0.0,0.0,0.0,0.0,0.0,0.0,0.0,0.0,0.0,0.0,0.0,0.0,0.0,0.0,0.0,0.0,0.0,0.0,0.0,0.0,0.0,0.0,0.0,0.0,0.0,0.0,0.0,0.0,0.0,0.0,0.0,0.0,0.0,0.0,0.0,0.0,0.0,0.0,0.0,0.0,0.0,0.0,0.0,0.0,0.0,0.0,0.0,0.0,0.0,0.0,0.0,0.0,0.0,0.0,0.0,0.0,0.0,0.0,0.0,0.0,0.0,0.0,0.0,0.0,0.0,0.0,0.0,0.0,0.0,0.0,0.0,0.0,0.0,0.0,0.0,0.0,0.0,0.0,0.0,0.0,0.0,0.0,0.0,0.0,0.0,0.0,0.0,0.0,0.0,0.0,0.0,0.0,0.0,0.0,0.0,0.0,0.0,0.0,0.0,0.0,0.0,0.0,0.0,0.0,0.0,0.0,0.0,0.0,0.0,0.0,0.0,0.0,0.0,0.0,0.0,0.0,0.0,0.0,0.0,0.0,0.0,0.0,0.0,0.0,0.0,0.0,0.0,0.0,0.0,0.0,0.0,0.0,0.0,0.0,0.0,0.0,0.0,0.0,0.0,0.0,0.0,0.0,0.0,0.0,0.0,0.0,0.0,0.0,0.0,0.0,0.0,0.0,0.0,0.0,0.0,0.0,0.0,0.0,0.0,0.0,0.0,0.0,0.0,0.0,0.0,0.0,0.0,0.0,0.0,0.0,0.0,0.0,0.0,0.0,0.0,0.0,0.0,0.0,0.0,0.0,0.0,0.0,0.0,0.0,0.0,0.0,0.0,0.0,0.0,0.0,0.0,0.0,0.0,0.0,0.0,0.0,0.0,0.0,0.0,0.0,0.0,0.0,0.0,0.0,0.0,0.0,0.0,0.0,0.0,0.0,0.0,0.0,0.0,0.0,0.0,0.0,0.0,0.0,0.0,0.0,0.0,0.0,0.0,0.0,0.0,0.0,0.0,0.0,0.0,0.0,0.0,0.0,0.0,0.0,0.0,0.0,0.0,0.0,0.0,0.0,0.0,0.0,0.0,0.0,0.0,0.0,0.0,0.0,0.0,0.0,0.0,0.0,0.0,0.0,0.0,0.0,0.0,0.0,0.0,0.0,0.0,0.0,0.0,0.0,0.0,0.0,0.0,0.0,0.0,0.0,0.0,0.0,0.0,0.0,0.0,0.0,0.0,0.0,0.0,0.0,0.0,0.0,0.0,0.0,0.0,0.0,0.0,0.0,0.0,0.0,0.0,0.0,0.0,0.0,0.0,0.0,0.0,0.0,0.0,0.0,0.0,0.0,0.0,0.0,0.0,0.0,0.0,0.0,0.0,0.0,0.0,0.0,0.0,0.0,0.0,0.0,0.0,0.0,0.0,0.0,0.0,0.0,0.0,0.0,0.0,0.0,0.0,0.0,0.0,0.0,0.0,0.0,0.0,0.0,0.0,0.0,0.0,0.0,0.0,0.0,0.0,0.0,0.0,0.0,0.0,0.0,0.0,0.0,0.0,0.0,0.0,0.0,0.0,0.0,0.0,0.0,0.0,0.0,0.0,0.0,0.0,0.0,0.0,0.0,0.0,0.0,0.0,0.0,0.0,0.0,0.0,0.0,0.0,0.0,0.0,0.0,0.0,0.0,0.0,0.0,0.0,0.0,0.0,0.0,0.0,0.0,0.0,0.0,0.0,0.0,0.0,0.0,0.0,0.0,0.0,0.0,0.0,0.0,0.0,0.0,0.0,0.0,0.0,0.0,0.0,0.0,0.0,0.0,0.0,0.0,0.0,0.0,0.0,0.0,0.0,0.0,0.0,0.0,0.0,0.0,0.0,0.0,0.0,0.0,0.0,0.0,0.0,0.0,0.0,0.0,0.0,0.0,0.0,0.0,0.0,0.0,0.0,0.0,0.0,0.0,0.0,0.0,0.0,0.0,0.0,0.0,0.0,0.0,0.0,0.0,0.0,0.0,0.0,0.0,0.0,0.0,0.0,0.0,0.0,0.0,0.0,0.0,0.0,0.0,0.0,0.0,0.0,0.0,0.0,0.0,0.0,0.0,0.0,0.0,0.0,0.0,0.0,0.0,0.0,0.0,0.0,0.0,0.0,0.0,0.0,0.0,0.0,0.0,0.0,0.0,0.0,0.0,0.0,0.0,0.0,0.0,0.0,0.0,0.0,0.0,0.0,0.0,0.0,0.0,0.0,0.0,0.0,0.0,0.0,0.0,0.0,0.0,0.0,0.0,0.0,0.0,0.0,0.0,0.0,0.0,0.0,0.0,0.0,0.0,0.0,0.0,0.0,0.0,0.0,0.0,0.0,0.0,0.0,0.0,0.0,0.0,0.0,0.0,0.0,0.0,0.0,0.0,0.0,0.0,0.0,0.0,0.0,0.0,0.0,0.0,0.0,0.0,0.0,0.0,0.0,0.0,0.0,0.0,0.0,0.0,0.0,0.0,0.0,0.0,0.0,0.0,0.0,0.0,0.0,0.0,0.0,0.0,0.0,0.0,0.0,0.0,0.0,0.0,0.0,0.0,0.0,0.0,0.0,0.0,0.0,0.0,0.0,0.0,0.0,0.0,0.0,0.0,0.0,0.0,0.0,0.0,0.0,0.0,0.0,0.0,0.0,0.0,0.0,0.0,0.0,0.0,0.0,0.0,0.0,0.0,0.0,0.0,0.0,0.0,0.0,0.0,0.0,0.0,0.0,0.0,0.0,0.0,0.0,0.0,0.0,0.0,0.0,0.0,0.0,0.0,0.0,0.0,0.0,0.0,0.0,0.0,0.0,0.0,0.0,0.0,-0.7848,0.0,0.0,0.0,0.0,0.0,0.0,0.0,0.0,0.0,0.0,0.0,0.0,0.0,0.0,0.0,0.0,0.0,0.0,0.0,0.0,0.0,0.0,0.0,0.0,0.0,0.0,0.0,0.0,0.0,0.0,0.0,0.0,0.0,0.0,0.0,0.0,0.0,0.0,0.0,0.0,0.0,0.0,0.0,0.0,0.0,0.0,0.0,0.0,0.0,0.0,0.0,0.0,0.0,0.0,0.0,0.0,0.0,0.0,0.0,0.0,0.0,0.0,0.0,0.0,0.0,0.0,0.0,0.0,0.0,0.0,0.0,0.0,0.0,0.0,0.0,0.0,0.0,0.0,0.0,0.0,0.0,0.0,0.0,0.0,0.0,0.0,0.0,0.0,0.0,0.0,0.0,0.0,0.0,0.0,0.0,0.0,0.0,0.0,0.0,0.0,0.0,0.0,0.0,0.0,0.0,0.0,0.0,0.0,0.0,0.0,-0.8391,-0.8591,-0.8331,-0.8156,-0.8062,0.0,0.0,0.0,0.0,0.0,0.0,0.0,0.0,0.0,0.0,0.0,0.0,0.0,0.0,0.0,0.0,0.0,0.0,0.0,0.0,0.0,0.0,0.0,0.0,0.0,0.0,0.0,0.0,0.0,0.0,0.0,0.0,0.0,0.0,0.0,0.0,0.0,0.0,0.0,0.0,0.0,0.0,0.0,0.0,0.0,0.0,0.0,0.0,0.0,0.0,0.0,0.0,0.0,0.0,0.0,0.0,0.0,0.0,0.0,0.0,0.0,0.0,0.0,0.0,0.0,0.0,0.0,0.0,0.0,0.0,0.0,0.0,0.0,0.0,0.0,0.0,0.0,0.0,0.0,0.0,0.0,0.0,0.0,0.0,0.0,0.0,0.0,0.0,0.0,0.0,0.0,0.0,0.0,0.0,0.0,0.0,0.0,0.0,0.0,0.0,0.0,0.0,0.0,0.0,0.0,0.0,0.0,0.0,0.0,0.0,0.0,0.0,-0.8687,-0.8491,-0.8221,0.0,0.0,0.0,0.0,0.0,0.0,0.0,0.0,0.0,0.0,0.0,0.0,0.0,0.0,0.0,0.0,0.0,0.0,0.0,0.0,0.0,0.0,0.0,0.0,0.0,0.0,0.0,0.0,0.0,0.0,0.0,0.0,0.0,0.0,0.0,0.0,0.0,0.0,0.0,0.0,0.0,0.0,0.0,0.0,0.0,0.0,0.0,0.0,0.0,0.0,0.0,0.0,0.0,0.0,0.0,0.0,0.0,0.0,0.0,0.0,0.0,0.0,0.0,0.0,0.0,0.0,0.0,0.0,0.0,0.0,0.0,0.0,0.0,0.0,0.0,0.0,0.0,0.0,0.0,0.0,0.0,0.0,0.0,0.0,0.0,0.0,0.0,0.0,0.0,0.0,0.0,0.0,0.0,0.0,0.0,0.0,0.0,0.0,0.0,0.0,0.0,0.0,0.0,0.0,0.0,0.0,0.0,0.0,0.0,0.0,-0.9429,-0.919,-0.9157,0.0,-0.8394,0.0,0.0,0.0,0.0,0.0,0.0,0.0,0.0,0.0,0.0,0.0,0.0,0.0,0.0,0.0,0.0,0.0,0.0,0.0,0.0,0.0,0.0,0.0,0.0,0.0,0.0,0.0,0.0,0.0,0.0,0.0,0.0,0.0,0.0,0.0,0.0,0.0,0.0,0.0,0.0,0.0,0.0,0.0,0.0,0.0,0.0,0.0,0.0,0.0,0.0,0.0,0.0,0.0,0.0,0.0,0.0,0.0,0.0,0.0,0.0,0.0,0.0,0.0,0.0,0.0,0.0,0.0,0.0,0.0,0.0,0.0,0.0,0.0,0.0,0.0,0.0,0.0,0.0,0.0,0.0,0.0,0.0,0.0,0.0,0.0,0.0,0.0,0.0,0.0,0.0,0.0,0.0,0.0,0.0,0.0,0.0,0.0,0.0,0.0,0.0,0.0,0.0,0.0,0.0,0.0,0.0,0.0,0.0,0.0,0.0,-0.9996,-1.0045,-0.9595,-0.9098,0.0,0.0,0.0,0.0,0.0,0.0,0.0,0.0,0.0,0.0,0.0,0.0,0.0,0.0,0.0,0.0,0.0,0.0,0.0,0.0,0.0,0.0,0.0,0.0,0.0,0.0,0.0,0.0,0.0,0.0,0.0,0.0,0.0,0.0,0.0,0.0,0.0,0.0,0.0,0.0,0.0,0.0,0.0,0.0,0.0,0.0,0.0,0.0,0.0,0.0,0.0,0.0,0.0,0.0,0.0,0.0,0.0,0.0,0.0,0.0,0.0,0.0,0.0,0.0,0.0,0.0,0.0,0.0,0.0,0.0,0.0,0.0,0.0,0.0,0.0,0.0,0.0,0.0,0.0,0.0,0.0,0.0,0.0,0.0,0.0,0.0,0.0,0.0,0.0,0.0,0.0,0.0,0.0,0.0,0.0,0.0,0.0,0.0,0.0,0.0,0.0,0.0,0.0,0.0,0.0,0.0,0.0,0.0,0.0,0.0,-1.0464,-1.0415,-1.0436,-0.9847,-0.9255,-0.8639,0.0,0.0,0.0,0.0,0.0,0.0,0.0,0.0,0.0,0.0,0.0,0.0,0.0,0.0,0.0,0.0,0.0,0.0,0.0,0.0,0.0,0.0,0.0,0.0,0.0,0.0,0.0,0.0,0.0,0.0,0.0,0.0,0.0,0.0,0.0,0.0,0.0,0.0,0.0,0.0,0.0,0.0,0.0,0.0,0.0,0.0,0.0,0.0,0.0,0.0,0.0,0.0,0.0,0.0,0.0,0.0,0.0,0.0,0.0,0.0,0.0,0.0,0.0,0.0,0.0,0.0,0.0,0.0,0.0,0.0,0.0,0.0,0.0,0.0,0.0,0.0,0.0,0.0,0.0,0.0,0.0,0.0,0.0,0.0,0.0,0.0,0.0,0.0,0.0,0.0,0.0,0.0,0.0,0.0,0.0,0.0,0.0,0.0,0.0,0.0,0.0,0.0,0.0,0.0,0.0,0.0,0.0,0.0,-1.0597,-1.0925,-1.0744,-1.0177,-0.9848,-0.9425,0.0,0.0,0.0,0.0,0.0,0.0,0.0,0.0,0.0,0.0,0.0,0.0,0.0,0.0,0.0,0.0,0.0,0.0,0.0,0.0,0.0,0.0,0.0,0.0,0.0,0.0,0.0,0.0,0.0,0.0,0.0,0.0,0.0,0.0,0.0,0.0,0.0,0.0,0.0,0.0,0.0,0.0,0.0,0.0,0.0,0.0,0.0,0.0,0.0,0.0,0.0,0.0,0.0,0.0,0.0,0.0,0.0,0.0,0.0,0.0,0.0,0.0,0.0,0.0,0.0,0.0,0.0,0.0,0.0,0.0,0.0,0.0,0.0,0.0,0.0,0.0,0.0,0.0,0.0,0.0,0.0,0.0,0.0,0.0,0.0,0.0,0.0,0.0,0.0,0.0,0.0,0.0,0.0,0.0,0.0,0.0,0.0,0.0,0.0,0.0,0.0,0.0,0.0,0.0,0.0,0.0,0.0,0.0,0.0,-1.1254,-1.1564,-1.1532,-1.1093,-1.053,-1.005,0.0,0.0,0.0,0.0,0.0,0.0,0.0,0.0,0.0,0.0,0.0,0.0,0.0,0.0,0.0,0.0,0.0,0.0,0.0,0.0,0.0,0.0,0.0,0.0,0.0,0.0,0.0,0.0,0.0,0.0,0.0,0.0,0.0,0.0,0.0,0.0,0.0,0.0,0.0,0.0,0.0,0.0,0.0,0.0,0.0,0.0,0.0,0.0,0.0,0.0,0.0,0.0,0.0,0.0,0.0,0.0,0.0,0.0,0.0,0.0,0.0,0.0,0.0,0.0,0.0,0.0,0.0,0.0,0.0,0.0,0.0,0.0,0.0,0.0,0.0,0.0,0.0,0.0,0.0,0.0,0.0,0.0,0.0,0.0,0.0,0.0,0.0,0.0,0.0,0.0,0.0,0.0,0.0,0.0,0.0,0.0,0.0,0.0,0.0,0.0,0.0,0.0,0.0,0.0,0.0,0.0,0.0,0.0,0.0,-1.1732,0.0,-1.1959,-1.1613,-1.1053,-1.0546,0.0,0.0,0.0,0.0,0.0,0.0,0.0,0.0,0.0,0.0,0.0,0.0,0.0,0.0,0.0,0.0,0.0,0.0,0.0,0.0,0.0,0.0,0.0,0.0,0.0,0.0,0.0,0.0,0.0,0.0,0.0,0.0,0.0,0.0,0.0,0.0,0.0,0.0,0.0,0.0,0.0,0.0,0.0,0.0,0.0,0.0,0.0,0.0,0.0,0.0,0.0,0.0,0.0,0.0,0.0,0.0,0.0,0.0,0.0,0.0,0.0,0.0,0.0,0.0,0.0,0.0,0.0,0.0,0.0,0.0,0.0,0.0,0.0,0.0,0.0,0.0,0.0,0.0,0.0,0.0,0.0,0.0,0.0,0.0,0.0,0.0,0.0,0.0,0.0,0.0,0.0,0.0,0.0,0.0,0.0,0.0,0.0,0.0,0.0,0.0,0.0,0.0,0.0,0.0,0.0,0.0,0.0,0.0,-1.1541,-1.2104,-1.212,-1.1966,-1.1621,-1.1299,-1.0849,0.0,0.0,0.0,0.0,0.0,0.0,0.0,0.0,0.0,0.0,0.0,0.0,0.0,0.0,0.0,0.0,0.0,0.0,0.0,0.0,0.0,0.0,0.0,0.0,0.0,0.0,0.0,0.0,0.0,0.0,0.0,0.0,0.0,0.0,0.0,0.0,0.0,0.0,0.0,0.0,0.0,0.0,0.0,0.0,0.0,0.0,0.0,0.0,0.0,0.0,0.0,0.0,0.0,0.0,0.0,0.0,0.0,0.0,0.0,0.0,0.0,0.0,0.0,0.0,0.0,0.0,0.0,0.0,0.0,0.0,0.0,0.0,0.0,0.0,0.0,0.0,0.0,0.0,0.0,0.0,0.0,0.0,0.0,0.0,0.0,0.0,0.0,0.0,0.0,0.0,0.0,0.0,0.0,0.0,0.0,0.0,0.0,0.0,0.0,0.0,0.0,0.0,0.0,0.0,0.0,0.0,0.0,0.0,0.0,-1.2428,-1.2621,-1.2687,-1.2575,-1.2051,-1.1579,0.0,0.0,0.0,0.0,0.0,0.0,0.0,0.0,0.0,0.0,0.0,0.0,0.0,0.0,0.0,0.0,0.0,0.0,0.0,0.0,0.0,0.0,0.0,0.0,0.0,0.0,0.0,0.0,0.0,0.0,0.0,0.0,0.0,0.0,0.0,0.0,0.0,0.0,0.0,0.0,0.0,0.0,0.0,0.0,0.0,0.0,0.0,0.0,0.0,0.0,0.0,0.0,0.0,0.0,0.0,0.0,0.0,0.0,0.0,0.0,0.0,0.0,0.0,0.0,0.0,0.0,0.0,0.0,0.0,0.0,0.0,0.0,0.0,0.0,0.0,0.0,0.0,0.0,0.0,0.0,0.0,0.0,0.0,0.0,0.0,0.0,0.0,0.0,0.0,0.0,0.0,0.0,0.0,0.0,0.0,0.0,0.0,0.0,0.0,0.0,0.0,0.0,0.0,0.0,0.0,0.0,0.0,0.0,0.0,-1.2875,-1.3244,-1.3367,-1.3103,-1.2819,-1.2346,-1.1759,0.0,0.0,0.0,0.0,0.0,0.0,0.0,0.0,0.0,0.0,0.0,0.0,0.0,0.0,0.0,0.0,0.0,0.0,0.0,0.0,0.0,0.0,0.0,0.0,0.0,0.0,0.0,0.0,0.0,0.0,0.0,0.0,0.0,0.0,0.0,0.0,0.0,0.0,0.0,0.0,0.0,0.0,0.0,0.0,0.0,0.0,0.0,0.0,0.0,0.0,0.0,0.0,0.0,0.0,0.0,0.0,0.0,0.0,0.0,0.0,0.0,0.0,0.0,0.0,0.0,0.0,0.0,0.0,0.0,0.0,0.0,0.0,0.0,0.0,0.0,0.0,0.0,0.0,0.0,0.0,0.0,0.0,0.0,0.0,0.0,0.0,0.0,0.0,0.0,0.0,0.0,0.0,0.0,0.0,0.0,0.0,0.0,0.0,0.0,0.0,0.0,0.0,0.0,0.0,0.0,0.0,0.0,0.0,-1.3302,-1.3913,-1.3993,-1.3388,-1.3476,-1.3126,0.0,0.0,0.0,0.0,0.0,0.0,0.0,0.0,0.0,0.0,0.0,0.0,0.0,0.0,0.0,0.0,0.0,0.0,0.0,0.0,0.0,0.0,0.0,0.0,0.0,0.0,0.0,0.0,0.0,0.0,0.0,0.0,0.0,0.0,0.0,0.0,0.0,0.0,0.0,0.0,0.0,0.0,0.0,0.0,0.0,0.0,0.0,0.0,0.0,0.0,0.0,0.0,0.0,0.0,0.0,0.0,0.0,0.0,0.0,0.0,0.0,0.0,0.0,0.0,0.0,0.0,0.0,0.0,0.0,0.0,0.0,0.0,0.0,0.0,0.0,0.0,0.0,0.0,0.0,0.0,0.0,0.0,0.0,0.0,0.0,0.0,0.0,0.0,0.0,0.0,0.0,0.0,0.0,0.0,0.0,0.0,0.0,0.0,0.0,0.0,0.0,0.0,0.0,0.0,0.0,0.0,0.0,0.0,0.0,-1.3493,-1.4531,-1.4834,-1.4152,-1.3629,-1.3243,0.0,0.0,0.0,0.0,0.0,0.0,0.0,0.0,0.0,0.0,0.0,0.0,0.0,0.0,0.0,0.0,0.0,0.0,0.0,0.0,0.0,0.0,0.0,0.0,0.0,0.0,0.0,0.0,0.0,0.0,0.0,0.0,0.0,0.0,0.0,0.0,0.0,0.0,0.0,0.0,0.0,0.0,0.0,0.0,0.0,0.0,0.0,0.0,0.0,0.0,0.0,0.0,0.0,0.0,0.0,0.0,0.0,0.0,0.0,0.0,0.0,0.0,0.0,0.0,0.0,0.0,0.0,0.0,0.0,0.0,0.0,0.0,0.0,0.0,0.0,0.0,0.0,0.0,0.0,0.0,0.0,0.0,0.0,0.0,0.0,0.0,0.0,0.0,0.0,0.0,0.0,0.0,0.0,0.0,0.0,0.0,0.0,0.0,0.0,0.0,0.0,0.0,0.0,0.0,0.0,0.0,0.0,0.0,-1.4044,-1.3943,-1.4684,-1.4952,-1.4622,-1.4144,-1.3638,0.0,0.0,0.0,0.0,0.0,0.0,0.0,0.0,0.0,0.0,0.0,0.0,0.0,0.0,0.0,0.0,0.0,0.0,0.0,0.0,0.0,0.0,0.0,0.0,0.0,0.0,0.0,0.0,0.0,0.0,0.0,0.0,0.0,0.0,0.0,0.0,0.0,0.0,0.0,0.0,0.0,0.0,0.0,0.0,0.0,0.0,0.0,0.0,0.0,0.0,0.0,0.0,0.0,0.0,0.0,0.0,0.0,0.0,0.0,0.0,0.0,0.0,0.0,0.0,0.0,0.0,0.0,0.0,0.0,0.0,0.0,0.0,0.0,0.0,0.0,0.0,0.0,0.0,0.0,0.0,0.0,0.0,0.0,0.0,0.0,0.0,0.0,0.0,0.0,0.0,0.0,0.0,0.0,0.0,0.0,0.0,0.0,0.0,0.0,0.0,0.0,0.0,0.0,0.0,0.0,0.0,0.0,0.0,-1.4342,-1.4648,-1.4702,-1.4756,-1.4844,-1.4684,-1.4144,0.0,0.0,0.0,0.0,0.0,0.0,0.0,0.0,0.0,0.0,0.0,0.0,0.0,0.0,0.0,0.0,0.0,0.0,0.0,0.0,0.0,0.0,0.0,0.0,0.0,0.0,0.0,0.0,0.0,0.0,0.0,0.0,0.0,0.0,0.0,0.0,0.0,0.0,0.0,0.0,0.0,0.0,0.0,0.0,0.0,0.0,0.0,0.0,0.0,0.0,0.0,0.0,0.0,0.0,0.0,0.0,0.0,0.0,0.0,0.0,0.0,0.0,0.0,0.0,0.0,0.0,0.0,0.0,0.0,0.0,0.0,0.0,0.0,0.0,0.0,0.0,0.0,0.0,0.0,0.0,0.0,0.0,0.0,0.0,0.0,0.0,0.0,0.0,0.0,0.0,0.0,0.0,0.0,0.0,0.0,0.0,0.0,0.0,0.0,0.0,0.0,0.0,0.0,0.0,0.0,0.0,0.0,0.0,-1.4992,-1.5056,-1.5249,-1.5088,-1.4649,-1.4294,-1.4057,0.0,0.0,0.0,0.0,0.0,0.0,0.0,0.0,0.0,0.0,0.0,0.0,0.0,0.0,0.0,0.0,0.0,0.0,0.0,0.0,0.0,0.0,0.0,0.0,0.0,0.0,0.0,0.0,0.0,0.0,0.0,0.0,0.0,0.0,0.0,0.0,0.0,0.0,0.0,0.0,0.0,0.0,0.0,0.0,0.0,0.0,0.0,0.0,-1.2198,0.0,0.0,0.0,0.0,0.0,0.0,0.0,0.0,0.0,0.0,0.0,0.0,0.0,0.0,0.0,0.0,0.0,0.0,0.0,0.0,0.0,0.0,0.0,0.0,0.0,0.0,0.0,0.0,0.0,0.0,0.0,0.0,0.0,0.0,0.0,0.0,0.0,0.0,0.0,0.0,0.0,0.0,0.0,0.0,0.0,0.0,0.0,0.0,0.0,0.0,0.0,0.0,0.0,0.0,0.0,0.0,0.0,0.0,0.0,-1.5097,-1.516,-1.5287,-1.5087,-1.4583,-1.4538,-1.4294,0.0,0.0,0.0,0.0,0.0,0.0,0.0,0.0,0.0,0.0,0.0,0.0,0.0,0.0,0.0,0.0,0.0,0.0,0.0,0.0,0.0,0.0,0.0,0.0,0.0,0.0,0.0,0.0,0.0,0.0,0.0,0.0,0.0,0.0,0.0,0.0,0.0,0.0,0.0,0.0,0.0,0.0,0.0,0.0,0.0,0.0,0.0,0.0,0.0,0.0,0.0,0.0,0.0,0.0,0.0,0.0,0.0,0.0,0.0,0.0,0.0,0.0,0.0,0.0,0.0,0.0,0.0,0.0,0.0,0.0,0.0,0.0,0.0,0.0,0.0,0.0,0.0,0.0,0.0,0.0,0.0,0.0,0.0,0.0,0.0,0.0,0.0,0.0,0.0,0.0,0.0,0.0,0.0,0.0,0.0,0.0,0.0,0.0,0.0,0.0,0.0,0.0,0.0,0.0,0.0,0.0,0.0,-1.472,-1.5005,-1.5194,-1.5129,-1.4964,-1.4708,-1.4958,-1.463,-1.3439,0.0,0.0,0.0,0.0,0.0,0.0,0.0,0.0,0.0,0.0,0.0,0.0,0.0,0.0,0.0,0.0,0.0,0.0,0.0,0.0,0.0,0.0,0.0,0.0,0.0,0.0,0.0,0.0,0.0,0.0,0.0,0.0,0.0,0.0,0.0,0.0,0.0,0.0,-1.0735,-1.16,0.0,0.0,0.0,0.0,0.0,0.0,0.0,0.0,-1.3795,0.0,0.0,0.0,0.0,0.0,0.0,0.0,0.0,0.0,0.0,0.0,0.0,0.0,0.0,0.0,0.0,0.0,0.0,0.0,0.0,0.0,0.0,0.0,0.0,0.0,0.0,0.0,0.0,0.0,0.0,0.0,0.0,0.0,0.0,0.0,0.0,0.0,0.0,0.0,0.0,0.0,0.0,0.0,0.0,0.0,0.0,0.0,0.0,0.0,0.0,0.0,0.0,0.0,0.0,0.0,0.0,-1.4577,-1.4782,-1.5132,-1.557,-1.5267,-1.523,-1.5478,-1.5378,-1.4905,-1.4033,0.0,0.0,0.0,0.0,0.0,0.0,0.0,0.0,0.0,0.0,0.0,0.0,0.0,0.0,0.0,0.0,0.0,0.0,0.0,0.0,0.0,0.0,0.0,0.0,0.0,0.0,0.0,0.0,0.0,0.0,0.0,0.0,0.0,0.0,0.0,0.0,0.0,0.0,0.0,-1.2514,-1.327,0.0,0.0,0.0,0.0,0.0,0.0,0.0,0.0,-1.4228,0.0,0.0,0.0,0.0,0.0,0.0,0.0,0.0,0.0,0.0,0.0,0.0,0.0,0.0,0.0,0.0,0.0,0.0,0.0,0.0,0.0,0.0,0.0,0.0,0.0,0.0,0.0,0.0,0.0,0.0,0.0,0.0,0.0,0.0,0.0,0.0,0.0,0.0,0.0,0.0,0.0,0.0,0.0,0.0,0.0,0.0,0.0,0.0,0.0,0.0,0.0,0.0,0.0,0.0,0.0,-1.4416,-1.4807,-1.5122,-1.5377,-1.5404,-1.5433,-1.5569,-1.5638,-1.5133,0.0,0.0,0.0,0.0,0.0,0.0,0.0,0.0,0.0,0.0,0.0,0.0,0.0,0.0,0.0,0.0,0.0,0.0,0.0,0.0,0.0,0.0,0.0,0.0,0.0,0.0,0.0,0.0,0.0,0.0,0.0,0.0,0.0,0.0,0.0,0.0,0.0,0.0,0.0,0.0,-1.3683,-1.4353,-1.4584,0.0,0.0,0.0,0.0,0.0,0.0,-1.5213,-1.5023,0.0,0.0,0.0,0.0,0.0,0.0,0.0,0.0,0.0,0.0,0.0,0.0,0.0,0.0,0.0,0.0,0.0,0.0,0.0,0.0,0.0,0.0,0.0,0.0,0.0,0.0,0.0,0.0,0.0,0.0,0.0,0.0,0.0,0.0,0.0,0.0,0.0,0.0,0.0,0.0,0.0,0.0,0.0,0.0,0.0,0.0,0.0,0.0,0.0,0.0,0.0,0.0,0.0,0.0,0.0,-1.4285,-1.4766,-1.5019,-1.5111,-1.5404,-1.5588,-1.5557,-1.5659,-1.5208,0.0,0.0,0.0,0.0,0.0,0.0,0.0,0.0,0.0,0.0,0.0,0.0,0.0,0.0,0.0,0.0,0.0,0.0,0.0,0.0,0.0,0.0,0.0,0.0,0.0,0.0,0.0,0.0,0.0,0.0,0.0,0.0,0.0,0.0,0.0,0.0,0.0,0.0,0.0,0.0,0.0,-1.5209,-1.5263,-1.5732,0.0,0.0,0.0,0.0,-1.5673,-1.571,0.0,0.0,0.0,0.0,0.0,0.0,0.0,0.0,0.0,0.0,0.0,0.0,0.0,0.0,0.0,0.0,0.0,0.0,0.0,0.0,0.0,0.0,0.0,0.0,0.0,0.0,0.0,0.0,0.0,0.0,0.0,0.0,0.0,0.0,0.0,0.0,0.0,0.0,0.0,0.0,0.0,0.0,0.0,0.0,0.0,0.0,0.0,0.0,0.0,0.0,0.0,0.0,0.0,0.0,0.0,0.0,-1.4276,-1.4492,-1.4753,-1.5084,-1.5148,-1.5442,-1.5927,-1.5327,-1.4732,0.0,0.0,0.0,0.0,0.0,0.0,0.0,0.0,0.0,0.0,0.0,0.0,0.0,0.0,0.0,0.0,0.0,0.0,0.0,0.0,0.0,0.0,0.0,0.0,0.0,0.0,0.0,0.0,0.0,0.0,0.0,0.0,0.0,0.0,0.0,0.0,0.0,0.0,0.0,0.0,0.0,-1.5293,-1.5624,-1.578,-1.5916,0.0,0.0,-1.6197,-1.6837,-1.6147,0.0,0.0,0.0,0.0,0.0,0.0,0.0,0.0,0.0,0.0,0.0,0.0,0.0,0.0,0.0,0.0,0.0,0.0,0.0,0.0,0.0,0.0,0.0,0.0,0.0,0.0,0.0,0.0,0.0,0.0,0.0,0.0,0.0,0.0,0.0,0.0,0.0,0.0,0.0,0.0,0.0,0.0,0.0,0.0,0.0,0.0,0.0,0.0,0.0,0.0,0.0,0.0,0.0,0.0,0.0,-1.4019,-1.4276,-1.4484,-1.4673,-1.4844,-1.507,-1.5221,-1.5345,-1.4998,-1.4473,0.0,0.0,0.0,0.0,0.0,0.0,0.0,0.0,0.0,0.0,0.0,0.0,0.0,0.0,0.0,0.0,0.0,0.0,0.0,0.0,0.0,0.0,0.0,0.0,0.0,0.0,0.0,0.0,0.0,0.0,0.0,0.0,0.0,0.0,0.0,0.0,0.0,0.0,0.0,0.0,0.0,0.0,-1.5838,-1.6232,0.0,0.0,0.0,-1.6504,-1.6467,0.0,0.0,0.0,0.0,0.0,0.0,0.0,0.0,0.0,0.0,0.0,0.0,0.0,0.0,0.0,0.0,0.0,0.0,0.0,0.0,0.0,0.0,0.0,0.0,0.0,0.0,0.0,0.0,0.0,0.0,0.0,0.0,0.0,0.0,0.0,0.0,0.0,0.0,0.0,0.0,0.0,0.0,0.0,0.0,0.0,0.0,0.0,0.0,0.0,0.0,0.0,0.0,0.0,0.0,0.0,0.0,0.0,-1.4276,-1.4425,-1.448,-1.4577,-1.4879,-1.5009,-1.4894,-1.4526,0.0,0.0,0.0,0.0,0.0,0.0,0.0,0.0,0.0,0.0,0.0,0.0,0.0,0.0,0.0,0.0,0.0,0.0,0.0,0.0,0.0,0.0,0.0,0.0,0.0,0.0,0.0,-0.9666,0.0,0.0,0.0,0.0,0.0,0.0,0.0,0.0,0.0,0.0,0.0,0.0,0.0,0.0,-1.6148,-1.5954,-1.642,-1.6629,0.0,0.0,-1.6622,-1.6163,-1.6305,-1.6188,0.0,0.0,0.0,0.0,0.0,0.0,0.0,0.0,0.0,0.0,0.0,0.0,0.0,0.0,0.0,0.0,0.0,0.0,0.0,0.0,0.0,0.0,0.0,0.0,0.0,0.0,0.0,0.0,0.0,0.0,0.0,0.0,0.0,0.0,0.0,0.0,0.0,0.0,0.0,0.0,0.0,0.0,0.0,0.0,0.0,0.0,0.0,0.0,0.0,0.0,0.0,0.0,0.0,0.0,-1.3959,-1.4267,-1.4105,-1.4223,-1.456,-1.4604,-1.4727,-1.4885,-1.3839,-1.3256,0.0,0.0,0.0,0.0,0.0,0.0,0.0,0.0,0.0,0.0,0.0,0.0,0.0,0.0,0.0,0.0,0.0,0.0,0.0,0.0,0.0,0.0,0.0,0.0,0.0,0.0,0.0,0.0,0.0,0.0,0.0,0.0,0.0,0.0,0.0,0.0,0.0,0.0,0.0,0.0,0.0,-1.5934,-1.6066,-1.6144,-1.6212,0.0,-1.6269,-1.6297,-1.6685,-1.6323,-1.5899,-1.5827,0.0,0.0,0.0,0.0,0.0,0.0,0.0,0.0,0.0,0.0,0.0,0.0,0.0,0.0,0.0,0.0,0.0,0.0,0.0,0.0,0.0,0.0,0.0,0.0,0.0,0.0,0.0,0.0,0.0,0.0,0.0,0.0,0.0,0.0,0.0,0.0,0.0,0.0,0.0,0.0,0.0,0.0,0.0,0.0,0.0,0.0,0.0,0.0,0.0,0.0,0.0,0.0,0.0,-1.3761,-1.3959,-1.3761,-1.377,-1.3909,-1.3917,-1.3925,-1.3902,-1.2967,-1.2514,0.0,0.0,0.0,0.0,0.0,0.0,0.0,0.0,0.0,0.0,0.0,0.0,0.0,0.0,0.0,0.0,0.0,0.0,0.0,0.0,0.0,0.0,0.0,0.0,0.0,0.0,0.0,0.0,-1.2003,-1.2715,-1.3229,0.0,0.0,0.0,0.0,0.0,0.0,0.0,0.0,0.0,0.0,-1.5946,-1.6374,-1.6229,0.0,0.0,-1.6427,-1.656,-1.6293,-1.6305,-1.6238,-1.5984,-1.5635,0.0,0.0,0.0,0.0,0.0,0.0,0.0,0.0,0.0,0.0,0.0,0.0,0.0,0.0,0.0,0.0,0.0,0.0,0.0,0.0,0.0,0.0,0.0,0.0,0.0,0.0,0.0,0.0,0.0,0.0,0.0,0.0,0.0,0.0,0.0,0.0,0.0,0.0,0.0,0.0,0.0,0.0,0.0,0.0,0.0,0.0,0.0,0.0,0.0,0.0,0.0,0.0,-1.3519,-1.37,-1.3571,-1.3511,-1.3511,-1.3381,-1.3285,-1.3164,-1.2233,-1.1807,0.0,0.0,0.0,0.0,0.0,0.0,0.0,0.0,0.0,0.0,0.0,0.0,0.0,0.0,0.0,0.0,0.0,0.0,0.0,0.0,0.0,0.0,0.0,0.0,0.0,0.0,0.0,0.0,-1.2489,-1.3285,-1.389,0.0,0.0,0.0,0.0,0.0,0.0,0.0,0.0,0.0,0.0,-1.6247,-1.6577,-1.6394,-1.6161,-1.5934,-1.6404,-1.6626,-1.6097,-1.6347,-1.6515,-1.6218,0.0,0.0,0.0,0.0,0.0,0.0,0.0,0.0,0.0,0.0,0.0,0.0,0.0,0.0,0.0,0.0,0.0,0.0,0.0,0.0,0.0,0.0,0.0,0.0,0.0,0.0,0.0,-1.0561,0.0,0.0,-0.9983,0.0,0.0,0.0,0.0,0.0,0.0,0.0,0.0,0.0,0.0,0.0,0.0,0.0,0.0,0.0,0.0,0.0,0.0,0.0,0.0,0.0,0.0,-1.3354,-1.3519,-1.3511,-1.3511,-1.345,-1.3155,-1.2981,-1.2972,-1.1651,-1.1103,-1.1383,0.0,0.0,0.0,0.0,0.0,0.0,0.0,0.0,0.0,0.0,0.0,0.0,0.0,0.0,0.0,0.0,0.0,0.0,0.0,0.0,0.0,0.0,0.0,0.0,0.0,0.0,-1.2081,-1.2895,-1.3692,0.0,0.0,0.0,0.0,0.0,0.0,0.0,0.0,0.0,-1.6713,-1.7014,-1.704,-1.6688,-1.6608,-1.6456,-1.6004,-1.6128,-1.6326,-1.6307,-1.655,-1.6655,0.0,0.0,0.0,0.0,0.0,0.0,0.0,0.0,0.0,0.0,0.0,0.0,0.0,0.0,0.0,0.0,0.0,0.0,0.0,0.0,0.0,0.0,0.0,0.0,0.0,0.0,0.0,-1.1043,-1.1238,0.0,0.0,0.0,0.0,0.0,0.0,0.0,0.0,0.0,0.0,0.0,-1.1999,-1.2314,0.0,0.0,0.0,0.0,0.0,0.0,0.0,0.0,0.0,0.0,0.0,0.0,-1.3111,-1.3042,-1.3103,-1.3033,-1.2842,-1.2736,-1.2613,-1.2544,-1.1401,-1.0595,-1.0296,0.0,0.0,0.0,0.0,0.0,0.0,0.0,0.0,0.0,0.0,0.0,0.0,0.0,0.0,0.0,0.0,0.0,0.0,0.0,0.0,0.0,0.0,0.0,0.0,0.0,-1.212,0.0,0.0,0.0,0.0,0.0,0.0,0.0,0.0,0.0,0.0,-1.5947,-1.6534,-1.7209,-1.7096,-1.6967,-1.7213,-1.7046,-1.6765,0.0,0.0,0.0,0.0,0.0,0.0,0.0,0.0,0.0,0.0,0.0,0.0,0.0,0.0,-1.3643,-1.3806,-1.3888,-1.3888,-1.3582,0.0,0.0,0.0,0.0,0.0,0.0,0.0,0.0,0.0,0.0,0.0,0.0,0.0,0.0,-1.1122,0.0,-1.0837,0.0,0.0,0.0,0.0,0.0,0.0,0.0,0.0,-1.1476,-1.1914,-1.2458,-1.2567,-1.2755,0.0,-1.3087,-1.3147,0.0,0.0,0.0,0.0,0.0,0.0,0.0,0.0,-1.2797,-1.2797,-1.2739,-1.2674,-1.2482,-1.2428,-1.2305,-1.2228,-1.1115,-1.0257,-0.9628,-0.957,-0.9553,0.0,0.0,0.0,0.0,0.0,0.0,0.0,0.0,0.0,0.0,0.0,0.0,0.0,0.0,0.0,0.0,0.0,0.0,0.0,0.0,0.0,0.0,0.0,-1.2305,0.0,0.0,0.0,0.0,0.0,0.0,0.0,0.0,0.0,-1.6075,-1.645,-1.697,-1.7652,-1.7409,-1.7227,-1.7399,0.0,0.0,0.0,0.0,0.0,0.0,0.0,-1.6766,-1.6369,-1.5952,-1.5574,-1.5203,-1.466,-1.4125,-1.3618,0.0,0.0,-1.3565,-1.3582,-1.3611,-1.3485,-1.3493,-1.346,-1.3582,-1.3418,-1.3194,0.0,0.0,0.0,0.0,0.0,0.0,0.0,0.0,-1.0948,-1.0988,0.0,-1.0625,0.0,0.0,0.0,0.0,-1.0425,-1.0542,0.0,0.0,-1.1573,-1.1929,-1.2312,-1.2745,-1.2953,-1.2975,-1.3475,-1.363,-1.3448,-1.314,0.0,0.0,0.0,0.0,0.0,0.0,-1.2569,-1.2739,-1.2437,-1.2313,-1.2421,-1.2243,-1.2058,-1.2027,-1.0879,-0.9996,-0.9531,-0.948,-0.9301,-0.9132,-0.9529,0.0,0.0,0.0,0.0,0.0,0.0,0.0,0.0,0.0,0.0,0.0,0.0,0.0,0.0,0.0,0.0,0.0,0.0,0.0,0.0,-1.2058,0.0,0.0,0.0,0.0,0.0,0.0,0.0,0.0,0.0,-1.6218,-1.6892,-1.7034,-1.7321,-1.7872,0.0,0.0,0.0,0.0,-1.7125,-1.6343,-1.6393,-1.6503,-1.6503,-1.6556,-1.6455,-1.6228,0.0,0.0,-1.3747,-1.3575,-1.3584,-1.3321,-1.3794,-1.3999,-1.311,-1.2991,-1.3047,-1.3216,-1.3251,-1.3355,-1.3691,-1.3613,-1.3504,-1.167,0.0,0.0,0.0,0.0,-1.0465,-1.1057,-1.2081,-1.144,-1.1453,-1.1948,-1.13,0.0,0.0,0.0,0.0,0.0,0.0,-1.1051,-1.1519,-1.1603,-1.185,-1.2274,-1.2428,-1.2469,-1.2549,-1.2631,-1.2673,-1.2666,-1.2862,-1.2992,-1.3135,0.0,0.0,0.0,0.0,-1.2461,-1.244,-1.2326,-1.2104,-1.1872,-1.1747,-1.1581,-1.1231,-1.0735,-1.0292,-0.9933,-0.9693,-0.9585,-0.9605,-0.9494,0.0,0.0,0.0,0.0,0.0,0.0,0.0,0.0,0.0,0.0,0.0,0.0,0.0,0.0,0.0,0.0,0.0,0.0,0.0,-1.2428,-1.2243,-1.2406,0.0,0.0,0.0,0.0,0.0,0.0,0.0,0.0,0.0,-1.6345,-1.6725,-1.7045,0.0,0.0,-1.7404,-1.7368,-1.7349,-1.7156,-1.6985,-1.6711,0.0,-1.6156,-1.5965,-1.5675,-1.5163,-1.4817,-1.4394,-1.3789,-1.3985,-1.4028,-1.3581,-1.3682,-1.3649,-1.3229,-1.3326,-1.3425,-1.3147,-1.303,-1.3131,-1.3397,-1.3243,-1.3103,-1.1509,-1.1228,-1.0844,-1.0777,-1.0783,-1.0641,-1.1156,-1.2096,-1.1488,-1.1501,-1.1965,-1.1344,-1.1119,-1.1133,-1.1062,0.0,0.0,0.0,-1.0987,-1.1514,-1.1514,-1.1742,-1.2131,-1.2245,-1.2305,-1.2298,-1.2378,-1.2378,-1.2305,-1.2526,-1.2673,-1.2739,0.0,-1.2692,-1.2756,-1.2324,-1.2013,-1.1829,-1.1646,-1.1432,-1.1317,-1.1435,-1.1341,-1.1031,-1.0728,-1.0423,-1.012,-0.9816,-0.9587,-0.9624,-0.9482,-0.9338,0.0,0.0,0.0,0.0,0.0,0.0,0.0,0.0,0.0,0.0,0.0,-0.9466,-0.9983,0.0,0.0,0.0,-1.1802,-1.236,-1.2875,-1.2641,0.0,0.0,0.0,0.0,0.0,0.0,0.0,-1.4972,-1.5152,-1.5306,-1.5675,-1.6061,-1.6403,-1.6751,-1.683,-1.6899,-1.6978,0.0,-1.6821,-1.6751,-1.6324,-1.5824,-1.5621,-1.5188,-1.48,-1.429,-1.4084,-1.3967,-1.3608,-1.3838,-1.3987,-1.3694,-1.3647,-1.3554,-1.3267,-1.3342,-1.3402,-1.3088,-1.2989,-1.2969,-1.3181,-1.3072,-1.2914,-1.1301,-1.1304,-1.0777,-1.0789,-1.1111,-1.1087,-1.1304,-1.1582,-1.1184,-1.1215,-1.1582,-1.0973,-1.1076,-1.1601,-1.1452,0.0,-1.1006,-1.0767,-1.0898,-1.119,-1.1261,-1.1404,-1.1773,-1.2038,-1.2158,-1.2158,-1.2304,-1.2304,-1.2151,-1.2151,-1.2098,-1.1896,-1.2638,-1.2799,-1.2265,-1.1884,-1.1518,-1.1224,-1.0817,-1.0645,-1.0807,-1.1059,-1.124,-1.1303,-1.0725,-1.0404,-1.0228,-0.9855,-0.9604,-0.9475,-0.9466,-0.9478,-0.9338,0.0,0.0,0.0,0.0,0.0,0.0,0.0,0.0,0.0,0.0,0.0,0.0,0.0,0.0,0.0,-1.2009,0.0,-1.3124,-1.3116,0.0,0.0,0.0,-1.3826,-1.434,-1.4372,-1.4641,-1.5092,0.0,0.0,-1.5133,-1.5133,-1.5417,-1.6132,-1.6202,-1.6202,-1.6272,-1.6202,-1.6132,-1.5982,-1.5338,-1.4832,-1.4768,-1.4338,-1.385,-1.3522,-1.3495,-1.3362,-1.3245,-1.34,-1.3587,-1.3506,-1.3526,-1.3446,-1.326,-1.2973,-1.2839,-1.3028,-1.2899,-1.2786,-1.3039,-1.295,-1.2665,-1.1116,-1.1027,-1.0743,-1.0777,-1.1093,-1.0894,-1.0961,-1.1099,-1.0887,-1.09,-1.1172,-1.0821,-1.0827,-1.0955,-1.0888,-1.0852,-1.0785,-1.0514,-1.0423,-1.0563,-1.0563,-1.0563,-1.0709,-1.0765,-1.0796,-1.0802,-1.0732,-1.0732,-1.0796,-1.0943,-1.0978,-1.0803,-1.1467,-1.1867,-1.2057,-1.1513,-1.1307,-1.1361,-1.081,-1.0659,-1.0814,-1.0737,-1.08,-1.1122,-1.0864,-1.0635,-1.0517,-1.0266,-1.0077,-0.9888,-0.9888,-0.9856,-0.9792,-0.9588,0.0,0.0,0.0,0.0,0.0,0.0,0.0,0.0,0.0,-1.0168,-1.0568,0.0,-1.1685,0.0,-1.2945,-1.3324,-1.3476,-1.351,0.0,0.0,-1.3982,-1.4125,-1.4474,-1.4593,-1.4617,-1.4697,-1.4705,-1.4705,-1.4713,-1.4784,-1.4856,-1.5213,-1.5497,-1.578,-1.5842,-1.5551,-1.5267,-1.5125,-1.4689,-1.4201,-1.3833,-1.3331,-1.2921,-1.2614,-1.281,-1.2929,-1.2943,-1.3106,-1.3313,-1.3313,-1.3313,-1.32,-1.2975,-1.2733,-1.2569,-1.246,-1.2322,-1.2267,-1.2549,-1.2233,-1.179,-1.1219,-1.1332,-1.1192,-1.1199,-1.131,-1.0851,-1.0685,-1.0692,-1.0814,-1.0796,-1.0685,-1.0479,-1.0408,-1.0408,-1.0337,-1.0266,-1.026,-1.0119,-1.013,-1.02,-1.0313,-1.0431,-1.0437,-1.0408,-1.039,-1.039,-1.0141,-1.0076,-1.0168,-1.0278,-1.0301,-1.0147,-1.0509,-1.087,-1.1144,-1.1015,-1.0867,-1.0713,-1.0325,-1.0124,-1.011,-1.0098,-1.0231,-1.0485,-1.0351,-1.0231,-1.0364,-1.0174,-1.0053,-0.9926,-0.9798,-0.9798,-0.9792,-0.96,-0.9584,0.0,0.0,0.0,0.0,0.0,0.0,0.0,0.0,0.0,0.0,0.0,-1.218,-1.3005,-1.3392,-1.3635,-1.3801,-1.3846,-1.3966,-1.4315,-1.4339,-1.4426,-1.4553,-1.4569,-1.4569,-1.4569,-1.4569,-1.4569,-1.4569,-1.4569,-1.4569,-1.4569,-1.4705,-1.4999,-1.5196,-1.4768,-1.4402,-1.4402,-1.3856,-1.3265,-1.2841,-1.259,-1.2499,-1.2567,-1.2752,-1.2953,-1.2959,-1.3014,-1.3048,-1.3041,-1.287,-1.27,-1.2609,-1.2382,-1.2119,-1.1923,-1.1726,-1.1723,-1.2029,-1.1746,-1.1366,-1.1439,-1.1649,-1.1656,-1.1649,-1.1611,-1.0962,-1.0553,-1.0393,-1.0836,-1.0734,-1.0311,-1.0277,-1.0207,-1.0184,-0.9974,-0.9898,-0.9898,-0.9799,-0.9921,-1.0072,-1.0213,-1.0384,-1.0611,-1.0466,-1.0416,-1.0416,-0.9991,-0.9851,-0.9894,-0.9845,-0.9841,-0.9863,-0.9863,-0.9952,-1.0126,-1.0484,-1.0382,-0.9813,-0.9662,-0.9513,-0.9268,-0.9379,-0.9554,-0.9716,-0.9582,-0.9652,-0.9983,-0.9868,-0.9798,-0.9804,-0.967,-0.9542,-0.9548,-0.9572,-0.9699,0.0,-0.9843,0.0,0.0,0.0,0.0,0.0,0.0,0.0,0.0,-1.215,-1.2628,-1.3351,-1.3636,-1.3823,-1.4085,-1.4148,-1.4299,-1.4522,-1.4569,-1.4569,-1.4569,-1.4569,-1.4569,-1.4569,-1.4569,-1.4569,-1.4569,-1.4569,-1.4425,-1.4201,-1.4057,-1.4129,-1.4274,-1.3932,-1.3598,-1.3621,-1.2971,-1.2402,-1.2124,-1.2123,-1.2238,-1.2512,-1.2692,-1.2979,-1.2815,-1.2687,-1.2642,-1.2538,-1.2254,-1.2056,-1.1999,-1.177,-1.1458,-1.1212,-1.0961,-1.0978,-1.1346,-1.1298,-1.101,-1.1325,-1.1369,-1.1376,-1.1369,-1.1344,-1.1159,-1.1007,-1.0861,-1.0988,-1.0838,-1.0665,-1.0797,-1.0773,-1.0587,-1.0581,-1.0432,-1.0277,-1.0079,-0.9921,-0.9776,-0.9828,-0.9845,-0.9915,-0.989,-0.9842,-0.9842,-0.9662,-0.9667,-0.9701,-0.9662,-0.9603,-0.9572,-0.9717,-0.9742,-0.9697,0.0,0.0,0.0,-0.9475,-0.9377,-0.9131,-0.9186,-0.9217,-0.9408,-0.946,0.0,-0.9798,-0.9926,-0.9989,-0.9989,-0.9919,0.0,0.0,0.0,0.0,0.0,0.0,0.0,0.0,0.0,0.0,0.0,-1.142,-1.1676,-1.21,-1.3219,-1.3901,-1.3777,-1.4135,-1.4347,-1.414,-1.4371,-1.449,-1.4553,-1.4569,-1.4569,-1.4569,-1.4569,-1.4569,-1.4569,-1.4569,-1.4569,-1.4433,-1.4425,-1.4353,-1.4129,-1.3775,-1.3564,-1.3477,-1.3121,-1.2756,-1.2728,-1.2317,-1.2006,-1.1942,-1.171,-1.1574,-1.169,-1.157,-1.1585,-1.1617,-1.1462,-1.1301,-1.132,-1.123,-1.1076,-1.0935,-1.086,-1.0719,-1.0213,-1.0096,-1.0137,-1.0593,-1.0414,-1.0049,-1.1794,-1.1794,-1.1794,-1.1788,0.0,-1.1638,-1.1513,-1.1345,-1.1134,-1.0797,-1.0364,-1.037,-1.0223,-1.0107,-1.003,-0.9882,-0.9811,-0.9817,-0.9817,-0.9834,-0.9874,-0.9997,-1.0069,-0.9924,-0.9779,-0.9774,-0.9525,-0.9459,-0.9483,-0.9453,-0.9392,-0.9431,-0.9504,-0.9563,-0.9601,-0.9788,-0.9818,-0.9532,-0.9608,-0.9362,-0.8737,-0.871,-0.8671,-0.8641,-0.8818,0.0,0.0,0.0,0.0,0.0,0.0,0.0,0.0,-0.9994,0.0,-1.0113,-1.0307,-1.0432,-1.0713,-1.0912,-1.1205,-1.1497,-1.1998,-1.2458,-1.282,-1.3822,-1.4355,-1.4253,-1.4466,-1.449,-1.4403,-1.4466,-1.4497,-1.4497,-1.4418,-1.4353,-1.4497,-1.4497,-1.4497,-1.4497,-1.4425,-1.4281,-1.4145,-1.4072,-1.4,-1.3702,-1.3564,-1.3361,-1.2927,-1.2676,-1.2442,-1.1927,-1.1727,-1.1464,-1.1257,-1.1064,-1.1005,-1.1109,-1.1086,-1.1093,-1.1024,-1.088,-1.0742,-1.0742,-1.0679,-1.0541,-1.0465,-1.0465,-1.0333,-0.9974,-0.9742,-0.9628,-0.9695,-0.9567,-0.9319,-1.2305,-1.2305,-1.2305,-1.2305,-1.2224,-1.2077,-1.1855,-1.1545,-1.1101,0.0,0.0,-0.9785,-0.9701,-0.9635,-0.9477,-0.9401,-0.9417,-0.9618,-0.9789,-0.9935,-1.0049,-1.0218,-1.0363,-1.0067,-0.9922,-0.9911,-0.9511,-0.9368,-0.9311,-0.9293,-0.9275,-0.928,-0.9275,-0.9422,-0.9579,-0.9606,-0.9681,-0.9794,-0.9783,-0.9349,-0.8442,-0.8318,-0.8265,-0.8048,-0.8132,-0.8371,-0.8711,-0.9085,-0.9397,-0.9548,-0.9599,-0.9645,-0.9777,-0.9725,-0.9797,-1.0067,-1.0304,-1.0589,-1.0795,-1.1186,-1.1409,-1.1484,-1.2298,-1.3046,-1.3492,-1.3992,-1.4353,-1.4497,-1.4497,-1.4497,-1.4497,-1.4425,-1.4353,-1.4353,-1.4209,-1.4201,-1.4274,-1.4291,-1.4237,-1.4188,-1.4101,-1.3909,-1.3621,-1.368,-1.3572,-1.3273,-1.3273,-1.3186,-1.2684,-1.2532,-1.2247,-1.1587,-1.1398,-1.1096,-1.0747,-1.0514,-1.0505,-1.0651,-1.0708,-1.0734,-1.0672,-1.0536,-1.0399,-1.035,-1.0256,-1.017,-1.0188,-1.0152,-1.0051,-0.9845,-0.9547,-0.9131,-0.8746,-0.8607,-0.8595,-1.2305,-1.2305,-1.2305,-1.2231,-1.2077,-1.2009,-1.1552,-1.0962,-1.0852,-1.0685,-1.0456,-1.0358,-1.0341,-1.0341,-1.0336,-1.0187,-1.0043,-1.0077,-1.0018,-0.9873,-0.9906,-0.9916,-0.9997,-0.9916,-0.9922,-0.9841,-0.9658,-0.9593,-0.9539,-0.9367,-0.9205,-0.9125,-0.92,-0.9422,-0.9578,-0.9609,-0.9604,-0.9648,-0.9502,-0.915,-0.8674,-0.8497,-0.8364,-0.827,-0.8083,-0.8182,-0.8517,-0.8744,-0.8944,-0.9074,-0.9108,-0.9125,-0.9137,-0.9553,-0.9799,-0.9856,-1.0373,-1.0852,-1.1031,-1.1105,-1.126,-1.1632,-1.2298,-1.29,-1.3419,-1.392,-1.4129,-1.4122,-1.4201,-1.4129,-1.4201,-1.4129,-1.4137,-1.4129,-1.4122,-1.4129,-1.4114,-1.3924,-1.3754,-1.3474,-1.356,-1.3357,-1.3026,-1.3078,-1.3135,-1.2945,-1.2983,-1.2865,-1.2642,-1.2418,-1.2138,-1.1797,-1.1451,-1.1162,-1.0918,-1.0456,-1.0141,-1.0155,-1.0076,-0.9984,-1.0049,-0.9854,-0.9723,-0.9675,-0.9652,-0.964,-0.9628,-0.9592,-0.9503,-0.9248,-0.8935,-0.8516,-0.7992,-0.7565,-0.7432,-1.2305,-1.2305,-1.215,-1.2175,-1.2168,-1.1872,-1.1335,-1.073,-1.073,-1.0498,-1.0223,-1.0143,-1.0218,-1.0143,-1.0143,-1.0143,-1.0073,-1.0067,-0.9997,-0.9922,-0.9922,-0.9922,-0.9922,-0.9771,-0.9771,-0.9846,-0.9544,-0.9473,-0.9544,-0.9397,-0.9251,-0.917,-0.9251,-0.9327,-0.9246,-0.9251,-0.9246,-0.9089,-0.9316,-0.9285,-0.8841,-0.8628,-0.8409,-0.818,-0.8103,-0.8052,-0.8252,-0.8569,-0.8838,-0.9091,-0.9226,-0.9299,-0.9439,-0.9593,-0.9648,-0.9718,-1.0064,-1.0335,-1.0473,-1.0683,-1.1037,-1.1465,-1.1703,-1.2046,-1.2576,-1.3317,-1.3848,-1.4065,-1.4137,-1.4137,-1.4137,-1.3992,-1.3848,-1.3775,-1.3554,-1.3371,-1.3334,-1.3145,-1.2944,-1.2799,-1.2738,-1.2539,-1.2262,-1.2312,-1.2325,-1.2269,-1.2458,-1.2625,-1.2565,-1.2483,-1.2128,-1.1486,-1.1164,-1.0814,-1.0371,-0.9984,-0.9753,-0.9734,-0.967,-0.9612,-0.9612,-0.9548,-0.9484,-0.9484,-0.935,-0.9215,-0.9221,-0.9092,-0.8899,-0.877,-0.8441,-0.8117,-0.7787,-0.7265,-0.6872,-1.2505,-1.2505,-1.2355,-1.2266,-1.2312,-1.1707,-1.114,-1.0673,-1.054,-1.0363,-1.0095,-1.0003,-0.9976,-0.9922,-0.9922,-0.9922,-0.9927,-0.9981,-1.0008,-1.0003,-1.0008,-1.0003,-0.9992,-0.9727,-0.9695,-0.9771,-0.9397,-0.9322,-0.9397,-0.9241,-0.917,-0.9165,-0.9165,-0.9094,-0.8946,-0.8946,-0.8865,-0.8703,-0.916,-0.9306,-0.8985,-0.8724,-0.8429,-0.8191,-0.7996,-0.7922,-0.7997,-0.8292,-0.8652,-0.8992,-0.9168,-0.9341,-0.9548,-0.946,-0.9483,-0.9621,-0.9748,-0.9852,-1.0055,-1.0396,-1.0766,-1.1101,-1.1146,-1.1316,-1.175,-1.2478,-1.3266,-1.3738,-1.3775,-1.3768,-1.3753,-1.3621,-1.3461,-1.3295,-1.2891,-1.2627,-1.2598,-1.2341,-1.2147,-1.208,-1.1945,-1.181,-1.1607,-1.1594,-1.1696,-1.1881,-1.2088,-1.2407,-1.2531,-1.2519,-1.2078,-1.1422,-1.1,-1.0647,-0.9854,-0.959,-0.9554,-0.9478,-0.9478,-0.9484,-0.9414,-0.935,-0.9356,-0.9227,-0.9028,-0.8894,-0.8829,-0.87,-0.8576,-0.8511,-0.8252,-0.7987,-0.7661,-0.7138,-0.6544,-1.3113,-1.312,-1.3021,-1.2739,-1.2165,-1.1546,-1.114,-1.0806,-1.0438,-1.0384,-1.0451,-1.0339,-1.0132,-0.9938,-0.9933,-0.9938,-0.996,-1.0153,-1.0245,-1.0239,-1.0261,-1.0256,-1.0202,-0.979,-0.962,-0.9625,-0.9246,-0.9022,-0.9103,-0.8861,-0.878,-0.878,-0.878,-0.878,-0.8708,-0.8708,-0.8703,-0.8703,-0.878,-0.8846,-0.8974,-0.8433,-0.8216,-0.8348,-0.787,-0.7652,-0.7987,-0.8007,-0.8218,-0.8549,-0.8647,-0.8657,-0.8864,-0.9042,-0.922,-0.9434,-0.9639,-0.9927,-1.0055,-1.0402,-1.0597,-1.0635,-1.0811,-1.1011,-1.1194,-1.1365,-1.1884,-1.2718,-1.3018,-1.2997,-1.3025,-1.2784,-1.2636,-1.2615,-1.2283,-1.2093,-1.2058,-1.1952,-1.1694,-1.1431,-1.1497,-1.1424,-1.1181,-1.1283,-1.1559,-1.1774,-1.1905,-1.2087,-1.2318,-1.2372,-1.2191,-1.1579,-1.1198,-1.0791,-1.0419,-0.9888,-0.9608,-0.9502,-0.9484,-0.9356,-0.9151,-0.9022,-0.8958,-0.884,-0.8582,-0.8511,-0.8576,-0.8511,-0.8447,-0.8252,-0.8057,-0.7792,-0.7204,-0.6679,-0.6284,-1.3046,-1.3213,-1.2969,-1.2485,-1.1822,-1.1323,-1.1044,-1.0901,-1.0567,-1.05,-1.0548,-1.0612,-1.0539,-1.0331,-1.0207,-1.0213,-1.0326,-1.0159,-1.0073,-1.0062,-0.9933,-0.9868,-0.9857,-0.9553,-0.9489,-0.9539,-0.9175,-0.9027,-0.8951,-0.8789,-0.8703,-0.8703,-0.8703,-0.8703,-0.8703,-0.8703,-0.8703,-0.8703,-0.8703,-0.8784,-0.8898,-0.8447,-0.8301,-0.8473,-0.8091,-0.7857,-0.7987,-0.8047,-0.8242,-0.8511,-0.8582,-0.8711,-0.877,-0.8864,-0.9046,-0.9307,-0.9538,-0.974,-0.9956,-0.9959,-1.0001,-1.0147,-1.0086,-1.0195,-1.0558,-1.0638,-1.0947,-1.1563,-1.1932,-1.215,-1.2213,-1.2179,-1.2103,-1.1992,-1.1757,-1.151,-1.1436,-1.1249,-1.0999,-1.0928,-1.0928,-1.0934,-1.0813,-1.0842,-1.1116,-1.1483,-1.1617,-1.1797,-1.2204,-1.2305,-1.2105,-1.1716,-1.1327,-1.102,-1.0753,-1.028,-0.9873,-0.9616,-0.9379,-0.9092,-0.8846,-0.8705,-0.8641,-0.8517,-0.8192,-0.8122,-0.8187,-0.7792,-0.7596,-0.7661,-0.7536,-0.7138,-0.6544,-0.6346,-0.6017,-1.3087,-1.3253,-1.2879,-1.2314,-1.1599,-1.1204,-1.0999,-1.0913,-1.0684,-1.0582,-1.0737,-1.0895,-1.0869,-1.0729,-1.0344,-1.0274,-1.0288,-0.9986,-0.9863,-0.982,-0.967,-0.9638,-0.9606,-0.9332,-0.9319,-0.9372,-0.9094,-0.8946,-0.887,-0.8784,-0.8732,-0.8779,-0.8712,-0.8716,-0.8716,-0.8635,-0.8607,-0.856,-0.8556,-0.8632,-0.8822,-0.851,-0.8364,-0.8564,-0.828,-0.8048,-0.7987,-0.8107,-0.8306,-0.8511,-0.8641,-0.877,-0.877,-0.8835,-0.9022,-0.9274,-0.9408,-0.9562,-0.9748,-0.9586,-0.9562,-0.9724,-0.9586,-0.9627,-0.9915,-1.003,-1.0182,-1.0484,-1.0792,-1.1101,-1.1491,-1.1499,-1.1452,-1.1425,-1.1181,-1.0947,-1.0855,-1.0668,-1.0631,-1.0618,-1.0645,-1.0601,-1.0668,-1.0735,-1.0942,-1.1388,-1.1514,-1.157,-1.2012,-1.2077,-1.1998,-1.1591,-1.1408,-1.1184,-1.0811,-1.0318,-0.9988,-0.9714,-0.9308,-0.8827,-0.8461,-0.8375,-0.8122,-0.7797,-0.7601,-0.7536,-0.7601,-0.7204,-0.6946,-0.7007,-0.7007,-0.6811,-0.6544,-0.6346,-0.6017,-1.3437,-1.3529,-1.315,-1.2375,-1.1582,-1.1341,-1.1146,-1.0873,-1.0574,-1.0737,-1.1105,-1.1186,-1.1169,-1.1038,-1.031,-0.9851,-0.9732,-0.9626,-0.9622,-0.9567,-0.9573,-0.9627,-0.9678,-0.9264,-0.9008,-0.9094,-0.8865,-0.8708,-0.8708,-0.8708,-0.8807,-0.8987,-0.8737,-0.8681,-0.8663,-0.8492,-0.8351,-0.8196,-0.8178,-0.8327,-0.8604,-0.8347,-0.8229,-0.8397,-0.8348,-0.8189,-0.8022,-0.8112,-0.8306,-0.8511,-0.8517,-0.8576,-0.8765,-0.8894,-0.9081,-0.9274,-0.9274,-0.928,-0.9373,-0.942,-0.9496,-0.9508,-0.9496,-0.949,-0.9526,-0.9538,-0.9556,-0.9596,-0.9709,-1.0011,-1.0746,-1.0799,-1.0676,-1.0797,-1.0542,-1.054,-1.0608,-1.0578,-1.0568,-1.0568,-1.0588,-1.0651,-1.0935,-1.0975,-1.1094,-1.1434,-1.1546,-1.1592,-1.1685,-1.1706,-1.1607,-1.1446,-1.1255,-1.1138,-1.0472,-1.0136,-0.984,-0.9483,-0.9059,-0.857,-0.8225,-0.795,-0.7532,-0.7213,-0.7143,-0.7016,-0.7012,-0.6946,-0.6881,-0.6881,-0.6881,-0.6679,-0.6548,-0.6745,-0.6482,-1.2609,-1.2776,-1.2432,-1.1994,-1.1516,-1.1025,-1.0815,-1.0802,-1.0634,-1.064,-1.0959,-1.1053,-1.1018,-1.0764,-1.0273,-1.0114,-1.0203,-0.9567,-0.918,-0.9181,-0.9109,-0.901,-0.9008,-0.899,-0.8965,-0.9008,-0.8946,-0.8789,-0.8703,-0.8403,-0.844,-0.8576,-0.844,-0.8285,-0.8289,-0.828,-0.8168,-0.8111,-0.8255,-0.8403,-0.8699,-0.8713,-0.8654,-0.8577,-0.8374,-0.8285,-0.8209,-0.8336,-0.8441,-0.8517,-0.8517,-0.8447,-0.8436,-0.8571,-0.8705,-0.8765,-0.9022,-0.9081,-0.9075,-0.9151,-0.9157,-0.9221,-0.9215,-0.9221,-0.9151,-0.9157,-0.9151,-0.9157,-0.9215,-0.9456,-0.9831,-1.0129,-1.0409,-1.0676,-1.0699,-1.0552,-1.049,-1.0438,-1.038,-1.0315,-1.038,-1.0554,-1.0773,-1.0857,-1.1018,-1.1352,-1.1436,-1.142,-1.1476,-1.1409,-1.1186,-1.0887,-1.0732,-1.0456,-0.9955,-0.9963,-0.985,-0.9314,-0.884,-0.8433,-0.8069,-0.7602,-0.7158,-0.7274,-0.7047,-0.6832,-0.6832,-0.6811,-0.6749,-0.6618,-0.6618,-0.6618,-0.6548,-0.6683,-0.6416,-1.2023,-1.2031,-1.1879,-1.1564,-1.1177,-1.0781,-1.0608,-1.0599,-1.0513,-1.0473,-1.0582,-1.0784,-1.0709,-1.0336,-1.0166,-1.017,-1.029,-0.9398,-0.8972,-0.8969,-0.8765,-0.8724,-0.8737,-0.8866,-0.8866,-0.8922,-0.887,-0.8865,-0.8703,-0.8403,-0.844,-0.8576,-0.8349,-0.8194,-0.819,-0.8039,-0.8022,-0.7966,-0.8021,-0.8174,-0.8403,-0.8632,-0.8652,-0.8625,-0.8522,-0.8433,-0.8442,-0.8555,-0.8628,-0.8641,-0.8624,-0.8521,-0.8452,-0.8447,-0.8576,-0.8705,-0.8829,-0.8952,-0.9022,-0.9022,-0.9022,-0.9022,-0.9022,-0.9022,-0.9022,-0.9022,-0.9022,-0.9028,-0.9108,-0.9245,-0.9541,-0.9947,-1.0299,-1.0591,-1.0597,-1.0529,-1.0558,-1.0453,-1.0378,-1.0277,-1.0292,-1.0436,-1.0659,-1.0791,-1.0827,-1.1,-1.1075,-1.1065,-1.0893,-1.0771,-1.0594,-1.0293,-1.0143,-0.9841,-0.9557,-0.9516,-0.9606,-0.9218,-0.8682,-0.8279,-0.8033,-0.7468,-0.7144,-0.7256,-0.7144,-0.6905,-0.6709,-0.6683,-0.6548,-0.642,-0.642,-0.6486,-0.6486,-0.642,-0.6288,-1.1988,-1.154,-1.1534,-1.1153,-1.0715,-1.0773,-1.0599,-1.0368,-1.0438,-1.0261,-1.0171,-1.0444,-1.0447,-1.0018,-1.0101,-1.0027,-0.9935,-0.9405,-0.9071,-0.8979,-0.8797,-0.8689,-0.8694,-0.8803,-0.8898,-0.8851,-0.8703,-0.8703,-0.878,-0.8632,-0.8716,-0.8806,-0.8492,-0.8391,-0.844,-0.809,-0.7799,-0.7748,-0.7787,-0.7795,-0.7876,-0.8178,-0.847,-0.8519,-0.8625,-0.8732,-0.8685,-0.8845,-0.8853,-0.8888,-0.8867,-0.8887,-0.8799,-0.8619,-0.8657,-0.8857,-0.884,-0.8829,-0.8952,-0.8958,-0.8958,-0.8958,-0.8958,-0.8958,-0.8958,-0.8981,-0.8998,-0.9032,-0.9202,-0.9429,-0.9689,-0.9953,-1.0159,-1.0265,-1.0219,-1.0335,-1.0547,-1.0591,-1.0459,-1.0435,-1.0321,-1.0365,-1.0563,-1.0647,-1.0605,-1.0513,-1.0495,-1.0416,-1.0166,-1.0043,-0.9836,-0.9695,-0.9544,-0.9392,-0.917,-0.9022,-0.916,-0.9115,-0.8546,-0.8107,-0.8138,-0.7842,-0.7464,-0.7455,-0.7181,-0.6933,-0.6573,-0.6548,-0.6486,-0.642,-0.642,-0.6354,-0.6354,-0.6354,-0.6288,-1.1241,-1.1244,-1.1395,-1.134,-1.1111,-1.0893,-1.0738,-1.0588,-1.0368,-1.0254,-1.022,-1.0721,-1.0622,-1.0375,-1.064,-1.0697,-1.0324,-1.016,-0.9712,-0.897,-0.8772,-0.866,-0.8589,-0.902,-0.9463,-0.9533,-0.8856,-0.8708,-0.8937,-0.8632,-0.8367,-0.849,-0.8349,-0.834,-0.8653,-0.849,-0.8525,-0.8708,-0.8851,-0.9013,-0.9018,-0.9241,-0.9392,-0.9382,-0.9396,-0.925,-0.9104,-0.8959,-0.8904,-0.8896,-0.9029,-0.9066,-0.8911,-0.871,-0.8626,-0.8671,-0.8657,-0.8576,-0.8641,-0.8711,-0.8711,-0.8641,-0.8646,-0.8641,-0.8663,-0.8865,-0.8937,-0.897,-0.9162,-0.9329,-0.9636,-0.9741,-0.9963,-1.034,-1.0358,-1.0266,-1.0325,-1.0096,-1.0084,-1.0207,-1.017,-1.0214,-1.0324,-1.0319,-1.0228,-1.0074,-1.0088,-0.9943,-0.9761,-0.9546,-0.9392,-0.9251,-0.9094,-0.9013,-0.8941,-0.8865,-0.8941,-0.8917,-0.8566,-0.8272,-0.8319,-0.818,-0.7807,-0.7517,-0.7237,-0.6941,-0.6576,-0.644,-0.639,-0.6362,-0.635,-0.6284,-0.6284,-0.6218,-0.6152,-1.1409,-1.1552,-1.1409,-1.1484,-1.1471,-1.1015,-1.0745,-1.0654,-1.0279,-1.0047,-1.0047,-1.0333,-1.0385,-1.0335,-1.0845,-1.0953,-1.0732,-1.0893,-1.0415,-0.9523,-0.9097,-0.8882,-0.8678,-0.9246,-0.9846,-1.0143,-0.9539,-0.9311,-0.962,-0.9165,-0.8932,-0.8941,-0.8789,-0.8784,-0.9008,-0.8932,-0.9074,-0.9301,-0.9382,-0.9463,-0.9539,-0.9695,-0.9846,-0.9846,-0.9695,-0.9549,-0.9377,-0.9107,-0.8923,-0.8985,-0.9113,-0.9136,-0.9055,-0.8933,-0.879,-0.8827,-0.8794,-0.8748,-0.8662,-0.8662,-0.8597,-0.8549,-0.8592,-0.8646,-0.8684,-0.8856,-0.898,-0.9017,-0.92,-0.9405,-0.955,-0.9669,-0.992,-1.0196,-1.0271,-1.022,-1.0138,-1.0008,-0.9908,-1.003,-0.9917,-0.9925,-0.9873,-0.9841,-0.9798,-0.96,-0.9567,-0.9487,-0.9326,-0.9185,-0.8993,-0.8941,-0.8861,-0.878,-0.8703,-0.8703,-0.8703,-0.867,-0.8538,-0.8534,-0.8534,-0.8314,-0.7968,-0.768,-0.7397,-0.7064,-0.6759,-0.6499,-0.6415,-0.6293,-0.6218,-0.6152,-0.6086,-0.602,-0.5958,-1.2305,-1.2231,-1.1706,-1.1632,-1.1668,-1.107,-1.0821,-1.0695,-1.006,-0.9783,-0.9633,-0.9817,-0.981,-1.0067,-1.0653,-1.0943,-1.1051,-1.1186,-1.1019,-1.0536,-1.0034,-0.9508,-0.9276,-0.9604,-1.0067,-1.0588,-1.0438,-1.0288,-1.0223,-0.9992,-1.0067,-0.9695,-0.9544,-0.9549,-0.9544,-0.9377,-0.9448,-0.9453,-0.9453,-0.9528,-0.9453,-0.9614,-0.9771,-0.9922,-0.9771,-0.962,-0.9458,-0.911,-0.8951,-0.8998,-0.9185,-0.9314,-0.9265,-0.9238,-0.9233,-0.9222,-0.9211,-0.9066,-0.8926,-0.8883,-0.8813,-0.8662,-0.8786,-0.895,-0.8915,-0.9087,-0.9227,-0.9238,-0.9453,-0.9599,-0.9658,-0.9771,-0.9895,-0.9841,-0.9916,-0.9976,-1.0143,-1.011,-0.9932,-0.9804,-0.969,-0.9468,-0.9246,-0.9241,-0.915,-0.8996,-0.892,-0.8844,-0.8801,-0.8694,-0.8685,-0.8627,-0.8632,-0.8627,-0.8551,-0.8703,-0.8703,-0.8689,-0.8576,-0.8595,-0.8618,-0.8401,-0.816,-0.7799,-0.7475,-0.7203,-0.6883,-0.6591,-0.6356,-0.6258,-0.6086,-0.5958,-0.5892,-0.5826,-0.576,-1.2305,-1.2305,-1.2298,-1.2224,-1.2037,-1.1414,-1.115,-1.1041,-1.0295,-0.9771,-0.9673,-1.0083,-0.995,-0.9659,-1.0805,-1.1266,-1.1228,-1.155,-1.1484,-1.1037,-1.0669,-1.0588,-1.0582,-1.0363,-1.0738,-1.1329,-1.0887,-1.0519,-1.0594,-1.0218,-0.9922,-0.97,-0.9695,-0.97,-0.9771,-1.0062,-1.0212,-1.0207,-1.0363,-1.0212,-0.9986,-0.9992,-1.0067,-1.0073,-0.9916,-0.9695,-0.9397,-0.8861,-0.8765,-0.9246,-0.9553,-0.9728,-0.9617,-0.9567,-0.948,-0.9459,-0.9314,-0.919,-0.9136,-0.912,-0.9077,-0.9034,-0.906,-0.9114,-0.9125,-0.934,-0.9459,-0.9518,-0.969,-0.967,-0.9536,-0.9653,-0.9695,-0.9549,-0.9695,-0.9771,-0.962,-0.9544,-0.9392,-0.9084,-0.9008,-0.8861,-0.8708,-0.8627,-0.8609,-0.8415,-0.8353,-0.8389,-0.833,-0.8321,-0.8327,-0.8327,-0.8327,-0.8403,-0.8475,-0.8627,-0.8703,-0.8703,-0.8689,-0.8609,-0.8623,-0.8452,-0.8187,-0.7838,-0.7603,-0.7312,-0.6917,-0.6535,-0.6352,-0.6234,-0.5984,-0.58,-0.5704,-0.5631,-0.5568,-1.2826,-1.2753,-1.2673,-1.2599,-1.2485,-1.1775,-1.1372,-1.1077,-1.0341,-0.9882,-0.9811,-0.9928,-0.9914,-0.9902,-1.0918,-1.1404,-1.1319,-1.1872,-1.1848,-1.1558,-1.126,-1.1186,-1.1031,-1.0738,-1.1037,-1.1626,-1.1186,-1.0887,-1.0738,-1.0513,-1.0293,-1.0067,-1.0073,-1.0148,-1.0143,-1.0363,-1.0513,-1.0513,-1.0594,-1.0519,-1.0368,-1.0438,-1.0513,-1.0513,-1.0293,-0.9841,-0.9165,-0.878,-0.8703,-0.8937,-0.9236,-0.9533,-0.9528,-0.9579,-0.9575,-0.9569,-0.9504,-0.9475,-0.9378,-0.9362,-0.9308,-0.9254,-0.9281,-0.928,-0.9185,-0.9358,-0.9426,-0.9219,-0.9321,-0.9296,-0.916,-0.9236,-0.9236,-0.9089,-0.9236,-0.9311,-0.9089,-0.9089,-0.8937,-0.8703,-0.8556,-0.8479,-0.8331,-0.8255,-0.8178,-0.8178,-0.8161,-0.8174,-0.8089,-0.8102,-0.8089,-0.8075,-0.8129,-0.8183,-0.8263,-0.842,-0.8533,-0.8537,-0.8551,-0.8551,-0.8479,-0.8327,-0.8116,-0.7882,-0.7639,-0.7397,-0.7009,-0.6682,-0.6491,-0.6291,-0.5984,-0.5791,-0.5723,-0.5621,-0.555,-1.347,-1.3426,-1.2865,-1.2725,-1.2771,-1.2063,-1.1506,-1.1149,-1.0405,-0.9999,-0.982,-0.9548,-0.9717,-1.0381,-1.0708,-1.119,-1.154,-1.186,-1.1951,-1.1761,-1.1626,-1.1335,-1.0962,-1.0962,-1.1111,-1.1403,-1.1409,-1.1105,-1.0887,-1.0887,-1.0818,-1.0519,-1.0588,-1.0594,-1.0443,-1.0513,-1.0513,-1.0443,-1.0443,-1.0368,-1.0293,-1.0363,-1.0513,-1.0588,-1.0363,-0.976,-0.9084,-0.878,-0.8627,-0.8021,-0.8623,-0.9003,-0.8998,-0.9306,-0.9453,-0.9442,-0.9476,-0.9548,-0.9506,-0.9385,-0.9389,-0.919,-0.9373,-0.9385,-0.9122,-0.9105,-0.9125,-0.8817,-0.8699,-0.878,-0.878,-0.8703,-0.8627,-0.8627,-0.8627,-0.8551,-0.8551,-0.8627,-0.8551,-0.8327,-0.8327,-0.8178,-0.8102,-0.8025,-0.803,-0.7872,-0.7859,-0.7833,-0.7838,-0.7838,-0.7816,-0.7867,-0.7836,-0.7877,-0.8041,-0.8134,-0.8259,-0.8371,-0.8394,-0.8327,-0.8178,-0.8106,-0.803,-0.7846,-0.7643,-0.7484,-0.7339,-0.6993,-0.6698,-0.6388,-0.6135,-0.5964,-0.5876,-0.5747,-0.5651,-1.32,-1.3477,-1.2935,-1.2906,-1.2976,-1.2356,-1.1844,-1.1348,-1.0654,-1.004,-0.9572,-0.96,-0.9578,-0.9385,-1.0122,-1.064,-1.1083,-1.1436,-1.1484,-1.1552,-1.1484,-1.1335,-1.1111,-1.126,-1.1409,-1.1409,-1.1409,-1.1186,-1.0887,-1.0669,-1.0588,-1.0513,-1.0513,-1.0438,-1.0368,-1.0588,-1.0513,-1.0143,-1.0143,-1.0143,-0.9922,-0.9916,-0.9992,-1.0067,-0.9916,-0.9463,-0.8856,-0.8627,-0.825,-0.8021,-0.8322,-0.8699,-0.8699,-0.8856,-0.8932,-0.8932,-0.8932,-0.8983,-0.8944,-0.892,-0.892,-0.8926,-0.9011,-0.901,-0.8859,-0.8959,-0.8932,-0.878,-0.8703,-0.8627,-0.8551,-0.8093,-0.8016,-0.8097,-0.8021,-0.7787,-0.7787,-0.8016,-0.8097,-0.7868,-0.771,-0.7714,-0.7633,-0.7714,-0.7638,-0.7642,-0.7613,-0.7567,-0.7571,-0.7664,-0.7651,-0.7631,-0.7664,-0.7722,-0.7862,-0.7951,-0.8121,-0.8147,-0.8165,-0.8178,-0.803,-0.7804,-0.7723,-0.7718,-0.7633,-0.7462,-0.7364,-0.7134,-0.6814,-0.6508,-0.6301,-0.6129,-0.6022,-0.5885,-0.5648,-1.3179,-1.3121,-1.2956,-1.2813,-1.2662,-1.2366,-1.185,-1.1211,-1.0721,-1.0052,-0.9514,-0.9612,-0.9478,-0.9303,-0.9886,-1.0423,-1.0792,-1.1162,-1.1346,-1.1397,-1.1335,-1.1186,-1.1111,-1.1186,-1.1186,-1.0962,-1.0887,-1.0663,-1.0443,-1.0368,-1.0363,-1.0363,-1.0443,-1.0443,-1.0368,-1.0513,-1.0438,-1.0143,-1.0143,-1.0073,-0.9771,-0.9846,-0.9916,-0.9922,-0.9841,-0.962,-0.9013,-0.8551,-0.825,-0.7944,-0.794,-0.8093,-0.8327,-0.8479,-0.8556,-0.8551,-0.8627,-0.8703,-0.8703,-0.8703,-0.877,-0.8851,-0.8927,-0.8775,-0.8623,-0.8699,-0.8475,-0.8246,-0.8093,-0.8093,-0.8093,-0.7863,-0.7638,-0.7714,-0.7638,-0.748,-0.7561,-0.7714,-0.7791,-0.7561,-0.7557,-0.7557,-0.748,-0.7472,-0.748,-0.7557,-0.7548,-0.7512,-0.7524,-0.7536,-0.7524,-0.7495,-0.7517,-0.7522,-0.7677,-0.7783,-0.8008,-0.8016,-0.8021,-0.7953,-0.7876,-0.7723,-0.7569,-0.7488,-0.7484,-0.7395,-0.7307,-0.7076,-0.6958,-0.6872,-0.6678,-0.639,-0.6161,-0.5919,-0.5671,-1.3143,-1.2891,-1.2818,-1.2611,-1.2253,-1.2226,-1.167,-1.0927,-1.0642,-1.0118,-0.9578,-0.9478,-0.9478,-0.9602,-0.9951,-1.0294,-1.0728,-1.1128,-1.1371,-1.1403,-1.126,-1.1186,-1.1111,-1.0962,-1.0812,-1.0513,-1.0438,-1.0218,-1.0067,-1.0067,-1.0293,-1.0293,-1.0363,-1.0519,-1.0513,-1.0513,-1.0363,-1.0218,-1.0148,-1.0067,-0.9922,-0.9992,-1.0067,-1.0067,-1.0067,-0.9765,-0.9241,-0.8861,-0.8479,-0.8174,-0.7714,-0.7642,-0.7872,-0.8025,-0.825,-0.825,-0.8322,-0.8394,-0.8322,-0.8399,-0.8546,-0.8851,-0.8927,-0.8699,-0.8475,-0.8403,-0.8174,-0.7787,-0.7633,-0.7633,-0.748,-0.748,-0.748,-0.7557,-0.7557,-0.748,-0.748,-0.748,-0.7557,-0.748,-0.748,-0.748,-0.746,-0.7443,-0.746,-0.7472,-0.7464,-0.7456,-0.746,-0.7468,-0.7447,-0.7427,-0.7454,-0.7466,-0.7617,-0.7565,-0.7795,-0.7718,-0.7799,-0.7723,-0.7646,-0.7411,-0.7257,-0.7411,-0.7403,-0.7238,-0.7145,-0.7079,-0.6995,-0.7057,-0.6753,-0.6307,-0.6075,-0.6016,-0.5668,-1.2999,-1.31,-1.2534,-1.2338,-1.2374,-1.2303,-1.1639,-1.0855,-1.0578,-1.0118,-0.9578,-0.9478,-0.9484,-0.9627,-0.982,-1.0325,-1.0827,-1.1134,-1.1278,-1.1354,-1.1304,-1.1224,-1.1105,-1.0881,-1.0738,-1.0513,-1.0438,-1.0218,-0.9997,-1.0067,-1.0218,-1.0368,-1.0443,-1.0519,-1.0588,-1.0588,-1.0363,-1.0218,-1.0073,-0.9992,-0.9922,-0.9916,-0.9992,-0.9992,-0.9992,-0.9771,-0.9473,-0.917,-0.9013,-0.8627,-0.847,-0.8475,-0.8403,-0.8021,-0.7863,-0.7863,-0.794,-0.8012,-0.794,-0.7868,-0.7944,-0.8178,-0.8475,-0.8475,-0.8327,-0.825,-0.8097,-0.7714,-0.748,-0.748,-0.748,-0.7557,-0.748,-0.748,-0.7557,-0.7557,-0.7557,-0.7557,-0.7557,-0.748,-0.748,-0.748,-0.746,-0.7439,-0.7439,-0.7439,-0.7423,-0.7399,-0.7382,-0.7411,-0.7427,-0.7407,-0.7382,-0.7423,-0.7557,-0.7484,-0.7484,-0.7411,-0.7334,-0.7257,-0.7176,-0.7099,-0.7022,-0.7099,-0.7099,-0.7015,-0.6992,-0.6885,-0.6794,-0.6718,-0.6414,-0.6172,-0.5928,-0.5679,-0.5412,-1.2964,-1.2791,-1.2287,-1.1995,-1.1936,-1.1852,-1.1421,-1.0892,-1.0603,-1.0199,-0.9807,-0.9562,-0.9633,-0.9819,-0.9994,-1.0368,-1.0752,-1.1035,-1.1081,-1.1052,-1.1059,-1.107,-1.1093,-1.0887,-1.0738,-1.0663,-1.0519,-1.0293,-0.9916,-0.9992,-1.0143,-1.0293,-1.0368,-1.0438,-1.0588,-1.0519,-1.0363,-1.0218,-1.0067,-0.9997,-0.9922,-0.9922,-0.9922,-0.9922,-0.9922,-0.9771,-0.9625,-0.9241,-0.9084,-0.8932,-0.8708,-0.8623,-0.8551,-0.8399,-0.8093,-0.8093,-0.8093,-0.8093,-0.8093,-0.8093,-0.8322,-0.8551,-0.8623,-0.8699,-0.8551,-0.8475,-0.8097,-0.7714,-0.7638,-0.7638,-0.748,-0.771,-0.7714,-0.7633,-0.7787,-0.7863,-0.771,-0.7714,-0.7638,-0.7557,-0.7557,-0.7557,-0.7476,-0.7452,-0.7427,-0.7407,-0.7387,-0.7362,-0.7334,-0.7303,-0.7355,-0.7355,-0.7343,-0.7291,-0.7326,-0.7249,-0.7253,-0.7103,-0.7026,-0.6945,-0.6868,-0.6791,-0.6791,-0.6791,-0.6791,-0.6788,-0.674,-0.6623,-0.654,-0.6349,-0.6074,-0.5752,-0.5636,-0.5412,-0.5072,-1.2905,-1.2465,-1.2101,-1.1784,-1.1543,-1.1447,-1.1237,-1.0834,-1.0562,-1.0157,-0.9832,-0.9598,-0.9752,-1.0025,-1.0227,-1.0399,-1.0752,-1.091,-1.0827,-1.0846,-1.0785,-1.0869,-1.0908,-1.0962,-1.0812,-1.0738,-1.0663,-1.0363,-1.0067,-0.9992,-1.0073,-1.0218,-1.0212,-1.0293,-1.0443,-1.0438,-1.0363,-1.0218,-1.0148,-1.0067,-0.9922,-0.9922,-0.9922,-0.9922,-0.9922,-0.9922,-0.9771,-0.9539,-0.9387,-0.9316,-0.9089,-0.8856,-0.8932,-0.8932,-0.8932,-0.8932,-0.8775,-0.8703,-0.8703,-0.8623,-0.8703,-0.8932,-0.9003,-0.9003,-0.8851,-0.8551,-0.8174,-0.7791,-0.7795,-0.7872,-0.7868,-0.8025,-0.8025,-0.7944,-0.8169,-0.8399,-0.7944,-0.7795,-0.7872,-0.7791,-0.7638,-0.7557,-0.748,-0.7323,-0.7283,-0.7171,-0.7155,-0.7171,-0.7155,-0.7194,-0.7234,-0.7238,-0.7238,-0.7088,-0.7022,-0.7019,-0.6945,-0.6868,-0.6791,-0.6791,-0.6714,-0.6641,-0.6641,-0.6563,-0.6641,-0.663,-0.6496,-0.6328,-0.6027,-0.5798,-0.5627,-0.5415,-0.5235,-0.502,-0.4703,-1.2959,-1.2545,-1.2311,-1.2084,-1.183,-1.1655,-1.1171,-1.0575,-1.0397,-0.9999,-0.9628,-0.9538,-0.9717,-0.9989,-1.0299,-1.071,-1.0948,-1.0797,-1.0597,-1.0648,-1.0683,-1.0724,-1.0887,-1.1031,-1.0887,-1.0738,-1.0738,-1.0513,-1.0288,-1.0143,-1.0143,-1.0218,-1.0218,-1.0293,-1.0438,-1.0288,-1.0218,-1.0143,-0.9992,-0.9922,-0.9922,-0.9922,-0.9922,-0.9922,-0.9922,-0.9922,-0.9922,-0.969,-0.9771,-0.9771,-0.9695,-0.9695,-0.9771,-0.9765,-0.9765,-0.9539,-0.916,-0.8703,-0.878,-0.8856,-0.8937,-0.9241,-0.9316,-0.916,-0.8927,-0.8556,-0.8178,-0.8102,-0.8178,-0.8255,-0.825,-0.8479,-0.8479,-0.8403,-0.8399,-0.8403,-0.8102,-0.8097,-0.8097,-0.8025,-0.7868,-0.7565,-0.7407,-0.7299,-0.7139,-0.704,-0.7007,-0.7022,-0.7118,-0.7153,-0.7173,-0.7176,-0.7096,-0.6942,-0.6791,-0.6791,-0.6714,-0.6641,-0.6637,-0.656,-0.6563,-0.6486,-0.6412,-0.6412,-0.6405,-0.6276,-0.6115,-0.5861,-0.552,-0.5384,-0.535,-0.5133,-0.4845,-0.4626,-0.4422,-1.2746,-1.2586,-1.2204,-1.1991,-1.1877,-1.1657,-1.1307,-1.0805,-1.056,-1.0165,-0.9837,-0.9754,-0.9989,-1.0478,-1.0873,-1.1015,-1.101,-1.0713,-1.0489,-1.0448,-1.041,-1.0541,-1.064,-1.0738,-1.0669,-1.0669,-1.0519,-1.0443,-1.0368,-1.0363,-1.0368,-1.0368,-1.0218,-1.0218,-1.0293,-1.0148,-1.0073,-0.9992,-0.9916,-0.9922,-0.9922,-0.9922,-0.9922,-0.9922,-0.9922,-0.9922,-0.9922,-0.9922,-0.9922,-0.9922,-0.9922,-0.9922,-0.9922,-0.9846,-0.9846,-0.9846,-0.9614,-0.9387,-0.9387,-0.9311,-0.9468,-0.9544,-0.962,-0.9463,-0.9079,-0.878,-0.8484,-0.825,-0.8475,-0.8551,-0.8556,-0.8789,-0.8708,-0.8632,-0.878,-0.8556,-0.8403,-0.8399,-0.8399,-0.825,-0.8102,-0.7872,-0.7642,-0.7592,-0.745,-0.7251,-0.7202,-0.7291,-0.7302,-0.7395,-0.7253,-0.718,-0.7022,-0.6865,-0.6714,-0.6563,-0.6486,-0.6412,-0.6412,-0.6412,-0.6335,-0.6335,-0.6261,-0.6143,-0.602,-0.5885,-0.5663,-0.5612,-0.5478,-0.5324,-0.5173,-0.4974,-0.4775,-0.4535,-0.4436,-1.2673,-1.2505,-1.2136,-1.1977,-1.1977,-1.1762,-1.1429,-1.1047,-1.0719,-1.0351,-1.0087,-1.003,-1.0366,-1.0904,-1.123,-1.1206,-1.0912,-1.0743,-1.0458,-1.0312,-1.0183,-1.029,-1.0398,-1.0443,-1.0519,-1.0513,-1.0443,-1.0368,-1.0443,-1.0438,-1.0443,-1.0368,-1.0212,-1.0143,-1.0073,-0.9997,-0.9922,-0.9922,-0.9922,-0.9922,-0.9922,-0.9922,-0.9922,-0.9922,-0.9922,-0.9922,-0.9922,-0.9922,-0.9922,-0.9922,-0.9922,-0.9922,-0.9922,-0.9922,-0.9922,-0.9922,-0.9765,-0.9765,-0.9765,-0.9771,-0.9846,-0.9846,-0.9846,-0.962,-0.9311,-0.9089,-0.9018,-0.8708,-0.8856,-0.8856,-0.8861,-0.917,-0.9165,-0.9089,-0.9165,-0.8937,-0.8703,-0.8627,-0.8546,-0.8475,-0.8327,-0.8174,-0.8021,-0.7949,-0.7783,-0.7557,-0.7484,-0.748,-0.7403,-0.7407,-0.7103,-0.6876,-0.6795,-0.6637,-0.6563,-0.6412,-0.6335,-0.6257,-0.6261,-0.6257,-0.618,-0.6257,-0.6261,-0.6123,-0.5835,-0.5835,-0.5831,-0.5676,-0.5516,-0.5201,-0.4905,-0.4859,-0.4719,-0.4486,-0.448,-1.2973,-1.2298,-1.2271,-1.2251,-1.2184,-1.1822,-1.1528,-1.1181,-1.0623,-1.0259,-1.003,-1.0212,-1.0536,-1.0959,-1.1132,-1.1242,-1.1292,-1.0783,-1.053,-1.0387,-1.0271,-1.0185,-1.0293,-1.0368,-1.0438,-1.0443,-1.0368,-1.0368,-1.0513,-1.0438,-1.0293,-0.9992,-1.0143,-0.9916,-0.9841,-0.9771,-0.9771,-0.9771,-0.9846,-0.9846,-0.9846,-0.9841,-0.9846,-0.9841,-0.9846,-0.9922,-0.9846,-0.9846,-0.9846,-0.9846,-0.9846,-0.9846,-0.9771,-0.9846,-0.9846,-0.9846,-0.9922,-0.9922,-0.9922,-0.9922,-0.9922,-0.9846,-0.9771,-0.962,-0.9392,-0.9316,-0.9246,-0.917,-0.9246,-0.9392,-0.9468,-0.962,-0.9544,-0.9468,-0.9316,-0.9165,-0.8937,-0.8699,-0.8699,-0.8703,-0.8551,-0.8403,-0.8246,-0.8097,-0.7949,-0.7642,-0.7638,-0.7714,-0.7249,-0.7099,-0.6721,-0.6493,-0.6416,-0.6335,-0.6335,-0.6257,-0.6183,-0.6183,-0.618,-0.6103,-0.6025,-0.6103,-0.6257,-0.6089,-0.5896,-0.5909,-0.5822,-0.5503,-0.5181,-0.4851,-0.4715,-0.4773,-0.4753,-0.4624,-0.4635,-1.3127,-1.282,-1.2452,-1.2224,-1.2083,-1.1781,-1.1495,-1.1132,-1.0551,-1.0317,-1.0194,-1.0453,-1.0713,-1.1004,-1.1107,-1.1037,-1.1037,-1.0738,-1.0513,-1.0293,-1.0143,-0.9997,-1.0067,-1.0067,-1.0143,-1.0143,-1.0143,-1.0218,-1.0293,-1.0288,-1.0143,-0.9997,-0.9992,-0.9846,-0.9695,-0.962,-0.9549,-0.9549,-0.9544,-0.9544,-0.9549,-0.9695,-0.9695,-0.9549,-0.9695,-0.962,-0.9544,-0.9695,-0.962,-0.962,-0.9695,-0.962,-0.962,-0.9695,-0.9695,-0.9695,-0.9771,-0.9846,-0.9846,-0.9846,-0.9922,-0.9846,-0.9625,-0.9473,-0.9468,-0.9246,-0.9246,-0.9322,-0.9473,-0.9549,-0.962,-0.9771,-0.9771,-0.9625,-0.9473,-0.9246,-0.9013,-0.878,-0.8546,-0.8475,-0.8475,-0.8479,-0.8322,-0.8241,-0.8021,-0.7795,-0.7872,-0.7791,-0.733,-0.6868,-0.6567,-0.6335,-0.6335,-0.6099,-0.6022,-0.6025,-0.6106,-0.6025,-0.6025,-0.587,-0.5789,-0.618,-0.6257,-0.6025,-0.5944,-0.5857,-0.5668,-0.5228,-0.5019,-0.5049,-0.4995,-0.4871,-0.4848,-0.4756,-0.4787,-1.3484,-1.32,-1.2753,-1.2305,-1.2003,-1.1781,-1.1508,-1.1083,-1.0622,-1.0447,-1.0459,-1.0659,-1.0864,-1.1057,-1.1117,-1.1037,-1.0887,-1.0738,-1.0519,-1.0293,-1.0143,-0.9992,-0.9922,-0.9922,-0.9922,-0.9922,-0.9922,-0.9997,-1.0143,-1.0062,-0.9992,-0.9846,-0.9771,-0.97,-0.962,-0.9468,-0.9322,-0.9322,-0.9322,-0.9322,-0.9322,-0.9397,-0.9473,-0.9327,-0.9473,-0.9473,-0.9397,-0.9473,-0.9468,-0.9392,-0.9392,-0.9397,-0.9397,-0.9397,-0.9473,-0.9549,-0.962,-0.9695,-0.969,-0.9841,-0.9846,-0.9846,-0.9695,-0.9544,-0.9473,-0.9322,-0.9322,-0.9397,-0.9473,-0.9549,-0.962,-0.9771,-0.9846,-0.962,-0.9397,-0.9246,-0.8865,-0.8556,-0.8399,-0.8246,-0.8246,-0.8097,-0.8016,-0.7863,-0.7787,-0.7565,-0.7334,-0.733,-0.7176,-0.6868,-0.6563,-0.6412,-0.6335,-0.6018,-0.5705,-0.5944,-0.6103,-0.5323,-0.5321,-0.5479,-0.5556,-0.5867,-0.618,-0.6103,-0.6025,-0.5864,-0.5684,-0.5416,-0.5431,-0.5452,-0.5302,-0.5066,-0.4927,-0.4841,-0.4844,-1.4163,-1.3273,-1.3178,-1.2732,-1.2077,-1.1781,-1.1567,-1.1263,-1.0887,-1.0677,-1.0647,-1.0719,-1.0876,-1.1075,-1.1117,-1.1117,-1.1037,-1.0887,-1.0738,-1.0588,-1.0363,-1.0137,-0.9992,-0.9992,-0.9997,-0.9922,-1.0073,-1.0143,-1.0067,-1.0143,-0.9992,-0.9771,-0.9771,-0.9625,-0.9625,-0.962,-0.9473,-0.9322,-0.9246,-0.9246,-0.9246,-0.9246,-0.9246,-0.9246,-0.9246,-0.9246,-0.917,-0.9251,-0.9246,-0.9241,-0.9246,-0.9246,-0.9246,-0.9246,-0.9322,-0.9322,-0.9322,-0.9322,-0.9316,-0.969,-0.9765,-0.9771,-0.962,-0.9625,-0.9695,-0.962,-0.9397,-0.9402,-0.9397,-0.9544,-0.962,-0.969,-0.969,-0.9463,-0.9241,-0.8937,-0.8556,-0.825,-0.8016,-0.794,-0.7714,-0.7484,-0.7484,-0.7484,-0.748,-0.7253,-0.6868,-0.6791,-0.6945,-0.6791,-0.6563,-0.6254,-0.6099,-0.5941,-0.5709,-0.6022,-0.5948,-0.5165,-0.4851,-0.5165,-0.5321,-0.5476,-0.5789,-0.6025,-0.6025,-0.5867,-0.5864,-0.5854,-0.5628,-0.5395,-0.5398,-0.528,-0.5065,-0.498,-0.4955,-1.4352,-1.4073,-1.3297,-1.2855,-1.2512,-1.2083,-1.1723,-1.1353,-1.1175,-1.093,-1.0734,-1.0864,-1.1009,-1.1099,-1.1117,-1.1117,-1.1111,-1.126,-1.1105,-1.1037,-1.0738,-1.0588,-1.0438,-1.0293,-1.0293,-1.0368,-1.0513,-1.0663,-1.0738,-1.0594,-1.0368,-1.0148,-0.9992,-0.9695,-0.9322,-0.9094,-0.8932,-0.8937,-0.8937,-0.8937,-0.8932,-0.9089,-0.9094,-0.9013,-0.9094,-0.9018,-0.8937,-0.9018,-0.9018,-0.9013,-0.9018,-0.9018,-0.9018,-0.9018,-0.9099,-0.9099,-0.917,-0.9241,-0.9084,-0.9155,-0.9236,-0.9316,-0.9397,-0.9397,-0.9327,-0.9251,-0.9175,-0.9246,-0.9322,-0.9392,-0.9311,-0.9231,-0.916,-0.878,-0.8475,-0.8246,-0.794,-0.7787,-0.7638,-0.7561,-0.7411,-0.7103,-0.7026,-0.7022,-0.7099,-0.7099,-0.6795,-0.6795,-0.6868,-0.6788,-0.6633,-0.6096,-0.5789,-0.5709,-0.5786,-0.6025,-0.5867,-0.5087,-0.5007,-0.524,-0.5318,-0.5318,-0.5321,-0.5479,-0.5712,-0.5944,-0.5786,-0.5631,-0.5392,-0.524,-0.5398,-0.5553,-0.5544,-0.5234,-0.5002,-1.484,-1.4702,-1.3933,-1.3415,-1.3018,-1.2298,-1.181,-1.1506,-1.1481,-1.12,-1.0972,-1.1144,-1.1186,-1.1111,-1.1117,-1.1117,-1.1111,-1.118,-1.1105,-1.1111,-1.0818,-1.0663,-1.0588,-1.0588,-1.0588,-1.0738,-1.0887,-1.1111,-1.1037,-1.1111,-1.0893,-1.0594,-1.0438,-1.0218,-0.9846,-0.9614,-0.9533,-0.9533,-0.9533,-0.9458,-0.9463,-0.9316,-0.917,-0.9089,-0.9018,-0.8865,-0.8784,-0.8784,-0.8865,-0.8784,-0.8784,-0.8865,-0.8784,-0.8789,-0.887,-0.8941,-0.8941,-0.8937,-0.878,-0.8627,-0.8708,-0.8941,-0.8941,-0.9018,-0.9022,-0.9099,-0.9099,-0.917,-0.9175,-0.9175,-0.9022,-0.8941,-0.8565,-0.8183,-0.8016,-0.7787,-0.748,-0.7326,-0.7176,-0.718,-0.7026,-0.6718,-0.6563,-0.6563,-0.6641,-0.6718,-0.6721,-0.6795,-0.6795,-0.6637,-0.6556,-0.6173,-0.5789,-0.5789,-0.5867,-0.6025,-0.5712,-0.5087,-0.5165,-0.5395,-0.5162,-0.5082,-0.5007,-0.5087,-0.5479,-0.5715,-0.5559,-0.5401,-0.5398,-0.5473,-0.5709,-0.5786,-0.586,-0.5631,-0.5249,-1.5703,-1.5163,-1.4942,-1.4347,-1.3455,-1.2512,-1.1926,-1.1605,-1.1611,-1.1533,-1.1312,-1.142,-1.1335,-1.1186,-1.1186,-1.1117,-1.1192,-1.1186,-1.1105,-1.0881,-1.0962,-1.0812,-1.0738,-1.0743,-1.0887,-1.1037,-1.126,-1.1416,-1.1192,-1.1186,-1.1111,-1.1117,-1.0962,-1.0812,-1.0738,-1.0738,-1.0588,-1.0288,-1.0137,-1.0137,-1.0062,-0.9841,-0.9695,-0.9544,-0.9241,-0.9013,-0.8861,-0.878,-0.878,-0.8703,-0.8703,-0.8703,-0.8703,-0.8703,-0.8703,-0.8627,-0.8556,-0.8479,-0.8479,-0.8327,-0.8327,-0.8556,-0.8703,-0.9008,-0.9013,-0.8875,-0.8813,-0.8765,-0.8784,-0.8913,-0.8899,-0.8516,-0.8132,-0.7889,-0.771,-0.7403,-0.7019,-0.6791,-0.6718,-0.6644,-0.649,-0.6335,-0.6412,-0.6412,-0.6412,-0.6412,-0.649,-0.649,-0.649,-0.649,-0.6409,-0.6331,-0.6103,-0.5944,-0.6022,-0.6103,-0.5867,-0.5321,-0.5318,-0.5395,-0.516,-0.5007,-0.5087,-0.5168,-0.5404,-0.5482,-0.5404,-0.5556,-0.5712,-0.5789,-0.5709,-0.6015,-0.6089,-0.6015,-0.5709,-1.5003,-1.5083,-1.4631,-1.4372,-1.4163,-1.3258,-1.2508,-1.1839,-1.1854,-1.1788,-1.152,-1.1879,-1.1774,-1.1335,-1.1632,-1.1409,-1.1484,-1.1632,-1.1781,-1.1632,-1.1484,-1.1558,-1.1558,-1.1341,-1.149,-1.1558,-1.1781,-1.1861,-1.1787,-1.1632,-1.1632,-1.1861,-1.1409,-1.1484,-1.1706,-1.1861,-1.126,-1.0812,-1.0663,-1.0663,-1.0588,-1.0363,-1.0218,-1.0067,-0.969,-0.9387,-0.9311,-0.9003,-0.8851,-0.878,-0.8703,-0.8703,-0.8703,-0.8703,-0.8703,-0.8703,-0.8556,-0.8403,-0.8403,-0.8174,-0.8178,-0.8246,-0.8322,-0.8322,-0.8403,-0.8417,-0.83,-0.8413,-0.8289,-0.8353,-0.8267,-0.7962,-0.7541,-0.7346,-0.7176,-0.6868,-0.6563,-0.6563,-0.6412,-0.6412,-0.6261,-0.6261,-0.6261,-0.6335,-0.6335,-0.6335,-0.6261,-0.6261,-0.6261,-0.6261,-0.6261,-0.6261,-0.6257,-0.6103,-0.6103,-0.618,-0.5944,-0.5709,-0.5628,-0.5395,-0.5085,-0.4932,-0.509,-0.5168,-0.5168,-0.5323,-0.5401,-0.5401,-0.5398,-0.5476,-0.5473,-0.5935,-0.6244,-0.6167,-0.6167,-1.5007,-1.5145,-1.478,-1.4529,-1.4253,-1.378,-1.3143,-1.2525,-1.2524,-1.2483,-1.236,-1.2597,-1.2445,-1.2218,-1.2224,-1.2077,-1.1781,-1.2077,-1.2224,-1.2003,-1.2083,-1.1929,-1.1929,-1.1855,-1.1781,-1.2003,-1.2157,-1.2231,-1.2157,-1.2077,-1.2003,-1.2157,-1.1855,-1.2003,-1.215,-1.2157,-1.1929,-1.1484,-1.126,-1.1186,-1.1111,-1.0962,-1.0887,-1.0738,-1.0293,-0.9992,-0.9916,-0.9458,-0.9306,-0.9084,-0.9084,-0.8932,-0.878,-0.8703,-0.8703,-0.8627,-0.8551,-0.8403,-0.8327,-0.8106,-0.8178,-0.8097,-0.794,-0.7944,-0.7944,-0.7953,-0.8073,-0.8117,-0.7914,-0.7783,-0.7552,-0.7313,-0.7013,-0.6725,-0.649,-0.6335,-0.6335,-0.6335,-0.6261,-0.6335,-0.6261,-0.6261,-0.6261,-0.6261,-0.6261,-0.6261,-0.6261,-0.6261,-0.6261,-0.6261,-0.6261,-0.6261,-0.6261,-0.6257,-0.6257,-0.6103,-0.5867,-0.5631,-0.5553,-0.5321,-0.4932,-0.4776,-0.4857,-0.4854,-0.4776,-0.4932,-0.501,-0.4929,-0.4849,-0.5004,-0.5395,-0.5857,-0.6244,-0.6479,-0.6479,-1.5349,-1.5321,-1.5163,-1.4696,-1.4077,-1.4018,-1.3705,-1.3339,-1.3417,-1.3498,-1.3426,-1.3397,-1.3251,-1.3025,-1.2959,-1.2739,-1.2592,-1.2739,-1.2599,-1.2077,-1.2157,-1.215,-1.2077,-1.1855,-1.2003,-1.2157,-1.2305,-1.2305,-1.2305,-1.2231,-1.2157,-1.2305,-1.2231,-1.2231,-1.2305,-1.2305,-1.2157,-1.2009,-1.2009,-1.2009,-1.1935,-1.1781,-1.1484,-1.1335,-1.0962,-1.0594,-1.0513,-1.0438,-1.0218,-0.9846,-0.962,-0.9387,-0.916,-0.8856,-0.8856,-0.8703,-0.8632,-0.8479,-0.8327,-0.8178,-0.803,-0.7949,-0.7714,-0.7638,-0.7642,-0.7484,-0.7598,-0.768,-0.7564,-0.7332,-0.7175,-0.701,-0.6734,-0.6518,-0.6416,-0.6338,-0.6261,-0.6261,-0.6261,-0.6261,-0.6261,-0.6261,-0.6257,-0.6257,-0.6099,-0.618,-0.618,-0.618,-0.6103,-0.6103,-0.6103,-0.6103,-0.6025,-0.5948,-0.5867,-0.5786,-0.5634,-0.5479,-0.5398,-0.5165,-0.4698,-0.4621,-0.4621,-0.4621,-0.4618,-0.454,-0.454,-0.454,-0.4616,-0.5004,-0.5392,-0.5854,-0.6167,-0.6402,-0.6714,-1.478,-1.4953,-1.4918,-1.4709,-1.4455,-1.4136,-1.3982,-1.3914,-1.3906,-1.3871,-1.3829,-1.4042,-1.4057,-1.368,-1.376,-1.3542,-1.3244,-1.3244,-1.3112,-1.282,-1.2673,-1.2452,-1.2445,-1.215,-1.2231,-1.2231,-1.2305,-1.2305,-1.2305,-1.2305,-1.2305,-1.2305,-1.2305,-1.2305,-1.2305,-1.2305,-1.2305,-1.2305,-1.2305,-1.2305,-1.2231,-1.2231,-1.2083,-1.1855,-1.1558,-1.126,-1.1111,-1.0738,-1.0513,-1.0293,-1.0293,-1.0212,-1.0062,-0.9614,-0.9387,-0.9311,-0.8937,-0.8627,-0.8479,-0.8327,-0.8174,-0.7868,-0.7638,-0.7411,-0.7257,-0.7099,-0.7134,-0.7219,-0.7107,-0.6946,-0.686,-0.6695,-0.6599,-0.6464,-0.6338,-0.6338,-0.6257,-0.6257,-0.6257,-0.6335,-0.6335,-0.6335,-0.6335,-0.6254,-0.6018,-0.5941,-0.5789,-0.5712,-0.5631,-0.5631,-0.5634,-0.5634,-0.5556,-0.5479,-0.5476,-0.5395,-0.5321,-0.5165,-0.4932,-0.4698,-0.4465,-0.4465,-0.4387,-0.4387,-0.4462,-0.4384,-0.4309,-0.4309,-0.4462,-0.4849,-0.5004,-0.5392,-0.578,-0.6015,-0.656,-1.4514,-1.4567,-1.4628,-1.453,-1.4362,-1.418,-1.4115,-1.4057,-1.4197,-1.4144,-1.4025,-1.4401,-1.4545,-1.4299,-1.4489,-1.4274,-1.3833,-1.3905,-1.355,-1.3339,-1.3046,-1.282,-1.2599,-1.2372,-1.2305,-1.2305,-1.2305,-1.2305,-1.2305,-1.2305,-1.2305,-1.2305,-1.2305,-1.2305,-1.2305,-1.2305,-1.2305,-1.2305,-1.2305,-1.2305,-1.2305,-1.2305,-1.2305,-1.2157,-1.2003,-1.1781,-1.1706,-1.1409,-1.1186,-1.0887,-1.0663,-1.0513,-1.0288,-0.9916,-0.9765,-0.9614,-0.9311,-0.8861,-0.8708,-0.8627,-0.847,-0.8016,-0.7863,-0.7868,-0.7718,-0.7561,-0.7253,-0.725,-0.6943,-0.6705,-0.6709,-0.6624,-0.6464,-0.643,-0.6338,-0.6261,-0.6257,-0.6177,-0.6486,-0.6949,-0.6945,-0.6942,-0.6865,-0.671,-0.6556,-0.6254,-0.6022,-0.5634,-0.5476,-0.5395,-0.5321,-0.5321,-0.5321,-0.5243,-0.5162,-0.5162,-0.5007,-0.4854,-0.4543,-0.4387,-0.4231,-0.4153,-0.4153,-0.4153,-0.4151,-0.4151,-0.4075,-0.4077,-0.4384,-0.4846,-0.4849,-0.4851,-0.524,-0.5705,-0.6096,-1.4405,-1.433,-1.4259,-1.4204,-1.405,-1.4157,-1.4145,-1.4023,-1.4294,-1.4353,-1.4305,-1.4629,-1.4919,-1.4969,-1.4919,-1.4784,-1.4569,-1.4346,-1.3992,-1.3564,-1.32,-1.29,-1.2673,-1.2445,-1.2305,-1.2305,-1.2305,-1.2305,-1.2305,-1.2305,-1.2305,-1.2305,-1.2305,-1.2305,-1.2305,-1.2305,-1.2305,-1.2305,-1.2305,-1.2305,-1.2305,-1.2305,-1.2305,-1.2305,-1.2305,-1.2305,-1.2305,-1.2231,-1.1935,-1.1632,-1.1111,-1.0962,-1.0663,-1.0368,-1.0067,-0.9916,-0.9544,-0.9246,-0.9018,-0.8932,-0.8703,-0.8403,-0.8403,-0.825,-0.8097,-0.7872,-0.7488,-0.7257,-0.688,-0.6806,-0.681,-0.6729,-0.6648,-0.6493,-0.649,-0.6412,-0.6331,-0.6264,-0.6891,-0.7504,-0.7496,-0.7492,-0.7395,-0.7246,-0.6942,-0.6718,-0.6409,-0.5944,-0.5631,-0.555,-0.555,-0.5395,-0.5318,-0.516,-0.4927,-0.4774,-0.4696,-0.4462,-0.4231,-0.4075,-0.3997,-0.3997,-0.3919,-0.3919,-0.3919,-0.3919,-0.3997,-0.3999,-0.4384,-0.4771,-0.4849,-0.4851,-0.5162,-0.555,-0.5628,-1.4396,-1.4276,-1.4107,-1.4004,-1.3961,-1.3917,-1.3865,-1.3917,-1.4245,-1.4431,-1.4701,-1.5035,-1.5292,-1.5076,-1.5317,-1.5204,-1.4999,-1.4784,-1.4289,-1.379,-1.3419,-1.3046,-1.2673,-1.2378,-1.2305,-1.2305,-1.2305,-1.2305,-1.2305,-1.2305,-1.2305,-1.2305,-1.2305,-1.2305,-1.2305,-1.2305,-1.2305,-1.2305,-1.2305,-1.2305,-1.2305,-1.2305,-1.2305,-1.2305,-1.2305,-1.2305,-1.2305,-1.2305,-1.2231,-1.2083,-1.1781,-1.1558,-1.1186,-1.0743,-1.0443,-1.0218,-0.9922,-0.9549,-0.9392,-0.9236,-0.8932,-0.8479,-0.8327,-0.8016,-0.7944,-0.7791,-0.7638,-0.7718,-0.7492,-0.75,-0.7423,-0.7334,-0.7249,-0.7103,-0.7026,-0.6945,-0.6791,-0.708,-0.7516,-0.7892,-0.8035,-0.7919,-0.7859,-0.7629,-0.7326,-0.7022,-0.6795,-0.6328,-0.5938,-0.586,-0.5786,-0.5637,-0.5482,-0.4693,-0.4229,-0.4382,-0.4307,-0.4073,-0.3997,-0.3919,-0.3919,-0.3841,-0.3841,-0.3841,-0.3841,-0.3919,-0.3921,-0.3999,-0.4231,-0.454,-0.4849,-0.5004,-0.5237,-0.5318,-0.5395]},{"header":{"parameterUnit":"m.s-1","parameterCategory":1,"la1":31.0,"la2":29.5877,"lo1":-88.7671,"lo2":-86.6584,"dy":0.0162,"dx":0.0185,"nx":115,"ny":88,"refTime":"2023-08-11T18:00:00:Z","depth":0,"parameterNumber":3,"parameterNumberName":"V-component_of_WINDS"},"data":[0.0,0.0,0.0,0.0,0.0,0.0,0.0,0.0,0.0,0.0,0.0,0.0,0.0,0.0,0.0,0.0,0.0,0.0,0.0,0.0,0.0,0.0,0.0,0.0,0.0,0.0,0.0,0.0,0.0,0.0,0.0,0.0,0.0,0.0,0.0,0.0,0.0,0.0,0.0,0.0,0.0,0.0,0.0,0.0,0.0,0.0,0.0,0.0,0.0,0.0,0.0,0.0,0.0,0.0,0.0,0.0,0.0,0.0,0.0,0.0,0.0,0.0,0.0,0.0,0.0,0.0,0.0,0.0,0.0,0.0,0.0,0.0,0.0,0.0,0.0,0.0,0.0,0.0,0.0,0.0,0.0,0.0,0.0,0.0,0.0,0.0,0.0,0.0,0.0,0.0,0.0,0.0,0.0,0.0,0.0,0.0,0.0,0.0,0.0,0.0,0.0,0.0,0.0,0.0,0.0,0.0,0.0,0.0,0.0,0.0,0.0,0.0,0.0,0.0,0.0,0.0,0.0,0.0,0.0,0.0,0.0,0.0,0.0,0.0,0.0,0.0,0.0,0.0,0.0,0.0,0.0,0.0,0.0,0.0,0.0,0.0,0.0,0.0,0.0,0.0,0.0,0.0,0.0,0.0,0.0,0.0,0.0,0.0,0.0,0.0,0.0,0.0,0.0,0.0,0.0,0.0,0.0,0.0,0.0,0.0,0.0,0.0,0.0,0.0,0.0,0.0,0.0,0.0,0.0,0.0,0.0,0.0,0.0,0.0,0.0,0.0,0.0,0.0,0.0,0.0,0.0,0.0,0.0,0.0,0.0,0.0,0.0,0.0,0.0,0.0,0.0,0.0,0.0,0.0,0.0,0.0,0.0,0.0,0.0,0.0,0.0,0.0,0.0,0.0,0.0,0.0,0.0,0.0,0.0,0.0,0.0,0.0,0.0,0.0,0.0,0.0,0.0,0.0,0.0,0.0,0.0,0.0,0.0,0.0,0.0,0.0,0.0,0.0,0.0,0.0,0.0,0.0,0.0,0.0,0.0,0.0,0.0,0.0,0.0,0.0,0.0,0.0,0.0,0.0,0.0,0.0,0.0,0.0,0.0,0.0,0.0,0.0,0.0,0.0,0.0,0.0,0.0,0.0,0.0,0.0,0.0,0.0,0.0,0.0,0.0,0.0,0.0,0.0,0.0,0.0,0.0,0.0,0.0,0.0,0.0,0.0,0.0,0.0,0.0,0.0,0.0,0.0,0.0,0.0,0.0,0.0,0.0,0.0,0.0,0.0,0.0,0.0,0.0,0.0,0.0,0.0,0.0,0.0,0.0,0.0,0.0,0.0,0.0,0.0,0.0,0.0,0.0,0.0,0.0,0.0,0.0,0.0,0.0,0.0,0.0,0.0,0.0,0.0,0.0,0.0,0.0,0.0,0.0,0.0,0.0,0.0,0.0,0.0,0.0,0.0,0.0,0.0,0.0,0.0,0.0,0.0,0.0,0.0,0.0,0.0,0.0,0.0,0.0,0.0,0.0,0.0,0.0,0.0,0.0,0.0,0.0,0.0,0.0,0.0,0.0,0.0,0.0,0.0,0.0,0.0,0.0,0.0,0.0,0.0,0.0,0.0,0.0,0.0,0.0,0.0,0.0,0.0,0.0,0.0,0.0,0.0,0.0,0.0,0.0,0.0,0.0,0.0,0.0,0.0,0.0,0.0,0.0,0.0,0.0,0.0,0.0,0.0,0.0,0.0,0.0,0.0,0.0,0.0,0.0,0.0,0.0,0.0,0.0,0.0,0.0,0.0,0.0,0.0,0.0,0.0,0.0,0.0,0.0,0.0,0.0,0.0,0.0,0.0,0.0,0.0,0.0,0.0,0.0,0.0,0.0,0.0,0.0,0.0,0.0,0.0,0.0,0.0,0.0,0.0,0.0,0.0,0.0,0.0,0.0,0.0,0.0,0.0,0.0,0.0,0.0,0.0,0.0,0.0,0.0,0.0,0.0,0.0,0.0,0.0,0.0,0.0,0.0,0.0,0.0,0.0,0.0,0.0,0.0,0.0,0.0,0.0,0.0,0.0,0.0,0.0,0.0,0.0,0.0,0.0,0.0,0.0,0.0,0.0,0.0,0.0,0.0,0.0,0.0,0.0,0.0,0.0,0.0,0.0,0.0,0.0,0.0,0.0,0.0,0.0,0.0,0.0,0.0,0.0,0.0,0.0,0.0,0.0,0.0,0.0,0.0,0.0,0.0,0.0,0.0,0.0,0.0,0.0,0.0,0.0,0.0,0.0,0.0,0.0,0.0,0.0,0.0,0.0,0.0,0.0,0.0,0.0,0.0,0.0,0.0,0.0,0.0,0.0,0.0,0.0,0.0,0.0,0.0,0.0,0.0,0.0,0.0,0.0,0.0,0.0,0.0,0.0,0.0,0.0,0.0,0.0,0.0,0.0,0.0,0.0,0.0,0.0,0.0,0.0,0.0,0.0,0.0,0.0,0.0,0.0,0.0,0.0,0.0,0.0,0.0,0.0,0.0,0.0,0.0,0.0,0.0,0.0,0.0,0.0,0.0,0.0,0.0,0.0,0.0,0.0,0.0,0.0,0.0,0.0,0.0,0.0,0.0,0.0,0.0,0.0,0.0,0.0,0.0,0.0,0.0,0.0,0.0,0.0,0.0,0.0,0.0,0.0,0.0,0.0,0.0,0.0,0.0,0.0,0.0,0.0,0.0,0.0,0.0,0.0,0.0,0.0,0.0,0.0,0.0,0.0,0.0,0.0,0.0,0.0,0.0,0.0,0.0,0.0,0.0,0.0,0.0,0.0,0.0,0.0,0.0,0.0,0.0,0.0,0.0,0.0,0.0,0.0,0.0,0.0,0.0,0.0,0.0,0.0,0.0,0.0,0.0,0.0,0.0,0.0,0.0,0.0,0.0,0.0,0.0,0.0,0.0,0.0,0.0,0.0,0.0,0.0,0.0,0.0,0.0,0.0,0.0,0.0,0.0,0.0,0.0,0.0,0.0,0.0,0.0,0.0,0.0,0.0,0.0,0.0,0.0,0.0,0.0,0.0,0.0,0.0,0.0,0.0,0.0,0.0,0.0,0.0,0.0,0.0,0.0,0.0,0.0,0.0,0.0,0.0,0.0,0.0,0.0,0.0,0.0,0.0,0.0,0.0,0.0,0.0,0.0,0.0,0.0,0.0,0.0,0.0,0.0,0.0,0.0,0.0,0.0,0.0,0.0,0.0,0.0,0.0,0.0,0.0,0.0,0.0,0.0,0.0,0.0,0.0,0.0,0.0,0.0,0.0,0.0,0.0,0.0,0.0,0.0,0.0,0.0,0.0,0.0,0.0,0.0,0.0,0.0,0.0,0.0,0.0,0.0,0.0,0.0,0.0,0.0,0.0,0.0,0.0,0.0,0.0,0.0,0.0,0.0,0.0,0.0,0.0,0.0,0.0,0.0,0.0,0.0,0.0,0.0,0.0,0.0,0.0,0.0,0.0,0.0,0.0,0.0,0.0,0.0,0.0,0.0,0.0,0.0,0.0,0.0,0.0,0.0,0.0,0.0,0.0,0.0,0.0,0.0,0.0,0.0,0.0,0.0,0.0,0.0,0.0,0.0,0.0,0.0,0.0,0.0,0.0,0.0,0.0,0.0,0.0,0.0,0.0,0.0,0.0,0.0,0.0,0.0,0.0,0.0,0.0,0.0,0.0,0.0,0.0,0.0,0.0,0.0,0.0,0.0,0.0,0.0,0.0,0.0,0.0,0.0,0.0,0.0,0.0,0.0,0.0,0.0,0.0,0.0,0.0,0.0,0.0,0.0,0.0,0.0,0.0,0.0,0.0,0.0,0.0,0.0,0.0,0.0,0.0,0.0,0.0,0.0,0.0,0.0,0.0,0.0,0.0,0.0,0.0,0.0,0.0,0.0,0.0,0.0,0.0,0.0,0.0,0.0,0.0,0.0,0.0,0.0,0.0,0.0,0.0,0.0,0.0,0.0,0.0,0.0,0.0,0.0,0.0,0.0,0.0,0.0,0.0,0.0,0.0,0.0,0.0,0.0,0.0,0.0,0.0,0.0,0.0,0.0,0.0,0.0,0.0,0.0,0.0,0.0,0.0,0.0,0.0,0.0,0.0,0.0,0.0,0.0,0.0,0.0,0.0,0.0,0.0,0.0,0.0,0.0,0.0,0.0,0.0,0.0,0.0,0.0,0.0,0.0,0.0,0.0,0.0,0.0,0.0,0.0,0.0,0.0,0.0,0.0,0.0,0.0,0.0,-2.4517,0.0,0.0,0.0,0.0,0.0,0.0,0.0,0.0,0.0,0.0,0.0,0.0,0.0,0.0,0.0,0.0,0.0,0.0,0.0,0.0,0.0,0.0,0.0,0.0,0.0,0.0,0.0,0.0,0.0,0.0,0.0,0.0,0.0,0.0,0.0,0.0,0.0,0.0,0.0,0.0,0.0,0.0,0.0,0.0,0.0,0.0,0.0,0.0,0.0,0.0,0.0,0.0,0.0,0.0,0.0,0.0,0.0,0.0,0.0,0.0,0.0,0.0,0.0,0.0,0.0,0.0,0.0,0.0,0.0,0.0,0.0,0.0,0.0,0.0,0.0,0.0,0.0,0.0,0.0,0.0,0.0,0.0,0.0,0.0,0.0,0.0,0.0,0.0,0.0,0.0,0.0,0.0,0.0,0.0,0.0,0.0,0.0,0.0,0.0,0.0,0.0,0.0,0.0,0.0,0.0,0.0,0.0,0.0,0.0,0.0,-2.4543,-2.4949,-2.4542,-2.4375,-2.4447,0.0,0.0,0.0,0.0,0.0,0.0,0.0,0.0,0.0,0.0,0.0,0.0,0.0,0.0,0.0,0.0,0.0,0.0,0.0,0.0,0.0,0.0,0.0,0.0,0.0,0.0,0.0,0.0,0.0,0.0,0.0,0.0,0.0,0.0,0.0,0.0,0.0,0.0,0.0,0.0,0.0,0.0,0.0,0.0,0.0,0.0,0.0,0.0,0.0,0.0,0.0,0.0,0.0,0.0,0.0,0.0,0.0,0.0,0.0,0.0,0.0,0.0,0.0,0.0,0.0,0.0,0.0,0.0,0.0,0.0,0.0,0.0,0.0,0.0,0.0,0.0,0.0,0.0,0.0,0.0,0.0,0.0,0.0,0.0,0.0,0.0,0.0,0.0,0.0,0.0,0.0,0.0,0.0,0.0,0.0,0.0,0.0,0.0,0.0,0.0,0.0,0.0,0.0,0.0,0.0,0.0,0.0,0.0,0.0,0.0,0.0,0.0,-2.4874,-2.4487,-2.4394,0.0,0.0,0.0,0.0,0.0,0.0,0.0,0.0,0.0,0.0,0.0,0.0,0.0,0.0,0.0,0.0,0.0,0.0,0.0,0.0,0.0,0.0,0.0,0.0,0.0,0.0,0.0,0.0,0.0,0.0,0.0,0.0,0.0,0.0,0.0,0.0,0.0,0.0,0.0,0.0,0.0,0.0,0.0,0.0,0.0,0.0,0.0,0.0,0.0,0.0,0.0,0.0,0.0,0.0,0.0,0.0,0.0,0.0,0.0,0.0,0.0,0.0,0.0,0.0,0.0,0.0,0.0,0.0,0.0,0.0,0.0,0.0,0.0,0.0,0.0,0.0,0.0,0.0,0.0,0.0,0.0,0.0,0.0,0.0,0.0,0.0,0.0,0.0,0.0,0.0,0.0,0.0,0.0,0.0,0.0,0.0,0.0,0.0,0.0,0.0,0.0,0.0,0.0,0.0,0.0,0.0,0.0,0.0,0.0,0.0,-2.6082,-2.5421,-2.5329,0.0,-2.4377,0.0,0.0,0.0,0.0,0.0,0.0,0.0,0.0,0.0,0.0,0.0,0.0,0.0,0.0,0.0,0.0,0.0,0.0,0.0,0.0,0.0,0.0,0.0,0.0,0.0,0.0,0.0,0.0,0.0,0.0,0.0,0.0,0.0,0.0,0.0,0.0,0.0,0.0,0.0,0.0,0.0,0.0,0.0,0.0,0.0,0.0,0.0,0.0,0.0,0.0,0.0,0.0,0.0,0.0,0.0,0.0,0.0,0.0,0.0,0.0,0.0,0.0,0.0,0.0,0.0,0.0,0.0,0.0,0.0,0.0,0.0,0.0,0.0,0.0,0.0,0.0,0.0,0.0,0.0,0.0,0.0,0.0,0.0,0.0,0.0,0.0,0.0,0.0,0.0,0.0,0.0,0.0,0.0,0.0,0.0,0.0,0.0,0.0,0.0,0.0,0.0,0.0,0.0,0.0,0.0,0.0,0.0,0.0,0.0,0.0,-2.656,-2.6688,-2.5834,-2.4997,0.0,0.0,0.0,0.0,0.0,0.0,0.0,0.0,0.0,0.0,0.0,0.0,0.0,0.0,0.0,0.0,0.0,0.0,0.0,0.0,0.0,0.0,0.0,0.0,0.0,0.0,0.0,0.0,0.0,0.0,0.0,0.0,0.0,0.0,0.0,0.0,0.0,0.0,0.0,0.0,0.0,0.0,0.0,0.0,0.0,0.0,0.0,0.0,0.0,0.0,0.0,0.0,0.0,0.0,0.0,0.0,0.0,0.0,0.0,0.0,0.0,0.0,0.0,0.0,0.0,0.0,0.0,0.0,0.0,0.0,0.0,0.0,0.0,0.0,0.0,0.0,0.0,0.0,0.0,0.0,0.0,0.0,0.0,0.0,0.0,0.0,0.0,0.0,0.0,0.0,0.0,0.0,0.0,0.0,0.0,0.0,0.0,0.0,0.0,0.0,0.0,0.0,0.0,0.0,0.0,0.0,0.0,0.0,0.0,0.0,-2.726,-2.7132,-2.7187,-2.599,-2.4919,-2.4228,0.0,0.0,0.0,0.0,0.0,0.0,0.0,0.0,0.0,0.0,0.0,0.0,0.0,0.0,0.0,0.0,0.0,0.0,0.0,0.0,0.0,0.0,0.0,0.0,0.0,0.0,0.0,0.0,0.0,0.0,0.0,0.0,0.0,0.0,0.0,0.0,0.0,0.0,0.0,0.0,0.0,0.0,0.0,0.0,0.0,0.0,0.0,0.0,0.0,0.0,0.0,0.0,0.0,0.0,0.0,0.0,0.0,0.0,0.0,0.0,0.0,0.0,0.0,0.0,0.0,0.0,0.0,0.0,0.0,0.0,0.0,0.0,0.0,0.0,0.0,0.0,0.0,0.0,0.0,0.0,0.0,0.0,0.0,0.0,0.0,0.0,0.0,0.0,0.0,0.0,0.0,0.0,0.0,0.0,0.0,0.0,0.0,0.0,0.0,0.0,0.0,0.0,0.0,0.0,0.0,0.0,0.0,0.0,-2.7606,-2.8275,-2.7989,-2.6512,-2.5655,-2.4876,0.0,0.0,0.0,0.0,0.0,0.0,0.0,0.0,0.0,0.0,0.0,0.0,0.0,0.0,0.0,0.0,0.0,0.0,0.0,0.0,0.0,0.0,0.0,0.0,0.0,0.0,0.0,0.0,0.0,0.0,0.0,0.0,0.0,0.0,0.0,0.0,0.0,0.0,0.0,0.0,0.0,0.0,0.0,0.0,0.0,0.0,0.0,0.0,0.0,0.0,0.0,0.0,0.0,0.0,0.0,0.0,0.0,0.0,0.0,0.0,0.0,0.0,0.0,0.0,0.0,0.0,0.0,0.0,0.0,0.0,0.0,0.0,0.0,0.0,0.0,0.0,0.0,0.0,0.0,0.0,0.0,0.0,0.0,0.0,0.0,0.0,0.0,0.0,0.0,0.0,0.0,0.0,0.0,0.0,0.0,0.0,0.0,0.0,0.0,0.0,0.0,0.0,0.0,0.0,0.0,0.0,0.0,0.0,0.0,-2.8209,-2.8442,-2.8012,-2.6947,-2.6227,-2.5514,0.0,0.0,0.0,0.0,0.0,0.0,0.0,0.0,0.0,0.0,0.0,0.0,0.0,0.0,0.0,0.0,0.0,0.0,0.0,0.0,0.0,0.0,0.0,0.0,0.0,0.0,0.0,0.0,0.0,0.0,0.0,0.0,0.0,0.0,0.0,0.0,0.0,0.0,0.0,0.0,0.0,0.0,0.0,0.0,0.0,0.0,0.0,0.0,0.0,0.0,0.0,0.0,0.0,0.0,0.0,0.0,0.0,0.0,0.0,0.0,0.0,0.0,0.0,0.0,0.0,0.0,0.0,0.0,0.0,0.0,0.0,0.0,0.0,0.0,0.0,0.0,0.0,0.0,0.0,0.0,0.0,0.0,0.0,0.0,0.0,0.0,0.0,0.0,0.0,0.0,0.0,0.0,0.0,0.0,0.0,0.0,0.0,0.0,0.0,0.0,0.0,0.0,0.0,0.0,0.0,0.0,0.0,0.0,0.0,-2.85,0.0,-2.8003,-2.7194,-2.6519,-2.5778,0.0,0.0,0.0,0.0,0.0,0.0,0.0,0.0,0.0,0.0,0.0,0.0,0.0,0.0,0.0,0.0,0.0,0.0,0.0,0.0,0.0,0.0,0.0,0.0,0.0,0.0,0.0,0.0,0.0,0.0,0.0,0.0,0.0,0.0,0.0,0.0,0.0,0.0,0.0,0.0,0.0,0.0,0.0,0.0,0.0,0.0,0.0,0.0,0.0,0.0,0.0,0.0,0.0,0.0,0.0,0.0,0.0,0.0,0.0,0.0,0.0,0.0,0.0,0.0,0.0,0.0,0.0,0.0,0.0,0.0,0.0,0.0,0.0,0.0,0.0,0.0,0.0,0.0,0.0,0.0,0.0,0.0,0.0,0.0,0.0,0.0,0.0,0.0,0.0,0.0,0.0,0.0,0.0,0.0,0.0,0.0,0.0,0.0,0.0,0.0,0.0,0.0,0.0,0.0,0.0,0.0,0.0,0.0,-2.7691,-2.8344,-2.838,-2.8021,-2.7212,-2.6458,-2.5715,0.0,0.0,0.0,0.0,0.0,0.0,0.0,0.0,0.0,0.0,0.0,0.0,0.0,0.0,0.0,0.0,0.0,0.0,0.0,0.0,0.0,0.0,0.0,0.0,0.0,0.0,0.0,0.0,0.0,0.0,0.0,0.0,0.0,0.0,0.0,0.0,0.0,0.0,0.0,0.0,0.0,0.0,0.0,0.0,0.0,0.0,0.0,0.0,0.0,0.0,0.0,0.0,0.0,0.0,0.0,0.0,0.0,0.0,0.0,0.0,0.0,0.0,0.0,0.0,0.0,0.0,0.0,0.0,0.0,0.0,0.0,0.0,0.0,0.0,0.0,0.0,0.0,0.0,0.0,0.0,0.0,0.0,0.0,0.0,0.0,0.0,0.0,0.0,0.0,0.0,0.0,0.0,0.0,0.0,0.0,0.0,0.0,0.0,0.0,0.0,0.0,0.0,0.0,0.0,0.0,0.0,0.0,0.0,0.0,-2.8246,-2.8182,-2.8002,-2.7753,-2.7067,-2.6315,0.0,0.0,0.0,0.0,0.0,0.0,0.0,0.0,0.0,0.0,0.0,0.0,0.0,0.0,0.0,0.0,0.0,0.0,0.0,0.0,0.0,0.0,0.0,0.0,0.0,0.0,0.0,0.0,0.0,0.0,0.0,0.0,0.0,0.0,0.0,0.0,0.0,0.0,0.0,0.0,0.0,0.0,0.0,0.0,0.0,0.0,0.0,0.0,0.0,0.0,0.0,0.0,0.0,0.0,0.0,0.0,0.0,0.0,0.0,0.0,0.0,0.0,0.0,0.0,0.0,0.0,0.0,0.0,0.0,0.0,0.0,0.0,0.0,0.0,0.0,0.0,0.0,0.0,0.0,0.0,0.0,0.0,0.0,0.0,0.0,0.0,0.0,0.0,0.0,0.0,0.0,0.0,0.0,0.0,0.0,0.0,0.0,0.0,0.0,0.0,0.0,0.0,0.0,0.0,0.0,0.0,0.0,0.0,0.0,-2.8088,-2.824,-2.8182,-2.794,-2.749,-2.6934,-2.6257,0.0,0.0,0.0,0.0,0.0,0.0,0.0,0.0,0.0,0.0,0.0,0.0,0.0,0.0,0.0,0.0,0.0,0.0,0.0,0.0,0.0,0.0,0.0,0.0,0.0,0.0,0.0,0.0,0.0,0.0,0.0,0.0,0.0,0.0,0.0,0.0,0.0,0.0,0.0,0.0,0.0,0.0,0.0,0.0,0.0,0.0,0.0,0.0,0.0,0.0,0.0,0.0,0.0,0.0,0.0,0.0,0.0,0.0,0.0,0.0,0.0,0.0,0.0,0.0,0.0,0.0,0.0,0.0,0.0,0.0,0.0,0.0,0.0,0.0,0.0,0.0,0.0,0.0,0.0,0.0,0.0,0.0,0.0,0.0,0.0,0.0,0.0,0.0,0.0,0.0,0.0,0.0,0.0,0.0,0.0,0.0,0.0,0.0,0.0,0.0,0.0,0.0,0.0,0.0,0.0,0.0,0.0,0.0,-2.7888,-2.8526,-2.8531,-2.7912,-2.7783,-2.7518,0.0,0.0,0.0,0.0,0.0,0.0,0.0,0.0,0.0,0.0,0.0,0.0,0.0,0.0,0.0,0.0,0.0,0.0,0.0,0.0,0.0,0.0,0.0,0.0,0.0,0.0,0.0,0.0,0.0,0.0,0.0,0.0,0.0,0.0,0.0,0.0,0.0,0.0,0.0,0.0,0.0,0.0,0.0,0.0,0.0,0.0,0.0,0.0,0.0,0.0,0.0,0.0,0.0,0.0,0.0,0.0,0.0,0.0,0.0,0.0,0.0,0.0,0.0,0.0,0.0,0.0,0.0,0.0,0.0,0.0,0.0,0.0,0.0,0.0,0.0,0.0,0.0,0.0,0.0,0.0,0.0,0.0,0.0,0.0,0.0,0.0,0.0,0.0,0.0,0.0,0.0,0.0,0.0,0.0,0.0,0.0,0.0,0.0,0.0,0.0,0.0,0.0,0.0,0.0,0.0,0.0,0.0,0.0,0.0,-2.7818,-2.883,-2.9114,-2.8539,-2.8099,-2.7765,0.0,0.0,0.0,0.0,0.0,0.0,0.0,0.0,0.0,0.0,0.0,0.0,0.0,0.0,0.0,0.0,0.0,0.0,0.0,0.0,0.0,0.0,0.0,0.0,0.0,0.0,0.0,0.0,0.0,0.0,0.0,0.0,0.0,0.0,0.0,0.0,0.0,0.0,0.0,0.0,0.0,0.0,0.0,0.0,0.0,0.0,0.0,0.0,0.0,0.0,0.0,0.0,0.0,0.0,0.0,0.0,0.0,0.0,0.0,0.0,0.0,0.0,0.0,0.0,0.0,0.0,0.0,0.0,0.0,0.0,0.0,0.0,0.0,0.0,0.0,0.0,0.0,0.0,0.0,0.0,0.0,0.0,0.0,0.0,0.0,0.0,0.0,0.0,0.0,0.0,0.0,0.0,0.0,0.0,0.0,0.0,0.0,0.0,0.0,0.0,0.0,0.0,0.0,0.0,0.0,0.0,0.0,0.0,-2.8636,-2.8119,-2.8818,-2.9032,-2.8697,-2.8369,-2.8117,0.0,0.0,0.0,0.0,0.0,0.0,0.0,0.0,0.0,0.0,0.0,0.0,0.0,0.0,0.0,0.0,0.0,0.0,0.0,0.0,0.0,0.0,0.0,0.0,0.0,0.0,0.0,0.0,0.0,0.0,0.0,0.0,0.0,0.0,0.0,0.0,0.0,0.0,0.0,0.0,0.0,0.0,0.0,0.0,0.0,0.0,0.0,0.0,0.0,0.0,0.0,0.0,0.0,0.0,0.0,0.0,0.0,0.0,0.0,0.0,0.0,0.0,0.0,0.0,0.0,0.0,0.0,0.0,0.0,0.0,0.0,0.0,0.0,0.0,0.0,0.0,0.0,0.0,0.0,0.0,0.0,0.0,0.0,0.0,0.0,0.0,0.0,0.0,0.0,0.0,0.0,0.0,0.0,0.0,0.0,0.0,0.0,0.0,0.0,0.0,0.0,0.0,0.0,0.0,0.0,0.0,0.0,0.0,-2.8924,-2.8749,-2.8699,-2.865,-2.8516,-2.8511,-2.8369,0.0,0.0,0.0,0.0,0.0,0.0,0.0,0.0,0.0,0.0,0.0,0.0,0.0,0.0,0.0,0.0,0.0,0.0,0.0,0.0,0.0,0.0,0.0,0.0,0.0,0.0,0.0,0.0,0.0,0.0,0.0,0.0,0.0,0.0,0.0,0.0,0.0,0.0,0.0,0.0,0.0,0.0,0.0,0.0,0.0,0.0,0.0,0.0,0.0,0.0,0.0,0.0,0.0,0.0,0.0,0.0,0.0,0.0,0.0,0.0,0.0,0.0,0.0,0.0,0.0,0.0,0.0,0.0,0.0,0.0,0.0,0.0,0.0,0.0,0.0,0.0,0.0,0.0,0.0,0.0,0.0,0.0,0.0,0.0,0.0,0.0,0.0,0.0,0.0,0.0,0.0,0.0,0.0,0.0,0.0,0.0,0.0,0.0,0.0,0.0,0.0,0.0,0.0,0.0,0.0,0.0,0.0,0.0,-2.9582,-2.9549,-2.945,-2.9138,-2.8595,-2.8053,-2.8041,0.0,0.0,0.0,0.0,0.0,0.0,0.0,0.0,0.0,0.0,0.0,0.0,0.0,0.0,0.0,0.0,0.0,0.0,0.0,0.0,0.0,0.0,0.0,0.0,0.0,0.0,0.0,0.0,0.0,0.0,0.0,0.0,0.0,0.0,0.0,0.0,0.0,0.0,0.0,0.0,0.0,0.0,0.0,0.0,0.0,0.0,0.0,0.0,-2.7558,0.0,0.0,0.0,0.0,0.0,0.0,0.0,0.0,0.0,0.0,0.0,0.0,0.0,0.0,0.0,0.0,0.0,0.0,0.0,0.0,0.0,0.0,0.0,0.0,0.0,0.0,0.0,0.0,0.0,0.0,0.0,0.0,0.0,0.0,0.0,0.0,0.0,0.0,0.0,0.0,0.0,0.0,0.0,0.0,0.0,0.0,0.0,0.0,0.0,0.0,0.0,0.0,0.0,0.0,0.0,0.0,0.0,0.0,0.0,-2.9155,-2.9122,-2.9056,-2.8676,-2.8014,-2.7927,-2.8053,0.0,0.0,0.0,0.0,0.0,0.0,0.0,0.0,0.0,0.0,0.0,0.0,0.0,0.0,0.0,0.0,0.0,0.0,0.0,0.0,0.0,0.0,0.0,0.0,0.0,0.0,0.0,0.0,0.0,0.0,0.0,0.0,0.0,0.0,0.0,0.0,0.0,0.0,0.0,0.0,0.0,0.0,0.0,0.0,0.0,0.0,0.0,0.0,0.0,0.0,0.0,0.0,0.0,0.0,0.0,0.0,0.0,0.0,0.0,0.0,0.0,0.0,0.0,0.0,0.0,0.0,0.0,0.0,0.0,0.0,0.0,0.0,0.0,0.0,0.0,0.0,0.0,0.0,0.0,0.0,0.0,0.0,0.0,0.0,0.0,0.0,0.0,0.0,0.0,0.0,0.0,0.0,0.0,0.0,0.0,0.0,0.0,0.0,0.0,0.0,0.0,0.0,0.0,0.0,0.0,0.0,0.0,-2.858,-2.852,-2.8575,-2.8454,-2.8144,-2.7661,-2.828,-2.8407,-2.8018,0.0,0.0,0.0,0.0,0.0,0.0,0.0,0.0,0.0,0.0,0.0,0.0,0.0,0.0,0.0,0.0,0.0,0.0,0.0,0.0,0.0,0.0,0.0,0.0,0.0,0.0,0.0,0.0,0.0,0.0,0.0,0.0,0.0,0.0,0.0,0.0,0.0,0.0,-2.7427,-2.7327,0.0,0.0,0.0,0.0,0.0,0.0,0.0,0.0,-2.7669,0.0,0.0,0.0,0.0,0.0,0.0,0.0,0.0,0.0,0.0,0.0,0.0,0.0,0.0,0.0,0.0,0.0,0.0,0.0,0.0,0.0,0.0,0.0,0.0,0.0,0.0,0.0,0.0,0.0,0.0,0.0,0.0,0.0,0.0,0.0,0.0,0.0,0.0,0.0,0.0,0.0,0.0,0.0,0.0,0.0,0.0,0.0,0.0,0.0,0.0,0.0,0.0,0.0,0.0,0.0,0.0,-2.861,-2.8548,-2.8762,-2.9282,-2.8713,-2.8644,-2.911,-2.9383,-2.9253,-2.8772,0.0,0.0,0.0,0.0,0.0,0.0,0.0,0.0,0.0,0.0,0.0,0.0,0.0,0.0,0.0,0.0,0.0,0.0,0.0,0.0,0.0,0.0,0.0,0.0,0.0,0.0,0.0,0.0,0.0,0.0,0.0,0.0,0.0,0.0,0.0,0.0,0.0,0.0,0.0,-2.7459,-2.7666,0.0,0.0,0.0,0.0,0.0,0.0,0.0,0.0,-2.7625,0.0,0.0,0.0,0.0,0.0,0.0,0.0,0.0,0.0,0.0,0.0,0.0,0.0,0.0,0.0,0.0,0.0,0.0,0.0,0.0,0.0,0.0,0.0,0.0,0.0,0.0,0.0,0.0,0.0,0.0,0.0,0.0,0.0,0.0,0.0,0.0,0.0,0.0,0.0,0.0,0.0,0.0,0.0,0.0,0.0,0.0,0.0,0.0,0.0,0.0,0.0,0.0,0.0,0.0,0.0,-2.799,-2.8293,-2.8591,-2.892,-2.8972,-2.9178,-2.9592,-3.004,-2.9861,0.0,0.0,0.0,0.0,0.0,0.0,0.0,0.0,0.0,0.0,0.0,0.0,0.0,0.0,0.0,0.0,0.0,0.0,0.0,0.0,0.0,0.0,0.0,0.0,0.0,0.0,0.0,0.0,0.0,0.0,0.0,0.0,0.0,0.0,0.0,0.0,0.0,0.0,0.0,0.0,-2.7747,-2.7869,-2.7284,0.0,0.0,0.0,0.0,0.0,0.0,-2.7587,-2.7669,0.0,0.0,0.0,0.0,0.0,0.0,0.0,0.0,0.0,0.0,0.0,0.0,0.0,0.0,0.0,0.0,0.0,0.0,0.0,0.0,0.0,0.0,0.0,0.0,0.0,0.0,0.0,0.0,0.0,0.0,0.0,0.0,0.0,0.0,0.0,0.0,0.0,0.0,0.0,0.0,0.0,0.0,0.0,0.0,0.0,0.0,0.0,0.0,0.0,0.0,0.0,0.0,0.0,0.0,0.0,-2.7442,-2.7917,-2.8247,-2.842,-2.8972,-2.9471,-2.9885,-3.0404,-3.0173,0.0,0.0,0.0,0.0,0.0,0.0,0.0,0.0,0.0,0.0,0.0,0.0,0.0,0.0,0.0,0.0,0.0,0.0,0.0,0.0,0.0,0.0,0.0,0.0,0.0,0.0,0.0,0.0,0.0,0.0,0.0,0.0,0.0,0.0,0.0,0.0,0.0,0.0,0.0,0.0,0.0,-2.7723,-2.6978,-2.7249,0.0,0.0,0.0,0.0,-2.7284,-2.7487,0.0,0.0,0.0,0.0,0.0,0.0,0.0,0.0,0.0,0.0,0.0,0.0,0.0,0.0,0.0,0.0,0.0,0.0,0.0,0.0,0.0,0.0,0.0,0.0,0.0,0.0,0.0,0.0,0.0,0.0,0.0,0.0,0.0,0.0,0.0,0.0,0.0,0.0,0.0,0.0,0.0,0.0,0.0,0.0,0.0,0.0,0.0,0.0,0.0,0.0,0.0,0.0,0.0,0.0,0.0,0.0,-2.7425,-2.74,-2.7747,-2.8368,-2.8489,-2.9195,-3.0595,-3.0244,-3.0039,0.0,0.0,0.0,0.0,0.0,0.0,0.0,0.0,0.0,0.0,0.0,0.0,0.0,0.0,0.0,0.0,0.0,0.0,0.0,0.0,0.0,0.0,0.0,0.0,0.0,0.0,0.0,0.0,0.0,0.0,0.0,0.0,0.0,0.0,0.0,0.0,0.0,0.0,0.0,0.0,0.0,-2.6893,-2.6657,-2.6656,-2.662,0.0,0.0,-2.709,-2.83,-2.755,0.0,0.0,0.0,0.0,0.0,0.0,0.0,0.0,0.0,0.0,0.0,0.0,0.0,0.0,0.0,0.0,0.0,0.0,0.0,0.0,0.0,0.0,0.0,0.0,0.0,0.0,0.0,0.0,0.0,0.0,0.0,0.0,0.0,0.0,0.0,0.0,0.0,0.0,0.0,0.0,0.0,0.0,0.0,0.0,0.0,0.0,0.0,0.0,0.0,0.0,0.0,0.0,0.0,0.0,0.0,-2.7513,-2.7425,-2.7823,-2.8187,-2.8516,-2.8949,-2.9553,-3.0279,-3.0082,-2.9839,0.0,0.0,0.0,0.0,0.0,0.0,0.0,0.0,0.0,0.0,0.0,0.0,0.0,0.0,0.0,0.0,0.0,0.0,0.0,0.0,0.0,0.0,0.0,0.0,0.0,0.0,0.0,0.0,0.0,0.0,0.0,0.0,0.0,0.0,0.0,0.0,0.0,0.0,0.0,0.0,0.0,0.0,-2.6621,-2.6749,0.0,0.0,0.0,-2.7064,-2.7406,0.0,0.0,0.0,0.0,0.0,0.0,0.0,0.0,0.0,0.0,0.0,0.0,0.0,0.0,0.0,0.0,0.0,0.0,0.0,0.0,0.0,0.0,0.0,0.0,0.0,0.0,0.0,0.0,0.0,0.0,0.0,0.0,0.0,0.0,0.0,0.0,0.0,0.0,0.0,0.0,0.0,0.0,0.0,0.0,0.0,0.0,0.0,0.0,0.0,0.0,0.0,0.0,0.0,0.0,0.0,0.0,0.0,-2.7425,-2.8007,-2.8418,-2.861,-2.9201,-2.9617,-2.9872,-2.9618,0.0,0.0,0.0,0.0,0.0,0.0,0.0,0.0,0.0,0.0,0.0,0.0,0.0,0.0,0.0,0.0,0.0,0.0,0.0,0.0,0.0,0.0,0.0,0.0,0.0,0.0,0.0,-2.6557,0.0,0.0,0.0,0.0,0.0,0.0,0.0,0.0,0.0,0.0,0.0,0.0,0.0,0.0,-2.7142,-2.6552,-2.6795,-2.6872,0.0,0.0,-2.6992,-2.6768,-2.7002,-2.7209,0.0,0.0,0.0,0.0,0.0,0.0,0.0,0.0,0.0,0.0,0.0,0.0,0.0,0.0,0.0,0.0,0.0,0.0,0.0,0.0,0.0,0.0,0.0,0.0,0.0,0.0,0.0,0.0,0.0,0.0,0.0,0.0,0.0,0.0,0.0,0.0,0.0,0.0,0.0,0.0,0.0,0.0,0.0,0.0,0.0,0.0,0.0,0.0,0.0,0.0,0.0,0.0,0.0,0.0,-2.7544,-2.7407,-2.7535,-2.7914,-2.8575,-2.8662,-2.9059,-2.9854,-2.8692,-2.8428,0.0,0.0,0.0,0.0,0.0,0.0,0.0,0.0,0.0,0.0,0.0,0.0,0.0,0.0,0.0,0.0,0.0,0.0,0.0,0.0,0.0,0.0,0.0,0.0,0.0,0.0,0.0,0.0,0.0,0.0,0.0,0.0,0.0,0.0,0.0,0.0,0.0,0.0,0.0,0.0,0.0,-2.6519,-2.6347,-2.6345,-2.6327,0.0,-2.6291,-2.6595,-2.7228,-2.69,-2.6858,-2.7691,0.0,0.0,0.0,0.0,0.0,0.0,0.0,0.0,0.0,0.0,0.0,0.0,0.0,0.0,0.0,0.0,0.0,0.0,0.0,0.0,0.0,0.0,0.0,0.0,0.0,0.0,0.0,0.0,0.0,0.0,0.0,0.0,0.0,0.0,0.0,0.0,0.0,0.0,0.0,0.0,0.0,0.0,0.0,0.0,0.0,0.0,0.0,0.0,0.0,0.0,0.0,0.0,0.0,-2.76,-2.7544,-2.76,-2.777,-2.8049,-2.8067,-2.8237,-2.8662,-2.7809,-2.778,0.0,0.0,0.0,0.0,0.0,0.0,0.0,0.0,0.0,0.0,0.0,0.0,0.0,0.0,0.0,0.0,0.0,0.0,0.0,0.0,0.0,0.0,0.0,0.0,0.0,0.0,0.0,0.0,-2.696,-2.7581,-2.7274,0.0,0.0,0.0,0.0,0.0,0.0,0.0,0.0,0.0,0.0,-2.6671,-2.6983,-2.6614,0.0,0.0,-2.6676,-2.6892,-2.685,-2.7002,-2.7293,-2.7825,-2.7777,0.0,0.0,0.0,0.0,0.0,0.0,0.0,0.0,0.0,0.0,0.0,0.0,0.0,0.0,0.0,0.0,0.0,0.0,0.0,0.0,0.0,0.0,0.0,0.0,0.0,0.0,0.0,0.0,0.0,0.0,0.0,0.0,0.0,0.0,0.0,0.0,0.0,0.0,0.0,0.0,0.0,0.0,0.0,0.0,0.0,0.0,0.0,0.0,0.0,0.0,0.0,0.0,-2.7719,-2.763,-2.7672,-2.7701,-2.7701,-2.7742,-2.7853,-2.7911,-2.7157,-2.7154,0.0,0.0,0.0,0.0,0.0,0.0,0.0,0.0,0.0,0.0,0.0,0.0,0.0,0.0,0.0,0.0,0.0,0.0,0.0,0.0,0.0,0.0,0.0,0.0,0.0,0.0,0.0,0.0,-2.7405,-2.7853,-2.7557,0.0,0.0,0.0,0.0,0.0,0.0,0.0,0.0,0.0,0.0,-2.731,-2.7453,-2.7016,-2.6632,-2.6519,-2.7033,-2.7264,-2.6922,-2.7477,-2.8037,-2.8232,0.0,0.0,0.0,0.0,0.0,0.0,0.0,0.0,0.0,0.0,0.0,0.0,0.0,0.0,0.0,0.0,0.0,0.0,0.0,0.0,0.0,0.0,0.0,0.0,0.0,0.0,0.0,-2.9017,0.0,0.0,-2.92,0.0,0.0,0.0,0.0,0.0,0.0,0.0,0.0,0.0,0.0,0.0,0.0,0.0,0.0,0.0,0.0,0.0,0.0,0.0,0.0,0.0,0.0,-2.7842,-2.7719,-2.7701,-2.7701,-2.773,-2.7893,-2.7996,-2.7979,-2.6795,-2.6477,-2.7313,0.0,0.0,0.0,0.0,0.0,0.0,0.0,0.0,0.0,0.0,0.0,0.0,0.0,0.0,0.0,0.0,0.0,0.0,0.0,0.0,0.0,0.0,0.0,0.0,0.0,0.0,-2.829,-2.7971,-2.7612,0.0,0.0,0.0,0.0,0.0,0.0,0.0,0.0,0.0,-2.8803,-2.874,-2.836,-2.7637,-2.7504,-2.7253,-2.6636,-2.7244,-2.7717,-2.7683,-2.8378,-2.8994,0.0,0.0,0.0,0.0,0.0,0.0,0.0,0.0,0.0,0.0,0.0,0.0,0.0,0.0,0.0,0.0,0.0,0.0,0.0,0.0,0.0,0.0,0.0,0.0,0.0,0.0,0.0,-2.9734,-2.9661,0.0,0.0,0.0,0.0,0.0,0.0,0.0,0.0,0.0,0.0,0.0,-3.0267,-3.0477,0.0,0.0,0.0,0.0,0.0,0.0,0.0,0.0,0.0,0.0,0.0,0.0,-2.7957,-2.7968,-2.794,-2.795,-2.8017,-2.8109,-2.8164,-2.8174,-2.686,-2.639,-2.6822,0.0,0.0,0.0,0.0,0.0,0.0,0.0,0.0,0.0,0.0,0.0,0.0,0.0,0.0,0.0,0.0,0.0,0.0,0.0,0.0,0.0,0.0,0.0,0.0,0.0,-2.838,0.0,0.0,0.0,0.0,0.0,0.0,0.0,0.0,0.0,0.0,-2.8475,-2.8929,-2.9509,-2.9168,-2.8949,-2.9076,-2.8652,-2.832,0.0,0.0,0.0,0.0,0.0,0.0,0.0,0.0,0.0,0.0,0.0,0.0,0.0,0.0,-3.4195,-3.4172,-3.416,-3.416,-3.4261,0.0,0.0,0.0,0.0,0.0,0.0,0.0,0.0,0.0,0.0,0.0,0.0,0.0,0.0,-3.0351,0.0,-3.0391,0.0,0.0,0.0,0.0,0.0,0.0,0.0,0.0,-3.049,-3.0636,-3.103,-3.1302,-3.1373,0.0,-3.1596,-3.174,0.0,0.0,0.0,0.0,0.0,0.0,0.0,0.0,-2.8574,-2.8574,-2.8279,-2.8136,-2.8201,-2.8246,-2.83,-2.8291,-2.7001,-2.6376,-2.6633,-2.7214,-2.7943,0.0,0.0,0.0,0.0,0.0,0.0,0.0,0.0,0.0,0.0,0.0,0.0,0.0,0.0,0.0,0.0,0.0,0.0,0.0,0.0,0.0,0.0,0.0,-2.83,0.0,0.0,0.0,0.0,0.0,0.0,0.0,0.0,0.0,-2.8851,-2.9223,-2.9692,-3.0268,-3.0002,-2.9837,-2.9985,0.0,0.0,0.0,0.0,0.0,0.0,0.0,-3.0879,-3.1113,-3.1307,-3.1932,-3.3359,-3.4537,-3.5181,-3.4793,0.0,0.0,-3.4436,-3.4261,-3.4334,-3.4677,-3.4255,-3.3953,-3.4261,-3.3633,-3.3071,0.0,0.0,0.0,0.0,0.0,0.0,0.0,0.0,-3.0704,-3.0814,0.0,-3.0859,0.0,0.0,0.0,0.0,-3.0494,-3.1279,0.0,0.0,-3.1371,-3.1279,-3.1256,-3.1946,-3.2262,-3.2317,-3.2936,-3.3316,-3.3284,-3.1722,0.0,0.0,0.0,0.0,0.0,0.0,-2.9611,-2.9474,-2.8775,-2.8318,-2.8228,-2.8327,-2.8406,-2.8334,-2.7097,-2.656,-2.673,-2.6769,-2.7204,-2.8104,-2.8899,0.0,0.0,0.0,0.0,0.0,0.0,0.0,0.0,0.0,0.0,0.0,0.0,0.0,0.0,0.0,0.0,0.0,0.0,0.0,0.0,-2.8406,0.0,0.0,0.0,0.0,0.0,0.0,0.0,0.0,0.0,-3.0663,-3.0319,-3.0262,-3.0459,-3.1111,0.0,0.0,0.0,0.0,-2.9963,-2.9484,-3.0036,-3.0554,-3.0554,-3.1301,-3.1949,-3.2021,0.0,0.0,-3.3394,-3.4243,-3.4932,-3.4929,-3.617,-3.6468,-3.4152,-3.3842,-3.3988,-3.4655,-3.4746,-3.502,-3.5666,-3.5005,-3.4502,-3.2956,0.0,0.0,0.0,0.0,-3.1737,-3.1887,-3.2099,-3.2084,-3.2121,-3.2169,-3.2133,0.0,0.0,0.0,0.0,0.0,0.0,-3.1869,-3.2305,-3.2316,-3.2559,-3.3048,-3.3241,-3.3351,-3.3342,-3.3561,-3.3671,-3.3652,-3.3075,-3.2773,-3.2716,0.0,0.0,0.0,0.0,-3.027,-2.9665,-2.9395,-2.9043,-2.8484,-2.8536,-2.8308,-2.7797,-2.7427,-2.7346,-2.7478,-2.7564,-2.8036,-2.8915,-2.9219,0.0,0.0,0.0,0.0,0.0,0.0,0.0,0.0,0.0,0.0,0.0,0.0,0.0,0.0,0.0,0.0,0.0,0.0,0.0,-2.8246,-2.8327,-2.8533,0.0,0.0,0.0,0.0,0.0,0.0,0.0,0.0,0.0,-3.1566,-3.1455,-3.1394,0.0,0.0,-3.1397,-3.1172,-3.1138,-3.111,-3.0959,-3.1263,0.0,-3.1707,-3.2022,-3.2317,-3.2517,-3.3874,-3.4966,-3.523,-3.6431,-3.7272,-3.6813,-3.7088,-3.6996,-3.586,-3.5407,-3.5203,-3.4932,-3.4392,-3.4207,-3.49,-3.4499,-3.4134,-3.3425,-3.3315,-3.2887,-3.2683,-3.2701,-3.2748,-3.2865,-3.301,-3.2896,-3.2932,-3.3099,-3.2945,-3.2754,-3.2563,-3.2588,0.0,0.0,0.0,-3.2366,-3.2741,-3.2741,-3.293,-3.333,-3.3642,-3.3807,-3.3788,-3.378,-3.378,-3.3807,-3.3726,-3.3671,-3.3625,0.0,-3.2848,-3.2802,-3.1692,-3.0891,-3.0418,-2.9755,-2.921,-2.873,-2.8662,-2.8427,-2.8003,-2.7765,-2.7693,-2.7805,-2.7914,-2.8241,-2.8765,-2.9182,-2.9392,0.0,0.0,0.0,0.0,0.0,0.0,0.0,0.0,0.0,0.0,0.0,-2.9351,-2.92,0.0,0.0,0.0,-2.8492,-2.8425,-2.8582,-2.8729,0.0,0.0,0.0,0.0,0.0,0.0,0.0,-3.1744,-3.1767,-3.191,-3.2317,-3.2214,-3.202,-3.1839,-3.1819,-3.1783,-3.1763,0.0,-3.1802,-3.1839,-3.2038,-3.2266,-3.2386,-3.257,-3.2855,-3.3463,-3.486,-3.5915,-3.6157,-3.7259,-3.7912,-3.7624,-3.7496,-3.7239,-3.645,-3.5923,-3.5608,-3.5475,-3.4741,-3.4457,-3.5253,-3.4731,-3.431,-3.329,-3.4031,-3.4181,-3.4218,-3.4197,-3.4123,-3.4031,-3.3876,-3.3185,-3.3278,-3.3876,-3.3276,-3.3345,-3.3931,-3.3981,0.0,-3.2895,-3.2892,-3.2808,-3.273,-3.2705,-3.2656,-3.2566,-3.3301,-3.3632,-3.3632,-3.3578,-3.3578,-3.3613,-3.3613,-3.3695,-3.3828,-3.3579,-3.356,-3.3697,-3.2214,-3.1433,-3.1477,-2.9921,-2.9049,-2.8905,-2.881,-2.8718,-2.8694,-2.8122,-2.7826,-2.7912,-2.8025,-2.8091,-2.8114,-2.892,-2.9388,-2.9392,0.0,0.0,0.0,0.0,0.0,0.0,0.0,0.0,0.0,0.0,0.0,0.0,0.0,0.0,0.0,-2.8639,0.0,-2.9305,-2.9458,0.0,0.0,0.0,-3.0873,-3.1649,-3.172,-3.1941,-3.255,0.0,0.0,-3.2639,-3.2639,-3.2506,-3.2179,-3.2144,-3.2144,-3.2108,-3.2144,-3.2179,-3.2232,-3.2521,-3.2734,-3.2784,-3.2975,-3.3436,-3.4327,-3.5385,-3.5978,-3.6146,-3.6817,-3.7331,-3.736,-3.7415,-3.7195,-3.6431,-3.5642,-3.5275,-3.6038,-3.544,-3.5128,-3.5826,-3.5339,-3.4798,-3.2982,-3.3197,-3.331,-3.3669,-3.4141,-3.3528,-3.3239,-3.3173,-3.3017,-3.3054,-3.3148,-3.3059,-3.3078,-3.3221,-3.3263,-3.3152,-3.2948,-3.2358,-3.208,-3.2034,-3.2034,-3.2034,-3.2006,-3.2173,-3.2265,-3.2284,-3.2307,-3.2307,-3.2265,-3.2236,-3.2575,-3.325,-3.3068,-3.328,-3.3813,-3.2969,-3.2152,-3.1427,-3.0525,-2.9687,-2.8923,-2.891,-2.8887,-2.8785,-2.8675,-2.8636,-2.87,-2.8791,-2.8857,-2.8923,-2.9129,-2.9243,-2.9265,-2.9291,0.0,0.0,0.0,0.0,0.0,0.0,0.0,0.0,0.0,-3.0169,-3.0051,0.0,-3.064,0.0,-3.013,-2.975,-2.9231,-2.9816,0.0,0.0,-3.1403,-3.1724,-3.2509,-3.2585,-3.2638,-3.2816,-3.2834,-3.2834,-3.2852,-3.282,-3.2787,-3.2623,-3.2489,-3.2353,-3.2301,-3.242,-3.2555,-3.2621,-3.2798,-3.3055,-3.319,-3.3415,-3.366,-3.3964,-3.4724,-3.5284,-3.532,-3.6009,-3.6578,-3.6578,-3.6578,-3.6515,-3.6389,-3.5708,-3.5248,-3.5431,-3.4797,-3.4402,-3.5193,-3.4787,-3.4485,-3.305,-3.3383,-3.3451,-3.3716,-3.4049,-3.2906,-3.2405,-3.2423,-3.2794,-3.2739,-3.2405,-3.2493,-3.2515,-3.2515,-3.2538,-3.256,-3.2542,-3.2095,-3.1886,-3.1864,-3.2218,-3.2344,-3.2362,-3.2761,-3.2952,-3.2952,-3.2661,-3.2702,-3.3,-3.2598,-3.2672,-3.319,-3.3078,-3.3208,-3.3549,-3.316,-3.2715,-3.2252,-3.1084,-3.0039,-2.9156,-2.9119,-2.9093,-2.9003,-2.903,-2.9093,-2.9067,-2.9134,-2.9197,-2.924,-2.9283,-2.9283,-2.9265,-2.9328,-2.9498,0.0,0.0,0.0,0.0,0.0,0.0,0.0,0.0,0.0,0.0,0.0,-3.1119,-3.0826,-3.0617,-3.0446,-3.0285,-3.0736,-3.1367,-3.2152,-3.2206,-3.2402,-3.288,-3.2916,-3.2916,-3.2916,-3.2916,-3.2916,-3.2916,-3.2916,-3.2916,-3.2916,-3.2834,-3.2722,-3.2588,-3.2784,-3.2925,-3.2925,-3.2841,-3.2832,-3.3021,-3.3451,-3.3881,-3.4293,-3.5037,-3.5587,-3.5605,-3.6001,-3.6342,-3.6323,-3.6094,-3.5864,-3.5855,-3.521,-3.4703,-3.4626,-3.4053,-3.3806,-3.4444,-3.4356,-3.4216,-3.3222,-3.3832,-3.385,-3.3832,-3.3721,-3.2292,-3.177,-3.1987,-3.2622,-3.2553,-3.1972,-3.2106,-3.2128,-3.2054,-3.212,-3.2123,-3.2123,-3.2051,-3.1952,-3.1946,-3.2639,-3.2933,-3.2901,-3.3705,-3.4068,-3.4068,-3.3462,-3.3524,-3.4223,-3.3505,-3.3222,-3.3296,-3.3296,-3.3331,-3.3381,-3.325,-3.3179,-3.3128,-3.1603,-3.0402,-2.9619,-2.9522,-2.9405,-2.9249,-2.9272,-2.927,-2.92,-2.928,-2.9283,-2.9302,-2.9326,-2.9368,-2.9386,-2.946,-2.985,0.0,-3.0748,0.0,0.0,0.0,0.0,0.0,0.0,0.0,0.0,-3.1445,-3.1256,-3.089,-3.0808,-3.1046,-3.1635,-3.1778,-3.2117,-3.2809,-3.2916,-3.2916,-3.2916,-3.2916,-3.2916,-3.2916,-3.2916,-3.2916,-3.2916,-3.2916,-3.2979,-3.3055,-3.3117,-3.3086,-3.3024,-3.3021,-3.3033,-3.3087,-3.2718,-3.252,-3.2645,-3.3083,-3.3623,-3.4376,-3.4871,-3.5661,-3.545,-3.5579,-3.5699,-3.5653,-3.509,-3.4766,-3.4847,-3.4183,-3.3753,-3.3753,-3.3239,-3.3049,-3.3667,-3.3765,-3.3634,-3.289,-3.3019,-3.3038,-3.3019,-3.2945,-3.1955,-3.1967,-3.2696,-3.2839,-3.2868,-3.2823,-3.3478,-3.3403,-3.2827,-3.2809,-3.2836,-3.2844,-3.221,-3.1952,-3.1976,-3.2144,-3.22,-3.2179,-3.235,-3.2446,-3.2446,-3.2358,-3.2377,-3.2489,-3.2358,-3.2681,-3.3381,-3.3339,-3.3698,-3.4381,0.0,0.0,0.0,-3.1986,-3.1403,-3.058,-3.0523,-3.0146,-2.939,-2.9332,0.0,-2.9283,-2.924,-2.9218,-2.9218,-2.9222,0.0,0.0,0.0,0.0,0.0,0.0,0.0,0.0,0.0,0.0,0.0,-3.3167,-3.3202,-3.2363,-3.2513,-3.2355,-3.1685,-3.2125,-3.2224,-3.176,-3.2277,-3.2737,-3.288,-3.2916,-3.2916,-3.2916,-3.2916,-3.2916,-3.2916,-3.2916,-3.2916,-3.2997,-3.2979,-3.3011,-3.3086,-3.3256,-3.3364,-3.3357,-3.2889,-3.2592,-3.252,-3.251,-3.2543,-3.2588,-3.2173,-3.2015,-3.2118,-3.2224,-3.2488,-3.258,-3.2594,-3.2588,-3.2644,-3.2385,-3.2397,-3.2445,-3.2223,-3.227,-3.2393,-3.2266,-3.2396,-3.3092,-3.278,-3.2362,-3.3305,-3.3305,-3.3305,-3.3287,0.0,-3.2863,-3.2969,-3.342,-3.3037,-3.2985,-3.3123,-3.3142,-3.2922,-3.2549,-3.2552,-3.2577,-3.2598,-3.2617,-3.2617,-3.2673,-3.3069,-3.3216,-3.3194,-3.3237,-3.328,-3.3262,-3.2947,-3.2987,-3.3346,-3.2968,-3.3026,-3.3441,-3.3421,-3.3627,-3.4043,-3.4417,-3.3961,-3.2702,-3.2699,-3.212,-3.0979,-3.0885,-3.049,-2.9645,-2.9532,0.0,0.0,0.0,0.0,0.0,0.0,0.0,0.0,-3.0987,0.0,-3.1831,-3.2199,-3.259,-3.2971,-3.3337,-3.3488,-3.3389,-3.3647,-3.3542,-3.2966,-3.2961,-3.2818,-3.2393,-3.2684,-3.2737,-3.2349,-3.2684,-3.2948,-3.2948,-3.2961,-3.3011,-3.2948,-3.2948,-3.2948,-3.2948,-3.2979,-3.3042,-3.3122,-3.3152,-3.3183,-3.3286,-3.3364,-3.3277,-3.3029,-3.3022,-3.2839,-3.2114,-3.2001,-3.193,-3.1569,-3.1243,-3.1078,-3.1372,-3.1525,-3.1544,-3.1568,-3.1597,-3.1644,-3.1644,-3.1686,-3.1733,-3.1737,-3.1737,-3.1801,-3.1874,-3.1619,-3.1491,-3.196,-3.204,-3.197,-3.3807,-3.3807,-3.3807,-3.3807,-3.3815,-3.3868,-3.3947,-3.4012,-3.3419,0.0,0.0,-3.277,-3.2489,-3.2529,-3.2514,-3.2516,-3.2572,-3.3266,-3.3583,-3.354,-3.4199,-3.4495,-3.4431,-3.4539,-3.4602,-3.4564,-3.4007,-3.4067,-3.4751,-3.4088,-3.3728,-3.3747,-3.3728,-3.3688,-3.3684,-3.4346,-3.4325,-3.3602,-3.3564,-3.2876,-3.1506,-3.1316,-3.0845,-3.0034,-2.9829,-2.9682,-2.9645,-3.0186,-3.0499,-3.0514,-3.1152,-3.1547,-3.1486,-3.1808,-3.2297,-3.2929,-3.3183,-3.3585,-3.4237,-3.4173,-3.4099,-3.4074,-3.3788,-3.3549,-3.3393,-3.3165,-3.3011,-3.2948,-3.2948,-3.2948,-3.2948,-3.2979,-3.3011,-3.3011,-3.3073,-3.3055,-3.3024,-3.2867,-3.2742,-3.2827,-3.2822,-3.2967,-3.3087,-3.3232,-3.3382,-3.3481,-3.3481,-3.3263,-3.283,-3.3077,-3.2975,-3.2052,-3.1746,-3.1335,-3.0775,-3.0319,-3.0508,-3.0932,-3.1099,-3.1172,-3.1214,-3.1261,-3.1306,-3.1158,-3.1333,-3.1299,-3.1355,-3.1244,-3.1399,-3.1464,-3.0984,-3.058,-3.0753,-3.1299,-3.1525,-3.3807,-3.3807,-3.3807,-3.3834,-3.3868,-3.3913,-3.403,-3.4245,-3.4157,-3.4149,-3.4199,-3.4147,-3.4091,-3.4091,-3.4072,-3.4117,-3.418,-3.4292,-3.437,-3.4433,-3.4545,-3.4583,-3.458,-3.4583,-3.4602,-3.4604,-3.4534,-3.4593,-3.4689,-3.4655,-3.4658,-3.4659,-3.4639,-3.4559,-3.4536,-3.4649,-3.463,-3.4496,-3.4557,-3.4147,-3.3242,-3.2562,-3.1769,-3.0864,-3.0166,-2.9755,-2.9701,-2.9757,-2.9718,-2.9679,-2.9791,-2.9847,-2.9884,-3.1248,-3.2051,-3.2238,-3.3407,-3.4157,-3.4203,-3.4179,-3.4148,-3.4023,-3.3788,-3.3605,-3.3422,-3.3196,-3.3086,-3.3068,-3.3055,-3.3086,-3.3055,-3.3086,-3.3104,-3.3086,-3.3068,-3.3086,-3.305,-3.2409,-3.2014,-3.2133,-3.2139,-3.2245,-3.2444,-3.299,-3.3346,-3.3504,-3.3385,-3.3514,-3.3369,-3.2994,-3.2682,-3.2412,-3.1893,-3.152,-3.1046,-3.0153,-2.9662,-2.9492,-2.9684,-2.9839,-2.9817,-2.9882,-2.9925,-2.9776,-2.9927,-2.989,-2.9853,-2.9741,-2.9913,-3.0014,-2.9925,-2.9945,-3.0089,-3.0341,-3.0373,-3.3807,-3.3807,-3.3842,-3.4144,-3.4602,-3.4726,-3.4884,-3.5096,-3.5096,-3.488,-3.4514,-3.4517,-3.4495,-3.4517,-3.4517,-3.4517,-3.4558,-3.4539,-3.458,-3.4602,-3.4602,-3.4602,-3.4602,-3.4645,-3.4645,-3.4623,-3.4708,-3.4747,-3.4708,-3.4768,-3.4827,-3.4829,-3.4827,-3.4807,-3.4809,-3.4827,-3.4809,-3.483,-3.4769,-3.4353,-3.3582,-3.277,-3.1939,-3.107,-3.0242,-2.979,-2.9756,-3.0133,-3.032,-3.0205,-3.0653,-3.0897,-3.0874,-3.1624,-3.2056,-3.2035,-3.2664,-3.303,-3.2966,-3.2878,-3.2988,-3.3296,-3.282,-3.2653,-3.2976,-3.3169,-3.3226,-3.3135,-3.3104,-3.3104,-3.3104,-3.3165,-3.3226,-3.3256,-3.2925,-3.2683,-3.2593,-3.1931,-3.1444,-3.1482,-3.1528,-3.1629,-3.1737,-3.2074,-3.2319,-3.2383,-3.2666,-3.3104,-3.3607,-3.3387,-3.2873,-3.2213,-3.1746,-3.1186,-3.0553,-2.9839,-2.936,-2.9304,-2.9326,-2.9365,-2.9365,-2.9386,-2.9407,-2.9407,-2.9429,-2.9451,-2.947,-2.951,-2.9569,-2.9607,-2.9682,-2.9773,-2.9841,-2.9972,-3.0064,-3.4357,-3.4357,-3.4412,-3.4879,-3.5504,-3.5502,-3.5602,-3.5745,-3.5581,-3.5267,-3.4918,-3.4883,-3.4789,-3.4602,-3.4602,-3.4602,-3.462,-3.4808,-3.4902,-3.4883,-3.4902,-3.4883,-3.4846,-3.4779,-3.4666,-3.4645,-3.4768,-3.4788,-3.4768,-3.479,-3.4829,-3.481,-3.481,-3.4849,-3.4907,-3.4907,-3.4907,-3.4908,-3.4791,-3.4429,-3.3827,-3.2845,-3.2014,-3.139,-3.0371,-2.9825,-2.9846,-3.0413,-3.0678,-3.0601,-3.12,-3.1536,-3.1474,-3.1684,-3.1759,-3.1717,-3.1883,-3.1974,-3.189,-3.176,-3.1945,-3.2471,-3.1918,-3.1734,-3.2284,-3.2721,-3.3042,-3.3166,-3.3256,-3.3238,-3.3202,-3.3087,-3.311,-3.3114,-3.2518,-3.2056,-3.1983,-3.1329,-3.0838,-3.0865,-3.0917,-3.0969,-3.1045,-3.1217,-3.1492,-3.1777,-3.2117,-3.2748,-3.3515,-3.3707,-3.3183,-3.2256,-3.1721,-3.114,-2.9882,-2.9516,-2.9405,-2.9388,-2.9388,-2.9407,-2.9409,-2.9429,-2.9448,-2.9488,-2.953,-2.955,-2.9569,-2.9608,-2.9664,-2.9683,-2.9756,-2.9808,-2.9893,-3.0022,-3.0138,-3.6028,-3.6046,-3.6019,-3.6224,-3.6358,-3.5801,-3.5602,-3.5624,-3.4959,-3.5057,-3.5567,-3.5762,-3.5334,-3.4658,-3.4639,-3.4658,-3.4733,-3.5409,-3.5728,-3.5709,-3.5784,-3.5766,-3.5578,-3.5004,-3.4687,-3.4706,-3.4809,-3.4887,-3.4886,-3.4888,-3.4889,-3.4889,-3.4889,-3.4889,-3.4927,-3.4927,-3.4908,-3.4908,-3.4889,-3.4832,-3.4698,-3.3204,-3.2352,-3.2278,-3.0707,-2.9855,-2.9808,-2.9883,-2.9887,-2.9814,-2.9908,-2.9945,-2.9926,-3.0525,-3.0879,-3.0856,-3.1528,-3.1971,-3.189,-3.1778,-3.1672,-3.1784,-3.1621,-3.1531,-3.1612,-3.1654,-3.2214,-3.3131,-3.3476,-3.3421,-3.3494,-3.2875,-3.2493,-3.2438,-3.1792,-3.13,-3.1209,-3.0537,-3.0072,-3.0173,-3.0148,-3.0154,-3.0308,-3.0791,-3.1543,-3.2129,-3.2269,-3.2763,-3.3615,-3.3762,-3.3495,-3.2698,-3.2066,-3.1339,-3.0475,-2.9768,-2.9572,-2.9463,-2.9407,-2.9448,-2.9471,-2.9511,-2.9531,-2.9607,-2.9683,-2.9683,-2.9664,-2.9683,-2.9701,-2.9756,-2.9809,-2.9859,-3.0007,-3.0128,-3.0213,-3.5844,-3.6303,-3.637,-3.6518,-3.6656,-3.6466,-3.6123,-3.5656,-3.539,-3.5165,-3.5049,-3.5539,-3.5866,-3.6028,-3.5597,-3.5615,-3.601,-3.5428,-3.5127,-3.509,-3.4639,-3.4414,-3.4376,-3.4158,-3.4216,-3.4689,-3.4848,-3.4906,-3.4926,-3.4927,-3.4908,-3.4908,-3.4908,-3.4908,-3.4908,-3.4908,-3.4908,-3.4908,-3.4908,-3.4908,-3.4718,-3.326,-3.2391,-3.2184,-3.073,-2.9842,-2.9808,-2.9771,-2.9718,-2.9683,-2.9683,-2.9645,-2.9607,-2.9926,-3.0055,-2.9975,-3.0251,-3.0658,-3.1102,-3.0649,-3.0553,-3.0999,-3.0587,-3.0469,-3.0882,-3.0895,-3.1347,-3.2206,-3.2342,-3.2281,-3.2237,-3.1936,-3.1735,-3.1652,-3.1031,-3.0581,-3.0588,-2.9887,-2.9417,-2.9423,-2.9423,-2.9441,-2.9507,-2.9787,-3.054,-3.1549,-3.1916,-3.2412,-3.3532,-3.3807,-3.3485,-3.2856,-3.2435,-3.2004,-3.1228,-3.0502,-3.0163,-3.0041,-2.9748,-2.951,-2.9625,-2.9626,-2.9645,-2.9701,-2.9793,-2.9792,-2.9774,-2.9859,-2.991,-2.9893,-2.9945,-3.0022,-3.0138,-3.018,-3.0247,-3.6203,-3.6912,-3.6878,-3.6803,-3.6789,-3.6646,-3.6259,-3.5693,-3.5497,-3.5161,-3.4848,-3.5637,-3.64,-3.6808,-3.5781,-3.5537,-3.5878,-3.4827,-3.4395,-3.4529,-3.4003,-3.389,-3.4062,-3.3936,-3.4182,-3.4674,-3.4849,-3.4907,-3.4926,-3.4908,-3.5022,-3.5211,-3.5268,-3.5287,-3.5287,-3.5287,-3.5173,-3.4983,-3.4964,-3.4946,-3.4737,-3.3507,-3.2637,-3.2241,-3.0902,-3.0034,-2.9808,-2.9735,-2.97,-2.9683,-2.9645,-2.9607,-2.9607,-2.9588,-2.9511,-2.9412,-2.939,-2.9649,-3.0225,-2.9723,-2.9649,-3.015,-2.9723,-2.9628,-3.0068,-3.0194,-3.0431,-3.0886,-3.0904,-3.0919,-3.1359,-3.1169,-3.1041,-3.0968,-3.0308,-2.9874,-2.9824,-2.931,-2.9012,-2.8975,-2.9049,-2.9127,-2.931,-2.9494,-3.0063,-3.1501,-3.185,-3.2224,-3.3456,-3.3868,-3.3647,-3.3191,-3.313,-3.2711,-3.1848,-3.1292,-3.0968,-3.0809,-3.0445,-3.0039,-3.0001,-2.9945,-2.9792,-2.9878,-2.9929,-2.9945,-2.9929,-3.0007,-3.0087,-3.0053,-3.0053,-3.0098,-3.0138,-3.018,-3.0247,-3.7945,-3.8472,-3.7921,-3.7256,-3.6733,-3.5969,-3.5621,-3.5562,-3.4857,-3.4848,-3.5491,-3.6304,-3.682,-3.6676,-3.4529,-3.3524,-3.366,-3.3569,-3.3834,-3.4499,-3.4517,-3.5009,-3.5805,-3.5188,-3.4831,-3.4849,-3.4907,-3.4927,-3.4927,-3.4927,-3.5325,-3.6045,-3.6046,-3.616,-3.6084,-3.6064,-3.5817,-3.5151,-3.5075,-3.502,-3.4832,-3.4111,-3.3315,-3.2467,-3.143,-3.0562,-2.994,-2.9754,-2.97,-2.9683,-2.9701,-2.9664,-2.9589,-2.955,-2.9472,-2.9412,-2.9412,-2.9431,-2.9504,-2.9427,-2.9444,-2.9481,-2.9444,-2.9425,-2.9537,-2.9574,-2.963,-2.9535,-2.9662,-3.0139,-3.1209,-3.0923,-3.0572,-3.0488,-2.977,-2.9357,-2.9145,-2.926,-2.9035,-2.9035,-2.909,-2.9462,-3.0044,-3.0155,-3.0901,-3.2065,-3.2606,-3.2963,-3.3696,-3.3998,-3.3949,-3.3963,-3.3883,-3.3531,-3.2228,-3.1905,-3.1936,-3.1759,-3.1334,-3.0904,-3.0694,-3.0464,-3.0208,-3.0045,-3.0041,-3.0091,-3.0072,-3.0087,-3.0102,-3.0102,-3.0102,-3.0128,-3.0157,-3.0113,-3.0171,-3.662,-3.7368,-3.7155,-3.6642,-3.5975,-3.5781,-3.5376,-3.4787,-3.4512,-3.4531,-3.4758,-3.5056,-3.5211,-3.5208,-3.3867,-3.3874,-3.4723,-3.3362,-3.2822,-3.3106,-3.3126,-3.3335,-3.3619,-3.3846,-3.4357,-3.4831,-3.4907,-3.4927,-3.4908,-3.5001,-3.5153,-3.5382,-3.5495,-3.5531,-3.555,-3.5512,-3.5378,-3.5131,-3.5057,-3.5001,-3.4889,-3.4624,-3.4074,-3.3167,-3.1807,-3.0921,-3.0638,-3.0057,-2.9682,-2.9701,-2.9701,-2.9701,-2.9664,-2.9645,-2.9626,-2.9589,-2.9511,-2.9472,-2.9454,-2.9471,-2.949,-2.947,-2.9451,-2.947,-2.9471,-2.949,-2.9471,-2.949,-2.9451,-2.999,-3.0711,-3.0717,-3.0664,-3.1006,-3.0854,-3.0429,-3.0037,-2.989,-2.9724,-2.9333,-2.9517,-3.0222,-3.0849,-3.1088,-3.1549,-3.2508,-3.2748,-3.3167,-3.3808,-3.4099,-3.4173,-3.4269,-3.4298,-3.4199,-3.388,-3.3103,-3.2729,-3.248,-3.2147,-3.1751,-3.1482,-3.0774,-3.0399,-3.0592,-3.0525,-3.0194,-3.0194,-3.0098,-3.0132,-3.0161,-3.0161,-3.0161,-3.0157,-3.0147,-3.0185,-3.5932,-3.6218,-3.6289,-3.5857,-3.5181,-3.5264,-3.4969,-3.44,-3.4386,-3.4255,-3.4078,-3.4465,-3.4489,-3.4072,-3.3777,-3.4061,-3.4738,-3.3045,-3.2353,-3.2617,-3.2713,-3.2845,-3.3185,-3.3677,-3.4282,-3.4812,-3.4926,-3.4907,-3.4908,-3.5001,-3.5153,-3.5382,-3.5456,-3.5492,-3.5473,-3.5528,-3.5451,-3.5204,-3.5091,-3.5056,-3.5001,-3.4946,-3.4699,-3.3961,-3.2656,-3.1751,-3.1506,-3.0847,-3.034,-3.0133,-3.0077,-2.9964,-2.972,-2.9701,-2.9664,-2.9626,-2.9569,-2.9512,-2.9511,-2.9511,-2.9511,-2.9511,-2.9511,-2.9511,-2.9511,-2.9511,-2.9511,-2.953,-2.9791,-3.0239,-3.0966,-3.1309,-3.1463,-3.1654,-3.1672,-3.1469,-3.0882,-3.0794,-3.0572,-3.0276,-3.0539,-3.1191,-3.1858,-3.2019,-3.2358,-3.2876,-3.3099,-3.3555,-3.3775,-3.4162,-3.4381,-3.4473,-3.4517,-3.4604,-3.4461,-3.4026,-3.3778,-3.3521,-3.2978,-3.2598,-3.2217,-3.1409,-3.0944,-3.1118,-3.0944,-3.0517,-3.0261,-3.0147,-3.0157,-3.0204,-3.0204,-3.019,-3.019,-3.0204,-3.0232,-3.6088,-3.5516,-3.5497,-3.5107,-3.4507,-3.4428,-3.44,-3.445,-3.4409,-3.4095,-3.3795,-3.4978,-3.4712,-3.3821,-3.4102,-3.4124,-3.354,-3.2799,-3.2711,-3.3222,-3.3412,-3.3904,-3.4548,-3.4661,-3.4718,-3.4851,-3.4908,-3.4908,-3.4889,-3.4946,-3.5287,-3.5989,-3.6064,-3.5988,-3.6197,-3.6117,-3.5921,-3.5312,-3.5124,-3.5162,-3.5164,-3.5075,-3.4945,-3.4813,-3.3961,-3.3167,-3.2411,-3.2165,-3.1656,-3.0997,-3.0922,-3.0489,-2.9945,-2.9814,-2.9701,-2.9663,-2.9607,-2.9569,-2.9512,-2.9531,-2.9531,-2.9531,-2.9531,-2.9531,-2.9531,-2.9605,-2.9661,-2.9773,-3.0334,-3.1082,-3.1942,-3.2555,-3.2717,-3.2069,-3.2166,-3.2046,-3.1751,-3.1654,-3.1718,-3.1644,-3.1764,-3.2139,-3.2753,-3.3013,-3.3129,-3.3343,-3.3799,-3.4068,-3.3777,-3.418,-3.4586,-3.4666,-3.4708,-3.4749,-3.4829,-3.4887,-3.4791,-3.4621,-3.3961,-3.3446,-3.3257,-3.2665,-3.2012,-3.1974,-3.1416,-3.0952,-3.0271,-3.0157,-3.019,-3.0204,-3.0204,-3.0218,-3.0218,-3.0218,-3.0232,-3.4853,-3.4606,-3.4556,-3.4389,-3.4197,-3.4288,-3.4316,-3.4363,-3.445,-3.4342,-3.4229,-3.4526,-3.4475,-3.4203,-3.4265,-3.4186,-3.4035,-3.3758,-3.332,-3.2901,-3.3318,-3.3791,-3.4131,-3.4565,-3.471,-3.467,-3.487,-3.4927,-3.4869,-3.4946,-3.5191,-3.5362,-3.5456,-3.5418,-3.5363,-3.5362,-3.5173,-3.4927,-3.4851,-3.4849,-3.4868,-3.479,-3.4749,-3.4711,-3.4465,-3.4221,-3.3977,-3.2863,-3.2108,-3.1807,-3.1749,-3.1616,-3.1336,-3.0885,-3.0584,-3.049,-2.9945,-2.9664,-2.9645,-2.9645,-2.9645,-2.9645,-2.9664,-2.9645,-2.972,-3.017,-3.0413,-3.0526,-3.1182,-3.2008,-3.2793,-3.3149,-3.3368,-3.356,-3.3616,-3.3318,-3.2747,-3.2266,-3.2229,-3.262,-3.2754,-3.315,-3.3769,-3.4016,-3.3982,-3.4008,-3.433,-3.4392,-3.4323,-3.4423,-3.4749,-3.4827,-3.4849,-3.4849,-3.4888,-3.4907,-3.4888,-3.4793,-3.4358,-3.4129,-3.3997,-3.3749,-3.3156,-3.2561,-3.1984,-3.131,-3.061,-3.03,-3.039,-3.0256,-3.0199,-3.0213,-3.0213,-3.0226,-3.024,-3.4099,-3.403,-3.4099,-3.4074,-3.4037,-3.39,-3.3822,-3.379,-3.362,-3.3384,-3.3119,-3.3276,-3.3444,-3.3542,-3.3626,-3.3961,-3.4298,-3.4288,-3.3803,-3.3212,-3.3655,-3.4036,-3.4169,-3.4505,-3.4623,-3.4517,-3.4689,-3.4751,-3.4687,-3.481,-3.485,-3.4888,-3.4927,-3.4908,-3.4831,-3.485,-3.4773,-3.4713,-3.4711,-3.471,-3.4689,-3.4666,-3.4623,-3.4623,-3.4666,-3.4727,-3.4693,-3.3693,-3.3014,-3.2674,-3.2314,-3.2125,-3.2107,-3.1674,-3.1431,-3.1299,-3.0922,-3.0509,-3.0208,-3.0208,-2.9983,-2.9814,-2.9964,-3.0152,-3.0283,-3.0884,-3.1316,-3.1447,-3.2086,-3.2799,-3.3306,-3.3719,-3.4033,-3.442,-3.4398,-3.4229,-3.3683,-3.3253,-3.3181,-3.3593,-3.3749,-3.4052,-3.4433,-3.4604,-3.4454,-3.4327,-3.4499,-3.4501,-3.4504,-3.4582,-3.4774,-3.4888,-3.4888,-3.4889,-3.4908,-3.4908,-3.4908,-3.4775,-3.4566,-3.4548,-3.4548,-3.43,-3.384,-3.3266,-3.2689,-3.1863,-3.113,-3.0906,-3.0844,-3.059,-3.0226,-3.024,-3.0253,-3.0266,-3.0299,-3.3807,-3.3834,-3.3998,-3.4023,-3.3887,-3.3327,-3.3059,-3.2915,-3.24,-3.175,-3.1264,-3.1862,-3.2088,-3.2173,-3.2785,-3.343,-3.4011,-3.4173,-3.4165,-3.4195,-3.4427,-3.4576,-3.4619,-3.463,-3.4539,-3.4363,-3.4409,-3.4454,-3.4514,-3.4561,-3.4539,-3.4666,-3.4708,-3.4727,-3.4708,-3.4693,-3.4653,-3.4672,-3.4672,-3.4651,-3.4672,-3.4668,-3.4645,-3.4602,-3.4645,-3.4687,-3.4691,-3.4602,-3.4301,-3.3581,-3.2841,-3.248,-3.2311,-3.2217,-3.2198,-3.2161,-3.2123,-3.1616,-3.1128,-3.0978,-3.0734,-3.0208,-3.064,-3.0959,-3.1091,-3.1692,-3.218,-3.2217,-3.2968,-3.3475,-3.3682,-3.4076,-3.4508,-3.4604,-3.4583,-3.4505,-3.4517,-3.4405,-3.4355,-3.4473,-3.4647,-3.4728,-3.4809,-3.479,-3.445,-3.4168,-3.449,-3.451,-3.4339,-3.4548,-3.4832,-3.4927,-3.4946,-3.4927,-3.4945,-3.4908,-3.4908,-3.4851,-3.4718,-3.4794,-3.4889,-3.466,-3.4317,-3.3779,-3.3372,-3.2492,-3.1703,-3.1346,-3.0896,-3.0418,-3.0253,-3.0299,-3.0312,-3.0324,-3.0337,-3.3807,-3.3807,-3.3788,-3.3815,-3.3758,-3.3148,-3.2847,-3.276,-3.2162,-3.1712,-3.164,-3.1738,-3.18,-3.2094,-3.253,-3.2952,-3.3315,-3.3783,-3.4074,-3.4221,-3.4358,-3.4363,-3.4344,-3.4431,-3.4316,-3.4105,-3.4269,-3.4404,-3.4381,-3.4495,-3.4602,-3.4685,-3.4666,-3.4685,-3.4645,-3.452,-3.4476,-3.4458,-3.4431,-3.4476,-3.4542,-3.4561,-3.4539,-3.4558,-3.4583,-3.4666,-3.4768,-3.4888,-3.4832,-3.4505,-3.4158,-3.3926,-3.3815,-3.3362,-3.3062,-3.2987,-3.248,-3.2048,-3.186,-3.1804,-3.1654,-3.1504,-3.1598,-3.1785,-3.1823,-3.2574,-3.2987,-3.3193,-3.3794,-3.4287,-3.4386,-3.4515,-3.4666,-3.4727,-3.4666,-3.4645,-3.4687,-3.4708,-3.4749,-3.4811,-3.4831,-3.4888,-3.4927,-3.4927,-3.4851,-3.4717,-3.4793,-3.4944,-3.4698,-3.466,-3.502,-3.502,-3.502,-3.5001,-3.4964,-3.4927,-3.4908,-3.4908,-3.4851,-3.4851,-3.4908,-3.4869,-3.4431,-3.3951,-3.3944,-3.3328,-3.2195,-3.1417,-3.0877,-3.0642,-3.0433,-3.0548,-3.0407,-3.0381,-3.0412,-3.3633,-3.3661,-3.3671,-3.3698,-3.3616,-3.3022,-3.2564,-3.217,-3.1593,-3.1105,-3.0881,-3.0782,-3.0971,-3.1406,-3.1935,-3.2428,-3.2871,-3.3526,-3.3928,-3.4049,-3.4148,-3.4173,-3.4203,-3.4316,-3.4221,-3.4005,-3.4173,-3.4269,-3.4316,-3.4386,-3.4473,-3.4539,-3.4558,-3.4536,-3.4517,-3.4431,-3.4386,-3.4386,-3.4381,-3.4404,-3.445,-3.4409,-3.4386,-3.4386,-3.4473,-3.4604,-3.481,-3.4889,-3.4908,-3.4869,-3.4771,-3.467,-3.4651,-3.4252,-3.3949,-3.393,-3.3421,-3.3043,-3.2705,-3.2649,-3.2461,-3.2274,-3.2367,-3.2632,-3.2841,-3.3462,-3.399,-3.4108,-3.4485,-3.4694,-3.4791,-3.4771,-3.4771,-3.483,-3.4771,-3.4751,-3.483,-3.483,-3.4869,-3.4908,-3.4964,-3.4983,-3.5039,-3.5057,-3.5075,-3.5075,-3.4999,-3.5056,-3.5035,-3.5092,-3.5035,-3.4978,-3.4865,-3.4753,-3.4754,-3.4736,-3.487,-3.4889,-3.4945,-3.4945,-3.4983,-3.502,-3.4808,-3.4482,-3.4456,-3.4069,-3.2974,-3.2125,-3.1905,-3.1626,-3.1149,-3.0868,-3.088,-3.0701,-3.0694,-3.3339,-3.3441,-3.3514,-3.3588,-3.3487,-3.2918,-3.2268,-3.1483,-3.0872,-3.0101,-2.9564,-2.9386,-2.9906,-3.0364,-3.1099,-3.182,-3.2587,-3.3261,-3.3747,-3.3917,-3.4005,-3.4124,-3.4245,-3.4245,-3.4197,-3.408,-3.4099,-3.4179,-3.4269,-3.4269,-3.4311,-3.4404,-3.4363,-3.4381,-3.4427,-3.4386,-3.4386,-3.4427,-3.4427,-3.445,-3.4473,-3.4431,-3.4386,-3.4363,-3.4431,-3.4607,-3.4811,-3.4889,-3.4927,-3.5091,-3.4908,-3.4812,-3.4793,-3.4732,-3.4672,-3.4634,-3.4463,-3.4139,-3.3705,-3.3556,-3.3291,-3.286,-3.3235,-3.3556,-3.375,-3.428,-3.4659,-3.4718,-3.4889,-3.4889,-3.4889,-3.4908,-3.4927,-3.4927,-3.4927,-3.4945,-3.4945,-3.4927,-3.4945,-3.502,-3.502,-3.5075,-3.5092,-3.511,-3.5129,-3.5145,-3.5088,-3.4973,-3.4992,-3.4992,-3.4897,-3.4766,-3.4632,-3.4463,-3.4485,-3.4543,-3.4735,-3.4868,-3.4963,-3.502,-3.5075,-3.5111,-3.5129,-3.503,-3.4835,-3.447,-3.3802,-3.3257,-3.2919,-3.2483,-3.1935,-3.1789,-3.1706,-3.1392,-3.1251,-3.2879,-3.3357,-3.2837,-3.2974,-3.3367,-3.283,-3.2104,-3.1391,-3.0725,-3.0005,-2.946,-2.9328,-2.9479,-2.9766,-3.0472,-3.1122,-3.1961,-3.2748,-3.3352,-3.403,-3.4074,-3.4124,-3.4197,-3.4148,-3.4099,-3.4099,-3.4099,-3.4173,-3.4269,-3.4358,-3.4363,-3.4386,-3.4386,-3.4409,-3.445,-3.4363,-3.4386,-3.4517,-3.4517,-3.4517,-3.4602,-3.4583,-3.4561,-3.4539,-3.4583,-3.471,-3.487,-3.4927,-3.5038,-3.5091,-3.5001,-3.4889,-3.4889,-3.487,-3.485,-3.485,-3.485,-3.4736,-3.4585,-3.449,-3.449,-3.4206,-3.4224,-3.4527,-3.4566,-3.4641,-3.485,-3.4889,-3.4908,-3.4927,-3.4945,-3.5054,-3.5072,-3.5073,-3.5091,-3.5124,-3.5124,-3.5072,-3.5073,-3.5126,-3.5141,-3.516,-3.5157,-3.516,-3.5176,-3.5196,-3.5062,-3.4852,-3.4871,-3.4931,-3.4874,-3.4778,-3.4571,-3.4478,-3.4746,-3.4786,-3.4827,-3.4942,-3.5018,-3.5075,-3.5129,-3.52,-3.5198,-3.5179,-3.5157,-3.4735,-3.4276,-3.3926,-3.3493,-3.3097,-3.2799,-3.2672,-3.2493,-3.2141,-3.1628,-3.2824,-3.2889,-3.2892,-3.2948,-3.2985,-3.2638,-3.2122,-3.144,-3.0701,-3.0043,-2.95,-2.9365,-2.9388,-2.9506,-3.02,-3.0927,-3.1792,-3.2884,-3.3667,-3.4062,-3.4124,-3.4173,-3.4197,-3.4173,-3.4173,-3.4245,-3.4269,-3.434,-3.4427,-3.445,-3.4431,-3.4431,-3.4427,-3.4427,-3.445,-3.4386,-3.4409,-3.4517,-3.4517,-3.4558,-3.4645,-3.4623,-3.4583,-3.4602,-3.4604,-3.4687,-3.4849,-3.4945,-3.5038,-3.5108,-3.5089,-3.5054,-3.502,-3.4983,-3.4964,-3.4945,-3.4927,-3.4908,-3.4908,-3.4908,-3.4851,-3.4851,-3.4831,-3.487,-3.4908,-3.4889,-3.4964,-3.5019,-3.5054,-3.5054,-3.5054,-3.5107,-3.5176,-3.516,-3.5176,-3.519,-3.5193,-3.516,-3.5143,-3.5193,-3.5174,-3.5174,-3.519,-3.5152,-3.519,-3.5174,-3.5136,-3.4964,-3.5021,-3.5078,-3.5021,-3.4887,-3.4623,-3.4642,-3.4988,-3.5105,-3.5034,-3.5072,-3.5091,-3.5147,-3.5164,-3.5198,-3.5231,-3.5229,-3.5209,-3.5168,-3.4748,-3.4397,-3.4202,-3.4159,-3.3959,-3.3657,-3.3242,-3.2731,-3.216,-3.2944,-3.2518,-3.3176,-3.3068,-3.2556,-3.2482,-3.2063,-3.1291,-3.0688,-3.0021,-2.9479,-2.9388,-2.9388,-2.9553,-3.0179,-3.0991,-3.2061,-3.3019,-3.3741,-3.408,-3.4148,-3.4173,-3.4197,-3.4245,-3.4293,-3.4386,-3.4409,-3.4495,-3.4539,-3.4539,-3.4473,-3.4473,-3.4431,-3.4404,-3.4386,-3.4386,-3.4431,-3.4495,-3.4536,-3.4539,-3.4602,-3.4561,-3.4539,-3.4539,-3.4539,-3.4626,-3.479,-3.4888,-3.4983,-3.5056,-3.516,-3.5196,-3.5145,-3.511,-3.5038,-3.5038,-3.5001,-3.4963,-3.5001,-3.4982,-3.4926,-3.4851,-3.4831,-3.4889,-3.4964,-3.5001,-3.5056,-3.5124,-3.5157,-3.5157,-3.519,-3.519,-3.519,-3.5174,-3.5174,-3.519,-3.519,-3.519,-3.5174,-3.519,-3.519,-3.519,-3.5095,-3.5018,-3.5095,-3.5152,-3.5114,-3.5076,-3.5095,-3.5133,-3.5037,-3.4942,-3.4697,-3.4754,-3.5081,-3.5212,-3.5162,-3.5179,-3.5181,-3.5198,-3.5215,-3.5245,-3.5277,-3.5245,-3.5207,-3.5181,-3.512,-3.4795,-3.4772,-3.5078,-3.474,-3.403,-3.3596,-3.3269,-3.2557,-3.2791,-3.3255,-3.2867,-3.2565,-3.2447,-3.2474,-3.1763,-3.0654,-3.0503,-3.0021,-2.9479,-2.9388,-2.9407,-2.9628,-3.0222,-3.131,-3.2358,-3.3037,-3.3463,-3.3932,-3.4031,-3.4037,-3.4179,-3.425,-3.4316,-3.4386,-3.4409,-3.4495,-3.458,-3.4539,-3.4495,-3.445,-3.4427,-3.4404,-3.4363,-3.4363,-3.4431,-3.4495,-3.4558,-3.4561,-3.4602,-3.4583,-3.4561,-3.4561,-3.4561,-3.4645,-3.4747,-3.4829,-3.4849,-3.4927,-3.4945,-3.4964,-3.5001,-3.5091,-3.5107,-3.5107,-3.5089,-3.5053,-3.5089,-3.5126,-3.5108,-3.5075,-3.4964,-3.4964,-3.502,-3.5038,-3.5073,-3.516,-3.519,-3.519,-3.519,-3.5174,-3.519,-3.519,-3.5174,-3.5174,-3.5174,-3.5174,-3.5174,-3.519,-3.519,-3.519,-3.5095,-3.4999,-3.4999,-3.4999,-3.4923,-3.4808,-3.4732,-3.4866,-3.4942,-3.4846,-3.4732,-3.4923,-3.5174,-3.5209,-3.5209,-3.5245,-3.5261,-3.5277,-3.5273,-3.5289,-3.5304,-3.5289,-3.5289,-3.5266,-3.5151,-3.5013,-3.4951,-3.4966,-3.4606,-3.4134,-3.3622,-3.3051,-3.2343,-3.291,-3.2893,-3.2647,-3.2297,-3.1924,-3.1913,-3.1593,-3.0973,-3.0577,-3.0261,-2.9959,-2.9649,-2.9646,-2.9996,-3.0309,-3.1214,-3.2136,-3.2741,-3.3117,-3.3518,-3.3536,-3.382,-3.4141,-3.4269,-3.4316,-3.434,-3.4404,-3.4473,-3.4583,-3.4561,-3.4517,-3.4473,-3.445,-3.4409,-3.4363,-3.4404,-3.4431,-3.4495,-3.4539,-3.458,-3.4602,-3.4602,-3.4602,-3.4602,-3.4602,-3.4645,-3.4706,-3.479,-3.4811,-3.485,-3.4927,-3.4908,-3.4945,-3.4982,-3.5054,-3.5054,-3.5054,-3.5054,-3.5054,-3.5054,-3.5001,-3.4945,-3.4908,-3.4889,-3.4945,-3.4964,-3.5073,-3.516,-3.5176,-3.5176,-3.519,-3.5141,-3.516,-3.5157,-3.5124,-3.5107,-3.5141,-3.516,-3.5176,-3.5174,-3.5174,-3.5174,-3.5171,-3.5057,-3.4942,-3.4846,-3.4751,-3.4636,-3.4503,-3.4729,-3.4977,-3.4977,-3.492,-3.5051,-3.5223,-3.5239,-3.5258,-3.5308,-3.5324,-3.532,-3.5335,-3.535,-3.535,-3.535,-3.535,-3.533,-3.5081,-3.4885,-3.4861,-3.4677,-3.4013,-3.3474,-3.3236,-3.2779,-3.2023,-3.3184,-3.2684,-3.28,-3.2375,-3.1715,-3.1666,-3.1513,-3.1241,-3.0674,-3.0357,-3.0259,-2.976,-2.9792,-3.0401,-3.0787,-3.1306,-3.2136,-3.2845,-3.3078,-3.338,-3.3441,-3.3701,-3.4078,-3.4245,-3.4293,-3.4316,-3.434,-3.4431,-3.4539,-3.4561,-3.4558,-3.4495,-3.4476,-3.4473,-3.4427,-3.4409,-3.4431,-3.4495,-3.4536,-3.4539,-3.4602,-3.4602,-3.4602,-3.4602,-3.4602,-3.4602,-3.4645,-3.4689,-3.473,-3.4769,-3.483,-3.487,-3.485,-3.485,-3.485,-3.485,-3.487,-3.4908,-3.4908,-3.4908,-3.4908,-3.485,-3.4812,-3.4812,-3.4851,-3.4945,-3.5056,-3.5143,-3.5162,-3.5145,-3.5126,-3.511,-3.511,-3.5108,-3.5037,-3.4982,-3.5108,-3.5162,-3.5145,-3.5143,-3.5176,-3.5174,-3.519,-3.4824,-3.4633,-3.4856,-3.4779,-3.4856,-3.4779,-3.4971,-3.5162,-3.5181,-3.5181,-3.5232,-3.5304,-3.5285,-3.532,-3.5335,-3.535,-3.535,-3.5364,-3.5398,-3.5398,-3.5412,-3.5398,-3.534,-3.5048,-3.4562,-3.418,-3.3744,-3.3179,-3.2798,-3.259,-3.2149,-3.1467,-3.3541,-3.3552,-3.3597,-3.3201,-3.2504,-3.2463,-3.1765,-3.0711,-3.0627,-3.0101,-2.9853,-2.9574,-2.9906,-3.0742,-3.1463,-3.2479,-3.3202,-3.3231,-3.3357,-3.3771,-3.3883,-3.4013,-3.4269,-3.4203,-3.4269,-3.4316,-3.4316,-3.4386,-3.4454,-3.4517,-3.4517,-3.4495,-3.4495,-3.4473,-3.4409,-3.4454,-3.4495,-3.4517,-3.4561,-3.4602,-3.4602,-3.4602,-3.4602,-3.4602,-3.4602,-3.4602,-3.4602,-3.4647,-3.4645,-3.4645,-3.4666,-3.4666,-3.4645,-3.4626,-3.4626,-3.4689,-3.4791,-3.4908,-3.4889,-3.487,-3.4869,-3.479,-3.4769,-3.4791,-3.4831,-3.4964,-3.5075,-3.5092,-3.5075,-3.5057,-3.5038,-3.4983,-3.4983,-3.5001,-3.4982,-3.5001,-3.5092,-3.5073,-3.5073,-3.511,-3.5126,-3.5212,-3.5226,-3.471,-3.4324,-3.4604,-3.4829,-3.4906,-3.4986,-3.5159,-3.5254,-3.5273,-3.527,-3.53,-3.535,-3.535,-3.5364,-3.5398,-3.5379,-3.5393,-3.5412,-3.5427,-3.546,-3.546,-3.5422,-3.5147,-3.468,-3.4109,-3.3434,-3.306,-3.2848,-3.2408,-3.1939,-3.1419,-3.0975,-3.3643,-3.3662,-3.3303,-3.2944,-3.2632,-3.2691,-3.2379,-3.1829,-3.1335,-3.1054,-3.073,-3.0243,-3.0742,-3.1774,-3.2733,-3.316,-3.3388,-3.3217,-3.3268,-3.3649,-3.3784,-3.3948,-3.4265,-3.4316,-3.4358,-3.4358,-3.4404,-3.4427,-3.445,-3.4431,-3.445,-3.445,-3.4495,-3.4495,-3.4473,-3.4536,-3.4558,-3.4561,-3.4583,-3.4602,-3.4602,-3.4602,-3.4602,-3.4602,-3.4602,-3.4602,-3.4602,-3.4602,-3.4602,-3.4602,-3.4602,-3.4602,-3.4602,-3.4623,-3.4623,-3.4623,-3.4668,-3.473,-3.473,-3.4751,-3.4728,-3.4708,-3.4687,-3.471,-3.4792,-3.4889,-3.5002,-3.5038,-3.4964,-3.4945,-3.4964,-3.4927,-3.4927,-3.4946,-3.4889,-3.4964,-3.5001,-3.4982,-3.4982,-3.5038,-3.5092,-3.5145,-3.5196,-3.4966,-3.4677,-3.4859,-3.5009,-3.5051,-3.5108,-3.5168,-3.5258,-3.5293,-3.5304,-3.5315,-3.5364,-3.5412,-3.5427,-3.546,-3.546,-3.546,-3.5474,-3.5474,-3.5507,-3.529,-3.5033,-3.47,-3.4301,-3.3993,-3.3639,-3.3149,-3.2659,-3.2315,-3.195,-3.1274,-3.1072,-3.3671,-3.3671,-3.312,-3.2908,-3.2908,-3.2985,-3.2957,-3.2778,-3.227,-3.1857,-3.1511,-3.1098,-3.1667,-3.2826,-3.3562,-3.3734,-3.3337,-3.331,-3.3422,-3.3467,-3.3568,-3.3923,-3.4278,-3.4427,-3.4404,-3.4386,-3.4427,-3.445,-3.4427,-3.4409,-3.4427,-3.445,-3.4476,-3.4517,-3.4558,-3.458,-3.4602,-3.4602,-3.4602,-3.4602,-3.4602,-3.4602,-3.4602,-3.4602,-3.4602,-3.4602,-3.4602,-3.4602,-3.4602,-3.4602,-3.4602,-3.4602,-3.4602,-3.4602,-3.4602,-3.4602,-3.4626,-3.4626,-3.4626,-3.4645,-3.4623,-3.4623,-3.4623,-3.4687,-3.4751,-3.483,-3.4868,-3.4927,-3.487,-3.487,-3.4888,-3.4829,-3.481,-3.483,-3.481,-3.4869,-3.4908,-3.4927,-3.4926,-3.4964,-3.502,-3.5056,-3.5091,-3.5127,-3.5105,-3.5174,-3.5209,-3.519,-3.5207,-3.5226,-3.5308,-3.5373,-3.5369,-3.5379,-3.5412,-3.546,-3.5474,-3.5488,-3.5507,-3.5488,-3.5501,-3.5488,-3.5507,-3.5174,-3.4867,-3.4867,-3.4847,-3.4378,-3.387,-3.3307,-3.2819,-3.251,-3.2057,-3.142,-3.1381,-3.3577,-3.3788,-3.3715,-3.366,-3.3705,-3.3854,-3.3481,-3.2939,-3.2939,-3.205,-3.1098,-3.1429,-3.2187,-3.2993,-3.3759,-3.4093,-3.3994,-3.42,-3.4176,-3.424,-3.4398,-3.4383,-3.4473,-3.445,-3.4409,-3.4427,-3.445,-3.445,-3.4386,-3.4409,-3.4473,-3.4561,-3.4517,-3.4583,-3.4604,-3.4645,-3.4645,-3.4645,-3.4623,-3.4623,-3.4623,-3.4604,-3.4623,-3.4604,-3.4623,-3.4602,-3.4623,-3.4623,-3.4623,-3.4623,-3.4623,-3.4623,-3.4645,-3.4623,-3.4623,-3.4623,-3.4602,-3.4602,-3.4602,-3.4602,-3.4602,-3.4623,-3.4645,-3.4687,-3.4749,-3.4769,-3.4809,-3.4829,-3.4809,-3.4749,-3.4728,-3.4687,-3.4708,-3.4728,-3.4769,-3.481,-3.4869,-3.4889,-3.4889,-3.4908,-3.4945,-3.5001,-3.5019,-3.5073,-3.5127,-3.5196,-3.5176,-3.516,-3.5239,-3.5289,-3.5403,-3.5465,-3.5479,-3.5474,-3.5474,-3.5488,-3.552,-3.552,-3.5501,-3.5515,-3.5528,-3.5515,-3.5488,-3.5438,-3.5233,-3.531,-3.5265,-3.4743,-3.416,-3.3459,-3.3024,-3.2917,-3.2782,-3.2386,-3.2464,-3.3538,-3.3615,-3.3753,-3.3815,-3.3887,-3.3972,-3.3864,-3.3512,-3.2716,-3.1991,-3.1374,-3.2172,-3.2971,-3.3616,-3.3931,-3.4221,-3.4221,-3.4316,-3.4386,-3.4473,-3.4517,-3.458,-3.4539,-3.4539,-3.4517,-3.4517,-3.4517,-3.4495,-3.4473,-3.4454,-3.4517,-3.458,-3.4561,-3.4623,-3.4666,-3.4687,-3.4727,-3.4727,-3.4708,-3.4708,-3.4727,-3.4666,-3.4666,-3.4727,-3.4666,-3.4687,-3.4708,-3.4666,-3.4687,-3.4687,-3.4666,-3.4687,-3.4687,-3.4666,-3.4666,-3.4666,-3.4645,-3.4623,-3.4623,-3.4623,-3.4602,-3.4623,-3.4706,-3.4747,-3.4728,-3.4809,-3.4809,-3.4788,-3.4747,-3.4727,-3.4687,-3.4645,-3.4645,-3.4706,-3.4747,-3.4809,-3.4849,-3.4889,-3.4926,-3.4964,-3.4964,-3.4983,-3.5001,-3.5,-3.5091,-3.5162,-3.5145,-3.5143,-3.5242,-3.5335,-3.5432,-3.5474,-3.5474,-3.5495,-3.5509,-3.5528,-3.5534,-3.5528,-3.5528,-3.5554,-3.5547,-3.5501,-3.5488,-3.5528,-3.5522,-3.5477,-3.529,-3.4982,-3.4618,-3.4298,-3.3931,-3.3594,-3.3439,-3.3314,-3.3527,-3.3375,-3.3509,-3.3661,-3.3807,-3.3895,-3.3972,-3.3901,-3.361,-3.2692,-3.2154,-3.2191,-3.2804,-3.3436,-3.403,-3.4216,-3.4221,-3.4269,-3.4316,-3.4404,-3.4473,-3.4517,-3.4561,-3.4602,-3.4602,-3.4602,-3.4602,-3.4602,-3.458,-3.4517,-3.452,-3.4561,-3.4623,-3.4645,-3.4685,-3.4687,-3.4728,-3.4788,-3.4788,-3.4788,-3.4788,-3.4788,-3.4768,-3.4747,-3.4807,-3.4747,-3.4747,-3.4768,-3.4747,-3.4728,-3.4749,-3.4749,-3.4768,-3.4768,-3.4768,-3.4747,-3.4727,-3.4687,-3.4666,-3.4647,-3.4604,-3.4623,-3.4623,-3.4666,-3.4708,-3.4747,-3.4788,-3.4788,-3.4768,-3.4747,-3.4727,-3.4687,-3.4645,-3.4623,-3.4687,-3.4768,-3.4809,-3.4907,-3.4964,-3.4982,-3.5019,-3.5019,-3.5073,-3.5072,-3.5107,-3.5124,-3.5212,-3.5261,-3.5242,-3.5273,-3.5335,-3.5412,-3.546,-3.5474,-3.5489,-3.5521,-3.5522,-3.5515,-3.562,-3.5601,-3.5596,-3.5584,-3.5534,-3.5501,-3.5515,-3.5528,-3.5515,-3.5386,-3.5191,-3.5288,-3.5423,-3.4952,-3.4414,-3.4513,-3.4447,-3.4466,-3.2965,-3.3481,-3.3455,-3.3606,-3.3868,-3.3972,-3.3592,-3.3179,-3.3017,-3.286,-3.2767,-3.299,-3.3473,-3.4086,-3.4216,-3.4216,-3.4221,-3.4269,-3.4316,-3.4363,-3.4431,-3.4498,-3.4561,-3.4561,-3.458,-3.4602,-3.4558,-3.4517,-3.4539,-3.4517,-3.4561,-3.4645,-3.4645,-3.4706,-3.4706,-3.4687,-3.4747,-3.4788,-3.4809,-3.4809,-3.4809,-3.4809,-3.4809,-3.4809,-3.4809,-3.4809,-3.4829,-3.4827,-3.4809,-3.479,-3.4809,-3.4809,-3.4809,-3.4809,-3.4788,-3.4788,-3.4788,-3.4788,-3.4769,-3.4647,-3.4626,-3.4645,-3.4687,-3.4706,-3.4666,-3.4687,-3.4768,-3.4787,-3.4768,-3.4708,-3.4687,-3.4647,-3.4647,-3.471,-3.479,-3.4869,-3.4964,-3.5038,-3.5072,-3.5089,-3.516,-3.5209,-3.5209,-3.5209,-3.519,-3.5258,-3.5335,-3.535,-3.532,-3.535,-3.5412,-3.5468,-3.5495,-3.5502,-3.554,-3.5509,-3.5541,-3.5623,-3.5648,-3.5623,-3.5601,-3.5577,-3.5547,-3.5528,-3.5528,-3.5534,-3.5515,-3.5457,-3.5534,-3.557,-3.5589,-3.533,-3.548,-3.5433,-3.5259,-3.1493,-3.2174,-3.2502,-3.3057,-3.3689,-3.3887,-3.3806,-3.3685,-3.3642,-3.3147,-3.2553,-3.3189,-3.3881,-3.416,-3.4216,-3.4216,-3.4197,-3.4148,-3.4179,-3.4221,-3.4316,-3.4363,-3.4409,-3.4473,-3.4473,-3.445,-3.4386,-3.434,-3.4316,-3.4381,-3.445,-3.4536,-3.4561,-3.4666,-3.4788,-3.4849,-3.485,-3.4869,-3.4869,-3.4869,-3.485,-3.483,-3.4849,-3.4849,-3.4849,-3.4868,-3.4869,-3.4868,-3.4868,-3.4849,-3.4868,-3.4868,-3.4868,-3.4868,-3.4868,-3.4868,-3.4829,-3.479,-3.4811,-3.4772,-3.4771,-3.4769,-3.4768,-3.4768,-3.4807,-3.4827,-3.4848,-3.4809,-3.4788,-3.4749,-3.4751,-3.4752,-3.4791,-3.4889,-3.4964,-3.5019,-3.5089,-3.5124,-3.5176,-3.5193,-3.5245,-3.5308,-3.5324,-3.5304,-3.5289,-3.5289,-3.5369,-3.5369,-3.5335,-3.533,-3.536,-3.5476,-3.5547,-3.554,-3.5528,-3.5528,-3.5534,-3.5635,-3.5626,-3.5593,-3.5581,-3.5581,-3.5601,-3.5596,-3.556,-3.5522,-3.5528,-3.5553,-3.555,-3.5593,-3.5589,-3.5565,-3.5507,-3.5554,-3.5588,-3.1288,-3.1891,-3.2235,-3.2792,-3.3476,-3.3788,-3.3817,-3.3654,-3.358,-3.2995,-3.2556,-3.3549,-3.4173,-3.4197,-3.4216,-3.4216,-3.4197,-3.4154,-3.4179,-3.4197,-3.4311,-3.434,-3.4363,-3.4363,-3.4363,-3.4316,-3.4269,-3.4197,-3.4221,-3.4197,-3.4288,-3.4381,-3.4409,-3.4495,-3.4623,-3.4668,-3.467,-3.467,-3.467,-3.4691,-3.471,-3.4769,-3.4829,-3.483,-3.4868,-3.4907,-3.4908,-3.4908,-3.4907,-3.4908,-3.4908,-3.4907,-3.4908,-3.4927,-3.4926,-3.4888,-3.4888,-3.4869,-3.4889,-3.4927,-3.4927,-3.4888,-3.4888,-3.4868,-3.4887,-3.4868,-3.4868,-3.4829,-3.4848,-3.4848,-3.4887,-3.4888,-3.5002,-3.5094,-3.5072,-3.5124,-3.519,-3.5223,-3.5273,-3.5293,-3.5324,-3.5383,-3.5412,-3.5412,-3.5398,-3.5383,-3.5403,-3.5369,-3.5369,-3.5379,-3.5374,-3.5463,-3.5547,-3.5547,-3.5534,-3.5528,-3.556,-3.5635,-3.5623,-3.557,-3.5604,-3.5596,-3.5626,-3.5635,-3.5596,-3.5579,-3.5604,-3.5608,-3.5589,-3.5558,-3.554,-3.5528,-3.5496,-3.5553,-3.5651,-3.2195,-3.2517,-3.2598,-3.28,-3.3302,-3.3689,-3.3445,-3.2771,-3.279,-3.2797,-3.2853,-3.3642,-3.4124,-3.4173,-3.4173,-3.4216,-3.4191,-3.4173,-3.4179,-3.425,-3.4245,-3.4293,-3.4316,-3.4335,-3.4269,-3.4221,-3.4148,-3.4117,-3.4191,-3.4173,-3.4197,-3.4216,-3.4245,-3.4293,-3.4316,-3.4316,-3.4363,-3.4454,-3.4498,-3.4498,-3.452,-3.4604,-3.4666,-3.4708,-3.479,-3.4849,-3.4888,-3.4889,-3.4889,-3.4908,-3.4908,-3.4908,-3.4908,-3.4908,-3.4908,-3.4927,-3.4964,-3.4983,-3.4983,-3.502,-3.502,-3.4964,-3.4908,-3.4831,-3.4849,-3.4945,-3.5021,-3.5154,-3.523,-3.5097,-3.504,-3.5135,-3.5226,-3.5221,-3.5141,-3.5207,-3.5285,-3.535,-3.5383,-3.5417,-3.5446,-3.5474,-3.546,-3.546,-3.546,-3.546,-3.5446,-3.5446,-3.5446,-3.5446,-3.5441,-3.5455,-3.5515,-3.5522,-3.5509,-3.5515,-3.5534,-3.5601,-3.5581,-3.557,-3.5585,-3.5626,-3.5635,-3.5643,-3.5628,-3.5616,-3.5628,-3.5584,-3.556,-3.5547,-3.554,-3.547,-3.5438,-3.547,-3.554,-2.9445,-3.0585,-3.0847,-3.172,-3.2965,-3.3444,-3.3232,-3.275,-3.3243,-3.3287,-3.276,-3.3545,-3.3954,-3.4124,-3.4023,-3.4099,-3.4074,-3.4023,-3.3972,-3.4023,-3.4074,-3.4049,-3.4049,-3.4142,-3.4092,-3.4049,-3.3972,-3.3965,-3.3991,-3.4023,-3.4023,-3.3965,-3.4099,-3.4074,-3.3998,-3.3965,-3.4148,-3.4293,-3.434,-3.434,-3.4363,-3.4431,-3.4495,-3.4539,-3.4647,-3.473,-3.4751,-3.4812,-3.4851,-3.4889,-3.4908,-3.4908,-3.4908,-3.4908,-3.4908,-3.4908,-3.4964,-3.5001,-3.5001,-3.5056,-3.5075,-3.5019,-3.5001,-3.5001,-3.5001,-3.5058,-3.5247,-3.5381,-3.555,-3.5475,-3.5455,-3.5545,-3.5477,-3.5318,-3.5273,-3.5335,-3.5412,-3.5412,-3.546,-3.546,-3.5507,-3.5507,-3.5507,-3.5474,-3.5474,-3.5474,-3.5507,-3.5507,-3.5507,-3.5507,-3.5507,-3.5507,-3.5488,-3.5515,-3.5515,-3.5501,-3.5522,-3.554,-3.5534,-3.557,-3.5615,-3.5657,-3.5654,-3.5643,-3.5643,-3.562,-3.5608,-3.5608,-3.5589,-3.5577,-3.5558,-3.5464,-3.5411,-3.5424,-3.5424,-2.8828,-2.9723,-2.9972,-3.0981,-3.2393,-3.3064,-3.3154,-3.3058,-3.3497,-3.3387,-3.3058,-3.347,-3.3734,-3.3797,-3.3815,-3.3868,-3.3972,-3.3868,-3.3815,-3.3895,-3.3887,-3.3921,-3.3921,-3.3947,-3.3972,-3.3895,-3.386,-3.3834,-3.386,-3.3868,-3.3895,-3.386,-3.3947,-3.3895,-3.3842,-3.386,-3.3921,-3.4074,-3.4148,-3.4173,-3.4197,-3.4245,-3.4269,-3.4316,-3.4473,-3.4561,-3.4583,-3.4691,-3.4732,-3.4811,-3.4811,-3.485,-3.4889,-3.4908,-3.4908,-3.4927,-3.4945,-3.5001,-3.502,-3.5111,-3.5075,-3.5073,-3.5089,-3.5108,-3.5108,-3.5147,-3.5319,-3.551,-3.5696,-3.5844,-3.5914,-3.5943,-3.5665,-3.5422,-3.5446,-3.5474,-3.5474,-3.5474,-3.5507,-3.5474,-3.5507,-3.5507,-3.5507,-3.5507,-3.5507,-3.5507,-3.5507,-3.5507,-3.5507,-3.5507,-3.5507,-3.5507,-3.5507,-3.5488,-3.5488,-3.5515,-3.5534,-3.5553,-3.5565,-3.5601,-3.5657,-3.5678,-3.5687,-3.5667,-3.5678,-3.5657,-3.5646,-3.5637,-3.5629,-3.5607,-3.557,-3.5477,-3.5411,-3.5388,-3.5388,-2.9486,-2.9589,-2.9758,-3.0469,-3.1617,-3.2432,-3.2883,-3.3223,-3.3002,-3.3201,-3.323,-3.3368,-3.3426,-3.3494,-3.3541,-3.3625,-3.368,-3.3625,-3.3698,-3.3868,-3.386,-3.3842,-3.3868,-3.3947,-3.3895,-3.386,-3.3807,-3.3807,-3.3807,-3.3834,-3.386,-3.3807,-3.3834,-3.3834,-3.3807,-3.3807,-3.386,-3.3913,-3.3913,-3.3913,-3.3939,-3.3972,-3.4074,-3.4124,-3.4245,-3.4381,-3.4386,-3.4409,-3.4495,-3.4623,-3.4687,-3.473,-3.4791,-3.487,-3.487,-3.4908,-3.4946,-3.4983,-3.502,-3.5075,-3.5129,-3.5127,-3.516,-3.5176,-3.5196,-3.5209,-3.5365,-3.5747,-3.5971,-3.6039,-3.6071,-3.6063,-3.5897,-3.56,-3.5479,-3.5493,-3.5507,-3.5507,-3.5507,-3.5507,-3.5507,-3.5507,-3.5488,-3.5488,-3.5495,-3.5501,-3.5501,-3.5501,-3.5515,-3.5515,-3.5515,-3.5515,-3.5528,-3.5541,-3.5534,-3.5528,-3.5572,-3.5596,-3.5589,-3.5623,-3.5688,-3.5698,-3.5698,-3.5698,-3.5679,-3.5689,-3.5689,-3.5689,-3.5659,-3.5607,-3.555,-3.5457,-3.5424,-3.5402,-3.5364,-2.8241,-2.8878,-2.9597,-3.0159,-3.0476,-3.084,-3.1039,-3.1069,-3.1052,-3.19,-3.2979,-3.3081,-3.3117,-3.3232,-3.322,-3.3309,-3.3408,-3.3408,-3.3502,-3.3615,-3.3671,-3.3753,-3.3734,-3.3842,-3.3834,-3.3834,-3.3807,-3.3807,-3.3807,-3.3807,-3.3807,-3.3807,-3.3807,-3.3807,-3.3807,-3.3807,-3.3807,-3.3807,-3.3807,-3.3807,-3.3834,-3.3834,-3.3887,-3.3947,-3.4049,-3.4148,-3.4197,-3.4316,-3.4386,-3.4473,-3.4473,-3.4476,-3.452,-3.4668,-3.473,-3.4751,-3.4869,-3.4927,-3.4983,-3.502,-3.5056,-3.5126,-3.5176,-3.5245,-3.5277,-3.5289,-3.5461,-3.5883,-3.6144,-3.6155,-3.6132,-3.6123,-3.6041,-3.5748,-3.5493,-3.5493,-3.5488,-3.5488,-3.5488,-3.5474,-3.5474,-3.5474,-3.5474,-3.5468,-3.5489,-3.5502,-3.5547,-3.556,-3.5553,-3.5553,-3.5572,-3.5572,-3.5584,-3.5596,-3.5577,-3.557,-3.5601,-3.5623,-3.5657,-3.5688,-3.5718,-3.5718,-3.5728,-3.5728,-3.5699,-3.5708,-3.5737,-3.5737,-3.5699,-3.5629,-3.5607,-3.555,-3.5489,-3.547,-3.5393,-2.7587,-2.8132,-2.9022,-2.9464,-2.9611,-3.0066,-3.0269,-3.0318,-3.0274,-3.0858,-3.1875,-3.2157,-3.2478,-3.2885,-3.293,-3.3024,-3.319,-3.316,-3.3327,-3.3433,-3.3549,-3.3615,-3.3698,-3.3762,-3.3807,-3.3807,-3.3807,-3.3807,-3.3807,-3.3807,-3.3807,-3.3807,-3.3807,-3.3807,-3.3807,-3.3807,-3.3807,-3.3807,-3.3807,-3.3807,-3.3807,-3.3807,-3.3807,-3.386,-3.3895,-3.3972,-3.3998,-3.4099,-3.4173,-3.4269,-3.434,-3.4386,-3.4454,-3.4583,-3.4626,-3.4668,-3.4751,-3.4888,-3.4927,-3.4927,-3.4945,-3.5072,-3.5107,-3.5126,-3.5179,-3.5193,-3.5258,-3.5637,-3.5718,-3.5744,-3.5763,-3.5739,-3.5748,-3.5556,-3.5493,-3.5507,-3.5488,-3.5482,-3.5427,-3.5339,-3.532,-3.53,-3.5315,-3.5345,-3.5374,-3.5468,-3.5509,-3.5572,-3.5577,-3.557,-3.5601,-3.5601,-3.5601,-3.5612,-3.5604,-3.5604,-3.5626,-3.5667,-3.5708,-3.5728,-3.5747,-3.5756,-3.5756,-3.5756,-3.5736,-3.5736,-3.5765,-3.5784,-3.5708,-3.5609,-3.5629,-3.5648,-3.5593,-3.5521,-3.5476,-2.7379,-2.7528,-2.8289,-2.8644,-2.8807,-2.9515,-2.9823,-2.9902,-2.9969,-3.0092,-3.0504,-3.1193,-3.1812,-3.2284,-3.2737,-3.282,-3.2916,-3.2993,-3.3165,-3.3364,-3.3509,-3.3605,-3.3671,-3.3734,-3.3807,-3.3807,-3.3807,-3.3807,-3.3807,-3.3807,-3.3807,-3.3807,-3.3807,-3.3807,-3.3807,-3.3807,-3.3807,-3.3807,-3.3807,-3.3807,-3.3807,-3.3807,-3.3807,-3.3807,-3.3807,-3.3807,-3.3807,-3.3834,-3.3939,-3.4023,-3.4197,-3.4245,-3.434,-3.445,-3.4539,-3.4583,-3.4708,-3.4809,-3.4868,-3.485,-3.4908,-3.5001,-3.5001,-3.5038,-3.5073,-3.5145,-3.5229,-3.5277,-3.5392,-3.5426,-3.5445,-3.5441,-3.5436,-3.5465,-3.5446,-3.546,-3.5455,-3.5526,-3.545,-3.5305,-3.5267,-3.5248,-3.5168,-3.5219,-3.53,-3.5383,-3.5441,-3.5522,-3.5553,-3.5546,-3.5546,-3.557,-3.5581,-3.5585,-3.5618,-3.5658,-3.5669,-3.5699,-3.5747,-3.5765,-3.5773,-3.5773,-3.5782,-3.5782,-3.5782,-3.5782,-3.5773,-3.5793,-3.5708,-3.5639,-3.5629,-3.5648,-3.5604,-3.5546,-3.5534,-2.7362,-2.7425,-2.7687,-2.7783,-2.7849,-2.8067,-2.8115,-2.822,-2.8886,-2.9425,-3.0141,-3.0826,-3.1352,-3.1608,-3.2294,-3.2606,-3.2722,-3.282,-3.306,-3.3292,-3.3422,-3.3549,-3.3671,-3.378,-3.3807,-3.3807,-3.3807,-3.3807,-3.3807,-3.3807,-3.3807,-3.3807,-3.3807,-3.3807,-3.3807,-3.3807,-3.3807,-3.3807,-3.3807,-3.3807,-3.3807,-3.3807,-3.3807,-3.3807,-3.3807,-3.3807,-3.3807,-3.3807,-3.3834,-3.3887,-3.3972,-3.4049,-3.4173,-3.4335,-3.4427,-3.4495,-3.4602,-3.4727,-3.4749,-3.4771,-3.485,-3.4983,-3.502,-3.5072,-3.5108,-3.5143,-3.5176,-3.5179,-3.5248,-3.5286,-3.5302,-3.5261,-3.5239,-3.5308,-3.5324,-3.532,-3.535,-3.5592,-3.5742,-3.56,-3.5508,-3.5354,-3.5088,-3.5138,-3.5223,-3.5304,-3.5369,-3.5435,-3.5483,-3.5496,-3.5528,-3.5591,-3.5616,-3.5649,-3.5727,-3.5689,-3.5718,-3.5745,-3.5773,-3.5782,-3.5782,-3.5791,-3.5791,-3.5791,-3.5791,-3.5782,-3.5801,-3.5793,-3.5747,-3.5689,-3.5629,-3.5607,-3.5574,-3.5581,-3.557]}]]